GFSSE_850_spd_000.txt.gz
Wind_Speed
7 1 4 6 9 8 6 3 3 3 9 8 7 5 7 7 6 5 4 7 8 7 6 4 6 1 2 4 4 6 9 12 15 15 13 7 6 5 3 7 1 4 7
5 2 4 8 9 8 6 4 3 4 8 7 7 2 7 4 4 5 7 9 6 6 8 2 2 2 2 2 5 8 11 14 17 17 9 4 4 3 5 5 5 6 5
0 5 6 10 8 5 4 4 4 6 6 6 3 5 2 3 4 6 5 2 3 5 12 5 7 3 6 8 6 8 8 13 14 9 4 3 4 8 11 11 8 8 6
4 3 8 9 8 5 5 3 4 4 5 5 1 2 2 2 1 2 6 3 3 9 12 7 5 9 10 8 7 10 6 9 10 7 3 1 4 9 11 13 10 12 9
7 4 3 5 8 6 6 4 2 5 5 5 2 4 2 2 1 2 2 4 4 9 11 12 7 4 4 6 10 10 9 10 11 6 2 9 10 6 13 13 12 11 13
7 6 5 8 9 10 6 3 2 5 5 6 1 5 5 4 2 2 4 6 9 8 9 11 7 5 5 6 7 9 12 13 14 10 7 7 14 13 15 16 14 15 17
8 5 4 5 9 8 6 4 4 2 3 4 3 6 6 4 3 5 5 7 12 11 8 10 12 10 8 9 11 12 13 13 14 14 13 13 14 17 19 18 17 18 20
11 7 3 5 8 8 6 5 3 2 2 3 4 4 8 8 6 5 4 9 12 10 11 10 11 10 9 9 10 11 12 13 13 12 13 11 14 18 18 19 20 21 22
8 7 3 4 6 6 5 3 4 4 3 3 4 2 6 6 5 6 7 9 6 8 9 8 8 9 10 9 10 11 13 13 14 14 12 12 12 14 15 16 18 21 22
9 8 6 4 4 6 3 1 3 5 6 6 3 2 0 3 2 3 5 6 6 8 9 10 10 10 11 11 12 12 12 15 16 15 14 13 13 14 16 18 18 21 23
10 11 10 7 7 2 2 4 6 6 3 2 2 2 2 3 3 5 5 7 7 8 9 10 11 12 13 14 13 12 18 18 17 17 19 19 20 21 20 21 21 22 23
11 12 12 11 11 9 9 11 6 4 3 2 2 3 2 2 4 5 6 5 7 8 10 11 13 16 17 18 20 20 21 22 22 24 26 26 26 27 27 26 26 27 27
12 11 14 13 13 10 10 8 4 4 3 3 6 5 3 3 2 5 7 11 13 14 15 17 18 19 21 22 23 23 24 24 25 28 29 29 30 30 32 33 33 31 31
12 14 14 16 15 13 12 9 7 7 6 5 4 5 5 3 6 7 9 11 13 15 16 16 16 17 18 19 21 22 24 25 26 28 30 31 32 33 33 34 35 35 34
12 15 16 12 14 15 14 9 10 6 6 4 7 5 5 3 3 5 6 8 10 11 12 14 18 17 19 19 20 21 23 23 23 26 28 30 31 33 32 32 33 33 32
9 11 9 12 13 12 13 12 9 11 6 8 7 4 6 5 4 5 6 8 11 12 14 13 14 15 16 17 19 20 21 23 24 26 28 28 30 31 32 32 31 31 31
14 15 14 14 12 12 11 10 9 10 10 7 4 3 1 3 5 2 5 8 9 8 9 10 12 14 16 18 20 20 23 25 27 28 31 30 29 28 29 32 31 29 28
9 11 12 13 15 14 9 10 8 6 6 4 5 4 5 2 5 2 2 4 5 7 9 13 15 18 20 23 20 22 22 27 26 28 28 28 30 26 22 22 26 29 31
9 7 9 10 15 16 13 15 13 11 10 10 8 5 4 5 4 4 5 7 9 11 13 17 19 20 24 24 23 26 23 24 22 20 23 17 18 25 27 27 25 28 29
11 11 13 14 17 19 16 15 15 14 12 10 8 7 8 8 8 9 10 12 14 15 17 20 21 21 20 19 24 22 25 16 18 22 22 24 26 28 28 26 28 25 25
15 16 16 17 16 17 18 15 13 12 12 12 11 10 9 9 10 12 14 16 18 17 17 18 19 20 20 20 23 28 25 18 15 18 25 26 26 23 21 24 30 34 36
20 20 21 21 21 20 16 14 13 13 15 13 11 9 9 10 13 16 19 20 19 17 17 18 19 21 20 21 23 22 20 30 20 31 19 26 20 25 28 33 29 31 36
19 18 18 17 16 16 15 16 17 15 13 10 8 8 9 12 17 20 22 22 19 17 17 17 19 20 22 21 19 16 15 13 38 22 35 16 32 29 36 36 32 30 37
20 20 20 20 19 17 15 14 12 12 11 9 7 7 9 13 19 22 23 23 21 19 18 19 19 19 19 19 20 19 20 22 30 30 11 38 32 32 34 30 35 30 30
21 21 20 20 20 19 17 14 12 11 9 7 6 7 10 15 19 21 23 24 23 20 19 18 19 19 19 19 19 25 27 25 30 31 40 34 33 32 32 33 30 41 38
21 20 19 18 19 17 15 14 11 8 7 6 5 5 7 12 16 20 22 23 21 19 18 19 19 20 20 20 22 26 27 29 31 31 34 40 39 37 32 36 33 39 29

GFSSE_850_spd_003.txt.gz
Wind_Speed
3 3 6 8 13 10 8 4 2 4 6 8 7 2 7 5 5 3 4 2 6 8 7 5 4 3 3 5 5 4 9 12 17 15 11 7 3 5 4 5 5 5 3
1 5 7 11 12 10 8 4 3 5 6 6 5 2 9 6 3 3 6 9 10 6 9 3 2 2 6 5 5 4 10 12 13 14 4 0 3 3 3 4 6 8 3
6 7 9 11 12 10 9 7 6 5 4 5 4 5 3 4 1 5 5 1 3 6 11 7 5 3 7 7 8 8 8 12 15 7 1 3 3 4 4 6 6 10 7
6 8 8 11 12 8 9 8 3 2 3 3 1 3 3 3 3 1 3 2 3 8 10 9 4 5 8 10 11 9 10 9 9 6 2 5 5 6 4 10 8 10 10
4 8 7 8 10 10 10 4 2 2 3 4 0 8 6 4 3 2 3 4 4 10 11 11 7 5 4 6 6 8 9 13 14 8 8 8 6 10 12 12 11 11 13
4 4 3 4 9 9 7 4 2 2 2 4 3 6 8 6 3 3 3 2 6 13 12 10 10 9 8 8 8 8 8 10 12 12 10 11 13 10 14 18 15 13 15
6 5 4 5 7 9 6 4 2 2 1 3 3 4 7 8 5 5 4 4 10 13 9 9 9 9 8 9 9 9 10 10 11 12 12 11 13 15 15 17 18 17 16
6 6 6 8 8 8 7 5 3 4 0 0 4 1 4 5 4 2 4 6 9 8 8 9 10 10 9 9 9 10 11 11 11 11 11 12 11 13 15 16 16 17 19
11 9 8 9 9 9 6 4 4 4 3 3 2 2 2 4 5 4 4 6 6 8 9 10 9 9 10 10 11 12 12 12 13 14 13 11 10 11 13 14 17 17 19
12 10 8 8 8 7 5 5 3 3 5 5 2 2 1 2 3 2 2 2 5 8 9 10 11 12 12 13 14 14 13 15 16 16 14 14 16 16 18 18 19 20 20
13 12 10 9 8 7 6 6 3 2 3 3 2 1 3 4 3 0 2 5 8 9 10 12 11 12 13 14 15 16 17 19 20 20 21 21 22 23 23 24 25 25 26
9 14 14 12 8 7 7 6 4 4 2 4 2 2 1 1 2 3 5 5 7 10 10 13 14 15 17 18 19 21 22 22 23 23 24 24 24 24 24 25 26 26 26
7 10 17 16 12 10 10 9 8 6 4 7 3 1 1 2 1 3 5 8 10 13 14 15 16 17 18 19 20 21 22 24 24 25 26 26 27 27 28 27 28 28 30
12 11 12 17 18 15 15 11 9 6 6 5 3 6 5 4 2 4 5 7 9 11 13 14 15 16 16 16 15 17 18 19 22 22 22 23 24 26 27 28 28 27 28
12 13 14 16 20 19 16 12 12 11 9 9 8 7 7 5 5 4 5 5 8 12 13 13 12 12 14 14 15 15 16 18 21 22 22 23 23 24 26 26 27 25 26
14 16 16 17 17 19 19 14 15 13 10 10 9 7 6 6 5 3 5 8 9 11 10 9 11 12 13 16 17 18 18 18 18 21 26 23 23 24 24 25 28 28 27
18 18 17 14 14 15 16 15 13 16 13 11 8 6 4 3 5 6 6 7 7 3 7 9 12 15 17 17 19 18 19 19 21 22 23 18 15 16 18 16 17 20 21
20 19 17 17 15 14 11 13 12 12 14 12 11 8 6 6 7 7 3 1 4 8 10 13 16 19 19 21 21 21 21 19 17 13 13 12 13 17 19 19 17 18 18
20 19 22 21 19 16 14 16 16 13 12 11 10 9 8 6 3 1 3 6 8 12 14 16 17 18 19 20 21 21 19 17 11 15 15 16 18 20 21 20 20 20 20
14 15 19 26 23 20 19 21 17 14 12 11 9 10 10 7 5 6 9 11 14 16 16 17 17 17 18 20 21 21 19 11 17 11 15 21 19 22 21 20 21 22 24
14 18 20 25 24 22 20 20 17 15 13 13 13 12 8 6 7 10 13 16 18 19 17 18 18 19 19 22 25 27 21 21 3 17 17 22 22 18 20 23 27 31 30
19 20 23 23 22 19 17 16 15 17 18 15 12 9 7 7 10 14 19 22 23 20 17 18 19 21 20 20 23 22 15 21 11 29 14 19 16 22 27 27 29 27 31
23 23 23 23 22 18 15 19 21 19 17 14 11 7 5 7 11 16 20 22 23 22 19 18 19 20 22 20 18 14 10 10 40 13 32 10 30 22 32 29 27 29 23
26 23 23 22 18 15 15 17 16 15 15 12 8 4 3 6 11 15 18 21 21 21 19 18 18 18 20 22 21 18 17 24 29 24 16 42 22 34 32 31 33 27 30
25 25 26 25 23 21 18 15 15 15 12 10 6 3 1 5 10 15 18 21 21 20 18 18 18 18 19 20 19 24 26 30 31 32 36 29 34 32 34 30 32 37 32
27 26 24 22 21 19 17 16 14 11 11 9 6 2 3 8 11 14 18 20 20 18 18 18 19 20 21 21 22 23 25 30 33 34 40 41 37 34 30 33 35 31 29

GFSSE_850_spd_006.txt.gz
Wind_Speed
5 6 10 13 14 13 7 6 5 4 5 5 3 3 5 5 9 7 3 5 10 13 6 5 2 1 4 6 7 7 7 11 17 19 16 9 8 9 9 6 10 9 7
5 10 10 13 16 14 11 9 8 5 6 4 4 8 14 8 5 2 3 7 9 9 6 3 7 7 6 9 8 7 8 15 10 12 5 4 4 4 6 7 4 7 5
7 10 10 13 16 15 13 10 7 6 5 3 0 8 11 8 3 2 4 4 6 3 7 6 2 4 7 8 9 10 12 14 13 7 3 3 4 5 7 7 6 10 10
7 9 11 14 15 13 11 9 5 4 3 2 3 6 5 4 5 3 1 2 2 9 10 10 6 4 5 8 10 11 14 13 12 10 5 6 6 7 8 11 8 8 11
8 10 10 13 14 12 11 8 4 2 1 1 4 8 9 7 5 3 1 2 7 12 11 9 6 4 3 3 4 6 8 9 11 9 7 8 9 9 8 11 12 10 10
9 10 9 10 11 12 10 5 4 1 1 3 4 9 9 7 5 5 4 5 7 12 10 7 8 8 6 6 6 6 6 8 9 9 9 9 12 9 10 13 14 12 10
9 9 7 9 9 9 7 6 4 2 2 3 3 6 6 7 5 3 2 3 9 9 7 8 9 8 8 8 8 7 8 7 8 9 10 10 11 13 12 12 15 15 14
7 8 8 8 10 10 9 8 5 4 5 4 3 3 4 5 4 4 5 5 6 6 6 7 9 9 9 9 10 10 10 10 9 10 12 13 12 12 13 13 15 16 15
9 9 8 10 11 11 10 8 6 7 5 4 1 1 1 3 5 4 2 4 4 5 7 9 9 10 10 11 12 12 13 12 13 13 13 12 11 12 14 15 14 16 18
12 11 11 11 12 11 9 8 6 7 5 3 2 0 2 4 4 4 3 2 3 6 7 8 8 9 9 9 10 11 13 14 14 15 15 14 14 15 16 15 16 17 19
17 16 14 12 13 12 11 10 8 6 4 4 4 2 4 5 4 3 1 1 3 5 6 7 8 8 9 10 11 13 14 16 17 18 17 15 16 17 17 16 17 17 18
17 17 17 15 14 12 13 11 9 7 6 6 5 4 3 3 3 0 1 2 4 5 7 8 10 11 13 14 15 14 15 17 17 18 19 18 17 17 18 19 19 20 21
9 15 17 17 15 15 14 12 10 8 9 8 6 5 4 3 1 1 1 2 4 8 9 12 13 14 14 14 14 15 13 15 16 18 17 18 19 19 20 20 22 23 24
16 15 16 18 18 16 14 12 10 10 10 9 9 7 5 3 3 3 3 4 5 7 8 11 12 13 13 15 16 15 15 14 14 14 15 15 17 16 16 19 19 20 21
19 18 19 20 21 19 16 15 15 14 10 9 9 6 5 6 5 5 6 6 8 9 10 13 16 15 15 14 14 16 17 18 17 17 17 19 22 19 18 16 17 18 20
20 19 20 21 22 21 20 18 16 14 11 12 11 9 9 8 8 8 7 8 9 13 15 14 12 14 16 18 19 20 20 19 19 20 20 20 15 9 9 11 12 12 14
23 19 21 21 21 22 22 19 16 13 13 13 12 9 7 7 8 9 8 9 11 10 10 12 14 16 19 21 21 20 18 15 14 14 11 6 8 9 10 12 13 11 13
20 21 22 22 20 21 20 18 17 17 16 14 12 8 8 7 7 8 7 6 7 9 12 15 17 18 18 18 18 15 12 10 8 7 8 9 11 13 14 15 16 16 15
19 23 25 22 21 20 18 18 18 17 16 14 12 11 8 7 4 3 3 6 9 12 14 15 15 16 16 15 15 14 10 5 7 9 9 11 13 14 15 15 16 17 19
21 20 22 24 25 22 19 20 18 16 15 13 12 10 8 6 3 1 5 9 12 14 14 14 13 12 15 17 17 16 9 3 12 2 17 8 16 13 14 18 21 23 25
18 21 25 29 29 25 22 24 21 18 16 14 12 13 10 6 2 5 9 12 16 18 18 16 15 15 15 21 23 23 13 10 6 6 17 17 16 15 22 21 23 23 24
17 19 26 31 28 22 20 21 18 18 16 17 17 14 8 4 3 7 11 15 17 18 16 16 17 17 17 21 23 20 14 16 5 30 10 26 12 28 17 24 24 24 24
20 22 25 27 24 19 19 20 21 20 21 20 16 11 6 2 4 8 12 16 18 18 17 16 16 19 20 19 19 14 9 8 37 15 34 14 26 23 31 28 27 25 27
23 25 25 25 22 21 20 22 22 24 23 17 13 9 5 1 4 9 13 16 19 18 16 16 16 18 19 21 20 19 15 19 17 22 25 41 29 39 35 32 30 29 32
26 26 25 24 22 20 20 20 22 21 18 16 12 8 5 1 6 10 13 17 18 17 15 15 16 17 19 20 21 24 25 24 25 26 33 31 41 41 39 33 34 36 35
28 27 26 25 24 23 23 23 21 18 16 13 10 7 4 4 7 10 14 17 17 16 15 16 17 18 19 20 22 23 24 25 30 31 35 36 35 34 26 36 35 36 26

GFSSE_850_spd_009.txt.gz
Wind_Speed
8 10 14 15 12 11 8 7 6 5 4 4 3 6 7 9 9 7 5 6 9 12 7 5 7 3 3 6 9 10 11 13 15 19 18 16 11 11 13 10 10 8 6
7 11 14 16 13 12 9 9 7 6 6 5 0 8 8 5 11 8 6 7 8 10 5 3 7 6 7 8 7 7 10 13 13 15 10 6 4 3 5 4 4 5 5
7 10 12 16 14 12 13 10 6 7 7 4 1 15 14 7 5 3 4 7 4 4 7 5 3 5 6 7 8 9 11 13 15 11 9 4 4 5 5 5 7 6 9
7 10 11 16 18 15 14 9 7 7 4 2 3 8 8 7 4 3 2 4 7 8 8 7 4 1 3 6 7 9 10 13 12 10 8 5 7 7 6 6 8 8 10
10 11 12 14 17 14 12 9 6 4 2 1 5 7 7 5 4 2 1 6 9 11 9 8 7 5 4 2 3 3 5 6 6 6 6 6 7 8 6 6 10 11 10
10 10 10 14 14 12 10 8 6 4 1 2 5 9 9 6 4 3 1 5 7 8 8 7 7 7 7 5 5 4 4 5 6 6 7 7 9 8 9 8 12 13 10
11 11 10 12 12 10 11 7 6 4 3 3 5 7 8 6 3 2 2 3 6 6 5 7 8 8 8 8 8 8 6 7 8 9 10 10 10 10 10 11 11 13 14
9 11 10 10 11 11 9 8 7 5 6 4 4 6 6 8 6 6 6 6 4 4 4 6 7 7 8 8 8 8 8 9 9 10 11 11 11 10 10 11 12 12 16
10 11 10 9 11 11 11 9 8 7 6 3 3 2 5 6 8 6 5 4 3 3 5 6 7 6 6 6 6 6 7 7 9 9 10 10 10 11 12 13 14 13 14
12 12 10 10 13 13 12 12 9 9 8 4 1 1 3 6 6 5 3 1 1 3 4 5 5 5 6 7 8 9 10 10 12 12 12 9 10 10 10 12 12 12 14
17 16 13 12 13 15 13 12 11 9 7 6 4 2 4 6 6 4 2 1 2 3 4 6 7 7 9 11 10 10 10 12 14 14 13 12 12 11 11 12 12 13 15
17 18 17 15 15 16 16 15 13 10 8 7 6 6 5 6 5 4 2 1 1 3 4 6 7 9 11 12 13 12 13 12 13 12 11 9 11 12 11 12 15 17 19
13 18 19 18 17 18 17 16 15 11 10 8 7 7 5 5 5 3 2 0 2 4 5 8 10 11 13 14 15 17 15 16 16 15 14 14 14 14 15 15 15 17 17
18 18 18 19 20 19 16 16 14 12 11 10 9 8 5 4 3 3 3 2 4 6 8 10 11 14 16 17 19 17 16 17 18 18 18 18 18 19 19 17 16 14 15
25 24 22 21 21 21 19 17 16 13 11 11 10 8 7 5 6 5 3 4 5 9 11 13 16 19 17 16 17 19 19 20 19 19 18 18 19 17 12 11 8 10 9
26 25 25 24 22 22 20 18 15 12 12 11 10 9 7 6 9 6 4 5 8 12 14 16 15 17 19 20 21 21 21 20 18 16 14 11 7 6 6 7 9 10 9
26 25 24 26 23 23 21 19 15 12 12 13 11 9 8 7 7 5 5 7 11 11 12 15 17 20 22 22 21 19 15 13 11 9 8 8 9 9 10 11 11 13 13
27 26 24 27 24 23 21 18 18 16 15 14 13 10 8 7 7 5 6 7 7 10 14 18 19 21 20 19 17 12 12 10 9 7 8 10 11 11 12 13 14 16 18
25 24 25 27 25 23 22 21 19 18 16 15 13 10 7 6 6 4 4 5 8 11 13 14 15 17 18 16 15 12 11 10 8 8 7 10 11 13 13 13 15 18 19
20 20 24 28 26 25 24 21 18 17 16 15 13 12 7 8 6 3 3 6 9 12 14 14 13 15 17 18 17 15 8 9 12 12 9 15 11 15 12 17 20 19 20
21 19 25 29 29 28 26 22 19 17 16 15 14 11 10 9 4 1 5 9 13 16 18 17 14 13 16 20 22 20 10 9 15 11 16 18 20 18 16 25 21 24 24
21 23 25 29 32 31 23 20 20 19 18 17 15 15 12 7 2 2 7 11 14 16 15 14 15 15 16 20 21 18 12 15 5 14 22 17 24 18 27 24 28 27 28
22 22 26 31 33 27 20 20 21 21 21 20 19 15 11 6 0 5 9 12 15 16 15 14 14 16 16 16 17 14 8 7 35 18 33 27 31 33 31 32 32 30 29
21 20 21 28 29 23 19 23 23 24 24 23 19 14 9 5 2 5 8 12 15 15 14 13 14 16 17 19 17 16 14 17 14 20 27 42 36 40 39 37 35 31 33
22 22 22 27 25 22 19 19 21 23 24 22 18 13 9 5 4 6 9 12 14 15 14 13 14 16 18 18 20 22 23 24 23 19 36 41 47 44 43 39 38 39 34
24 24 26 26 24 21 19 20 21 25 25 21 18 13 9 6 5 7 10 12 14 14 14 15 16 17 18 20 21 22 22 23 25 25 32 38 41 44 44 47 38 36 35

GFSSE_850_spd_012.txt.gz
Wind_Speed
9 10 17 14 11 9 7 6 4 1 4 5 5 7 9 9 7 5 5 6 8 7 3 5 4 5 5 6 7 7 8 9 11 14 16 12 9 7 8 7 8 8 6
8 12 15 16 13 10 8 6 4 3 6 5 1 6 5 8 9 7 5 6 7 6 4 3 6 4 7 6 7 6 7 9 11 11 13 6 3 3 1 1 5 5 5
9 12 15 17 13 10 10 7 5 5 6 4 4 10 8 6 5 7 5 4 2 4 4 3 4 5 6 8 7 7 8 9 9 9 9 4 3 3 3 3 8 4 7
10 12 14 16 14 13 11 7 5 5 4 2 4 16 11 5 3 4 8 10 9 8 7 7 5 2 2 4 5 6 7 6 7 7 6 4 3 4 4 7 7 7 7
13 12 13 16 14 13 9 7 5 4 3 0 6 10 7 6 5 4 4 7 9 9 8 8 8 6 5 3 1 1 2 3 4 4 5 5 5 5 4 2 6 9 10
14 13 12 13 14 12 10 8 5 3 2 2 5 9 9 5 3 4 3 4 5 7 7 8 9 9 8 7 6 4 4 4 5 5 6 7 7 6 6 6 7 10 11
14 14 12 13 14 12 10 7 5 3 2 2 5 9 9 7 3 3 5 4 4 4 5 6 7 7 6 5 5 4 4 4 6 6 6 7 7 7 6 6 6 9 11
10 12 12 12 11 10 10 7 5 4 4 3 5 8 9 8 5 4 5 4 4 3 4 5 5 5 5 5 5 6 5 5 6 7 7 7 7 6 6 7 8 9 9
10 11 10 10 10 11 10 8 6 5 5 3 3 5 7 8 8 6 5 5 3 2 4 5 4 5 6 7 7 8 7 7 8 8 8 8 8 9 9 9 11 12 12
10 11 11 10 11 11 11 10 8 6 8 5 1 2 4 7 8 7 4 2 1 1 2 4 5 6 6 6 7 9 10 12 12 12 11 10 10 10 11 11 13 13 13
14 13 13 12 12 12 12 11 10 8 10 7 6 3 4 6 6 5 4 3 2 1 1 2 3 4 7 9 11 11 12 12 13 12 12 11 11 11 11 12 13 15 17
12 14 16 15 13 14 15 14 13 12 10 8 7 4 5 7 7 5 4 4 2 1 2 3 5 9 10 11 11 12 14 15 14 14 13 13 12 13 13 14 15 16 16
10 12 15 15 15 16 17 16 15 13 10 9 8 8 7 6 5 5 4 3 2 4 5 6 7 10 12 13 14 16 17 16 17 17 17 16 16 15 15 15 14 13 15
13 14 15 17 17 17 17 17 16 14 11 10 9 8 6 6 6 5 4 2 3 4 7 9 10 12 15 17 16 17 18 19 20 20 19 18 17 16 15 11 9 13 12
19 19 20 19 20 19 18 18 17 15 11 10 10 9 7 6 6 4 2 3 5 7 10 11 13 14 15 15 18 20 21 21 20 19 18 17 15 12 10 9 8 8 5
24 23 24 23 23 21 20 19 17 15 12 11 10 9 8 6 5 5 5 4 7 11 13 12 14 16 18 20 21 21 20 19 16 13 11 10 7 7 8 8 10 9 10
25 26 27 25 26 24 22 20 18 15 13 12 10 9 8 7 6 5 4 6 10 11 11 14 18 19 20 19 18 16 14 14 12 9 8 8 9 11 13 13 13 14 15
21 23 25 24 24 26 24 22 21 17 14 12 11 10 9 8 6 7 6 7 8 10 13 16 18 18 17 16 13 13 12 12 11 9 9 10 12 13 14 15 16 17 18
21 19 23 24 24 27 26 25 20 15 15 14 11 11 9 7 5 6 6 6 7 10 12 14 16 16 15 13 11 11 13 10 11 11 11 9 11 13 15 16 16 19 21
22 20 21 23 24 27 27 25 20 17 16 15 14 13 10 8 8 5 4 4 8 11 13 13 14 16 17 17 14 13 10 9 11 13 18 14 16 16 21 20 20 24 24
21 20 19 22 27 29 29 27 23 19 17 17 16 14 12 10 8 4 3 6 9 13 16 17 16 15 17 20 20 18 8 8 11 18 11 18 22 19 24 21 27 29 29
22 20 19 23 29 30 29 27 21 18 18 17 16 15 13 11 7 3 3 7 12 16 17 17 17 17 19 21 22 18 10 11 3 7 25 18 25 21 28 25 28 29 29
24 22 22 24 30 30 27 24 21 20 20 21 20 18 16 12 7 3 4 8 12 15 17 18 18 18 17 17 18 14 8 6 30 9 28 19 31 30 33 33 33 31 31
27 23 21 25 31 29 28 24 22 24 24 23 22 20 16 12 7 3 5 9 12 15 16 17 18 18 18 18 16 16 15 17 13 18 16 38 33 41 39 38 36 38 35
27 24 21 24 29 30 27 22 22 22 23 24 24 20 16 11 6 4 6 9 12 14 15 16 16 17 18 18 20 21 20 20 20 20 35 39 45 44 43 44 42 35 36
27 22 22 25 30 31 26 25 22 24 26 27 25 20 15 10 6 6 7 10 13 14 15 16 16 17 18 19 20 20 21 21 23 22 32 41 43 44 48 42 39 36 36

GFSSE_850_spd_015.txt.gz
Wind_Speed
11 14 18 15 13 11 7 5 3 1 2 4 5 6 8 7 4 4 5 4 4 5 3 7 4 7 6 9 7 6 8 7 8 10 11 9 4 3 5 5 5 8 6
11 12 19 16 12 10 7 4 3 1 4 5 2 4 8 7 5 4 5 4 5 2 3 4 7 8 8 8 8 7 7 7 8 10 9 6 2 2 1 3 4 4 3
12 14 17 18 12 9 7 4 2 2 4 3 10 9 8 8 8 6 6 4 3 4 4 2 5 6 8 9 8 7 7 7 8 8 5 4 3 1 1 1 4 4 7
12 14 16 18 14 11 7 4 2 2 3 3 12 9 8 6 4 8 11 9 8 7 8 7 5 2 3 4 5 6 7 6 4 4 4 4 4 4 3 3 2 6 5
14 14 16 16 15 11 7 4 2 1 2 3 10 14 6 7 7 5 7 7 8 9 8 9 8 7 5 4 2 1 1 2 3 4 4 4 4 4 4 3 5 6 11
16 15 16 16 14 11 7 6 3 1 2 2 8 13 9 6 5 3 2 2 5 6 6 7 7 6 5 4 3 2 2 1 1 2 3 3 4 4 4 5 6 12 11
15 16 16 16 13 10 9 6 4 1 1 3 8 12 11 6 3 4 6 2 4 4 4 4 4 4 4 3 2 2 3 4 4 4 4 4 5 5 5 5 6 6 10
12 14 15 15 15 11 9 7 4 2 2 4 7 10 11 9 5 4 6 1 3 3 3 4 5 5 5 6 6 5 4 4 4 5 5 5 6 6 7 7 8 8 10
12 13 13 14 14 12 9 8 4 2 6 6 6 8 9 9 7 5 5 3 2 2 2 4 4 4 4 4 5 6 7 8 10 11 9 10 10 10 8 9 11 13 14
11 13 12 12 13 13 11 9 5 3 7 5 3 4 7 8 9 7 5 4 3 2 1 2 3 3 4 6 8 10 12 11 12 12 9 10 12 13 10 12 13 15 15
13 13 14 13 12 12 12 11 8 6 9 8 3 3 5 7 8 8 7 6 4 2 1 2 3 5 7 10 10 10 10 11 12 12 12 12 12 11 12 14 15 16 16
11 14 15 15 14 13 14 14 11 10 9 7 6 5 5 8 9 8 7 5 4 3 3 5 6 8 9 10 11 13 14 14 13 13 13 13 12 13 13 13 14 15 17
7 11 14 15 16 15 14 15 14 12 11 10 8 7 6 8 8 7 6 5 4 4 4 6 8 9 11 13 15 15 15 15 17 17 17 16 14 13 12 11 12 15 15
9 9 10 13 15 16 16 16 15 14 12 10 9 9 9 8 7 7 6 5 3 2 5 8 10 12 15 15 15 17 18 19 19 19 19 17 15 12 8 9 13 13 9
15 13 13 14 15 17 18 18 17 15 13 11 11 11 10 9 8 7 6 4 4 5 7 11 12 13 14 16 18 18 19 19 18 16 14 12 11 12 11 12 11 8 9
18 19 18 18 19 19 20 19 18 16 15 12 12 12 10 9 8 8 7 5 5 7 10 11 12 15 17 18 18 17 16 15 13 11 9 8 8 8 9 11 11 13 13
17 18 22 24 24 22 23 20 19 17 16 13 12 12 12 10 9 9 7 6 6 9 9 12 15 16 16 15 15 13 13 12 10 8 6 7 8 10 12 14 14 16 17
21 22 22 26 28 24 25 23 21 19 18 15 14 12 12 11 10 9 8 8 8 7 10 13 15 16 15 13 12 11 10 11 9 8 6 6 8 10 11 13 15 16 18
26 25 25 24 23 21 25 26 23 22 19 18 15 15 14 11 10 8 8 7 5 7 11 13 14 14 12 10 9 11 11 9 9 9 9 9 10 11 13 15 18 20 22
27 24 24 23 21 21 27 27 24 23 21 20 18 17 15 12 7 9 8 5 5 7 10 11 12 13 14 14 12 13 8 6 9 11 12 15 17 18 18 20 23 25 27
22 23 25 24 24 24 29 31 28 25 23 21 21 19 16 12 9 11 7 3 4 7 9 11 12 14 15 17 15 12 7 4 9 11 15 11 18 18 22 23 28 28 29
22 23 25 24 23 26 30 33 28 26 24 23 24 22 17 13 14 10 5 3 5 8 10 12 13 16 18 19 19 13 7 7 2 8 22 17 22 16 26 23 28 27 27
23 24 26 24 24 28 32 33 28 25 25 26 24 21 19 17 14 9 5 4 6 9 11 14 15 16 17 18 18 13 6 4 25 4 21 13 24 25 31 31 29 31 29
25 25 25 23 26 28 31 32 28 28 28 27 24 22 21 19 14 9 6 4 6 9 12 15 17 18 17 16 16 16 13 13 8 13 13 28 28 36 34 33 36 29 31
26 28 26 24 25 27 31 29 28 29 26 25 26 25 24 19 14 9 6 5 7 10 13 15 17 17 17 17 17 17 16 17 17 17 25 30 38 37 36 42 32 36 31
29 29 26 26 27 28 31 26 27 24 28 29 29 28 24 18 13 9 6 6 8 11 13 15 17 17 17 17 17 18 18 18 19 20 20 29 30 27 43 32 38 32 32

GFSSE_850_spd_018.txt.gz
Wind_Speed
12 16 18 16 13 12 8 7 5 3 2 1 5 8 8 5 4 4 5 4 5 7 6 6 4 3 8 9 7 8 8 9 9 10 11 12 7 4 4 8 6 5 11
13 17 17 17 14 11 8 6 4 1 2 2 1 6 9 6 3 2 3 5 5 3 2 4 8 3 10 8 7 6 6 7 9 10 11 8 4 3 1 2 3 3 4
15 17 17 16 14 10 7 6 4 1 3 4 11 10 12 8 5 4 3 4 4 4 4 3 9 7 5 6 6 7 8 9 9 9 7 4 5 5 3 2 4 2 3
17 17 17 17 14 11 8 6 3 1 3 7 10 8 8 4 5 7 9 8 8 7 7 6 4 4 7 7 8 8 7 7 5 4 4 4 5 6 5 5 2 5 5
17 17 17 18 14 11 8 5 3 1 3 7 14 10 7 9 9 7 5 6 6 7 6 7 5 4 3 2 2 1 1 2 2 4 5 4 4 7 6 5 3 5 8
17 16 17 17 15 12 8 6 3 1 4 7 14 10 13 10 6 3 1 3 5 5 5 5 5 4 3 3 1 1 2 3 3 5 5 6 6 7 6 6 7 8 11
16 16 17 17 16 13 9 6 3 2 4 8 12 15 11 6 5 6 6 1 2 3 3 3 4 4 3 4 3 3 4 5 5 6 6 7 7 8 7 7 7 7 9
15 16 16 18 15 13 10 7 4 2 4 7 11 13 11 8 5 3 5 3 2 2 2 3 3 3 3 3 3 4 5 6 6 7 8 8 10 11 10 10 11 11 11
14 14 14 16 15 13 10 8 5 3 6 8 10 10 10 9 6 4 6 4 3 2 1 1 2 3 3 5 7 8 9 10 10 9 10 9 13 13 12 11 12 14 15
15 15 13 14 14 13 12 10 6 3 7 7 7 8 8 9 8 6 5 6 4 2 2 1 1 3 5 7 9 10 10 9 6 9 7 8 11 11 11 13 15 15 16
14 15 15 14 14 14 12 11 9 7 8 7 5 5 6 9 10 9 8 6 4 4 3 3 4 6 8 10 10 11 11 11 10 9 8 12 11 11 11 13 14 15 16
13 15 16 16 15 15 14 14 12 10 10 8 6 5 6 9 11 10 8 7 5 5 5 6 6 8 8 9 12 13 12 12 12 13 12 14 13 12 12 12 14 14 14
12 14 15 16 17 17 14 15 13 12 11 10 9 8 7 9 10 9 7 5 5 5 6 6 8 9 11 13 14 14 14 15 14 15 17 15 13 11 9 15 14 13 16
13 14 12 14 14 19 14 17 15 14 13 12 11 10 10 10 10 7 7 7 7 6 7 8 9 12 14 14 15 17 18 18 16 15 16 13 12 11 12 14 11 14 14
14 14 14 14 16 15 19 18 17 15 15 13 12 12 12 10 9 8 9 7 6 7 9 9 11 12 14 16 18 18 17 16 14 11 11 10 9 10 11 11 12 11 10
15 16 15 16 17 17 20 19 18 17 16 15 13 14 14 11 11 10 9 8 7 8 10 11 11 13 15 16 17 17 15 13 10 8 7 8 8 9 11 11 13 13 14
17 16 18 18 21 21 22 22 20 19 17 17 14 15 15 12 11 11 11 9 10 9 10 11 13 14 15 16 16 15 13 11 9 7 8 8 9 10 12 13 14 15 16
19 19 19 19 20 23 23 23 21 20 19 17 17 15 14 14 12 12 11 9 10 8 8 11 13 13 13 13 12 13 13 11 9 8 8 8 8 10 12 12 14 16 18
24 22 23 22 22 22 22 23 23 22 22 21 19 16 14 15 13 11 11 10 9 6 7 10 11 11 11 10 11 12 12 9 9 9 9 10 11 14 17 19 19 21 22
29 27 27 26 25 23 22 27 30 28 25 23 21 18 18 17 13 12 12 10 7 4 6 8 9 11 11 11 10 11 7 6 8 9 11 13 16 15 17 20 22 24 27
30 26 26 28 25 25 27 35 34 31 28 25 23 21 20 18 14 11 12 10 5 2 4 6 9 12 13 13 11 7 7 5 7 9 11 11 18 20 20 22 23 26 26
23 25 26 26 26 27 28 33 36 34 31 26 25 24 24 20 15 13 13 9 5 2 3 6 10 13 14 15 12 7 4 4 3 4 17 17 19 12 23 21 25 23 26
24 26 27 28 26 28 29 35 38 35 28 30 30 31 27 22 18 17 14 9 5 2 4 7 10 12 13 14 12 6 4 4 14 5 9 15 12 20 23 26 24 27 25
28 29 28 29 27 29 32 36 36 36 34 32 32 30 28 23 20 18 13 9 5 3 5 9 11 12 12 12 12 12 8 8 6 10 8 12 15 18 21 23 24 27 23
31 31 30 28 28 30 29 35 35 32 32 32 32 31 27 25 22 18 13 9 6 4 6 9 12 13 13 12 13 13 12 11 9 10 19 14 21 20 20 17 24 18 20
28 33 33 30 31 29 30 31 34 35 31 33 34 31 29 27 24 19 14 10 6 5 7 10 12 14 14 14 13 13 11 9 11 13 20 24 25 23 19 23 18 19 22

GFSSE_850_spd_021.txt.gz
Wind_Speed
12 13 14 12 12 10 9 8 7 5 4 6 8 9 7 3 2 3 4 5 6 6 5 4 1 1 9 6 5 5 6 8 9 9 11 13 11 8 6 5 4 4 11
16 15 15 14 12 9 7 6 4 2 1 1 5 7 6 5 1 2 4 5 6 4 3 3 7 6 8 7 5 1 4 7 8 9 10 9 10 8 6 4 1 3 8
17 17 16 15 14 9 7 5 3 2 2 6 9 12 11 7 3 1 3 5 6 6 5 3 7 3 3 3 5 5 7 9 9 8 7 8 7 9 6 3 4 3 4
17 17 16 17 13 10 8 6 3 2 3 8 9 11 7 4 4 2 8 7 9 9 8 6 3 5 6 7 7 7 7 8 6 6 9 4 3 12 8 6 2 4 5
16 15 17 16 13 10 7 6 3 3 4 10 9 6 9 13 13 8 6 8 8 8 8 7 6 4 2 1 2 1 4 3 5 10 6 7 7 10 9 8 5 4 4
16 15 17 14 13 10 7 5 2 2 4 10 9 9 14 10 7 4 3 5 6 6 6 6 6 5 5 4 4 4 6 7 5 5 6 8 9 9 9 8 7 7 7
16 14 14 16 13 10 8 5 3 3 4 8 13 13 10 7 5 4 2 1 3 3 4 4 4 5 4 5 5 6 7 7 9 5 7 6 9 12 10 10 11 10 9
16 15 14 16 12 10 8 6 4 3 5 9 13 13 10 7 5 2 4 2 0 2 2 3 4 4 4 5 6 7 9 9 7 8 9 9 12 13 12 9 9 10 12
15 15 13 16 14 11 9 7 5 4 6 10 12 11 8 8 5 4 6 4 2 1 1 2 3 2 4 6 7 9 11 10 8 7 7 6 11 12 10 9 11 12 14
14 14 14 15 15 14 12 10 6 5 7 8 10 9 8 7 6 4 4 4 3 2 1 1 3 5 7 8 9 9 10 9 8 8 6 11 11 11 10 10 11 13 15
13 14 15 16 16 15 13 11 10 8 9 9 8 8 8 6 7 5 6 4 4 3 2 3 5 6 8 8 8 10 9 5 6 6 6 11 12 12 11 11 12 13 14
13 16 16 18 16 16 16 14 12 9 11 8 6 6 6 8 8 10 7 6 5 4 4 5 6 7 6 4 8 10 6 9 7 7 12 13 12 10 8 12 11 12 14
14 15 17 18 18 19 20 16 14 11 11 9 10 8 8 10 11 9 6 4 4 4 3 6 7 7 10 11 12 9 14 13 9 7 16 14 10 5 9 12 12 14 13
16 17 17 18 18 18 17 20 16 16 12 13 13 11 9 8 9 8 6 9 8 4 5 6 7 10 11 12 14 13 14 13 8 6 16 11 8 10 13 11 12 12 11
17 17 17 18 18 19 18 17 18 16 15 15 14 13 10 10 9 8 9 9 6 5 6 8 9 9 11 14 15 14 11 9 7 5 14 9 8 10 11 11 11 11 11
16 17 17 18 19 17 19 18 16 15 15 17 19 15 14 12 11 15 11 8 7 8 9 9 9 11 12 14 14 12 10 8 6 5 5 10 8 10 11 11 13 13 14
17 18 18 19 19 21 20 21 19 16 17 20 20 15 15 15 19 16 12 9 8 10 9 8 10 11 12 13 10 11 10 8 7 5 5 7 10 10 12 12 14 14 14
21 19 19 20 20 20 20 21 20 20 18 23 19 19 18 18 14 12 12 11 10 9 7 7 8 10 10 11 10 8 10 10 7 6 8 6 9 9 13 13 15 17 18
27 23 21 22 22 22 21 20 21 24 24 22 19 19 22 15 14 12 13 11 11 8 6 6 7 7 9 10 10 10 11 8 8 7 6 9 12 13 16 19 16 20 20
31 26 23 23 24 21 22 20 24 25 25 27 29 24 17 16 16 14 13 13 11 7 4 3 5 7 8 10 10 9 9 5 7 7 7 8 13 15 16 19 19 19 23
34 33 28 27 24 23 25 29 29 32 32 34 29 23 20 19 18 16 14 13 11 7 3 2 5 7 9 10 9 7 8 8 7 7 9 8 11 16 17 14 19 21 22
30 31 29 28 26 26 27 29 31 36 38 31 27 24 22 21 20 17 14 14 11 7 3 2 5 9 11 12 10 7 3 4 5 5 7 15 10 15 13 18 23 22 21
33 32 31 29 28 28 27 27 36 41 35 34 31 28 25 25 23 20 17 14 11 7 4 2 5 7 10 12 10 4 3 3 13 8 8 10 13 13 19 24 24 22 24
36 32 30 29 28 28 30 34 37 38 40 39 35 31 28 28 25 20 18 15 12 8 4 3 6 8 9 10 10 9 4 8 3 9 4 12 16 19 21 24 26 26 26
33 34 32 27 30 28 34 35 36 33 39 37 35 32 33 31 25 22 20 16 12 7 5 4 6 9 10 9 10 9 7 8 8 11 20 14 21 20 23 22 21 26 22
33 30 34 30 31 31 34 33 32 34 40 40 34 34 34 30 27 24 20 16 12 7 5 6 7 10 11 12 11 11 9 7 9 11 18 23 25 26 21 24 25 24 23

GFSSE_850_spd_024.txt.gz
Wind_Speed
11 15 13 15 15 15 14 11 9 7 6 6 7 5 4 2 1 2 2 2 3 4 1 1 7 7 12 7 6 1 1 4 7 7 8 9 8 9 8 6 4 4 6
12 15 14 15 15 13 13 11 8 6 4 5 6 5 5 3 5 6 6 4 4 4 3 4 9 7 9 9 6 3 3 5 6 7 7 7 11 12 10 6 3 1 4
15 17 16 15 13 11 10 9 6 5 4 6 10 10 9 6 6 4 3 8 9 9 7 6 8 5 4 1 1 4 6 7 6 8 12 11 11 12 11 7 5 3 5
12 18 17 16 12 10 8 7 5 5 9 10 12 12 9 6 7 5 9 10 12 12 10 8 5 4 3 3 4 4 5 6 9 10 11 6 1 8 11 7 6 5 4
13 14 17 17 12 10 7 6 4 5 9 10 11 9 6 8 9 7 9 10 11 11 11 10 8 7 6 4 3 4 8 7 9 11 8 9 5 8 11 9 7 7 4
12 15 13 14 13 10 7 6 5 5 8 10 9 11 13 13 11 7 6 8 8 8 8 8 8 8 8 8 7 8 8 8 6 10 9 7 8 9 10 9 8 8 7
19 17 13 13 13 10 8 6 5 5 8 11 9 14 12 9 7 5 4 5 5 6 6 7 7 7 7 7 8 8 8 8 8 7 4 6 6 10 11 7 7 7 8
17 17 16 16 13 11 8 7 5 5 8 11 12 12 10 7 5 3 4 3 3 4 5 5 6 7 7 7 8 9 9 8 7 8 5 6 7 10 11 7 7 7 7
17 14 16 17 14 12 9 7 7 6 7 10 13 10 9 8 5 5 6 4 1 2 4 4 5 5 6 7 7 8 8 8 6 5 4 7 8 11 9 9 8 9 9
19 13 12 19 17 15 13 11 8 8 8 11 11 10 9 7 6 5 5 3 1 1 2 3 4 5 6 7 7 8 8 5 5 4 6 9 9 10 9 9 8 8 10
17 18 13 13 16 16 15 13 11 9 11 11 11 10 9 7 6 7 5 3 2 1 1 1 3 5 6 5 8 9 3 3 3 8 10 10 10 9 8 9 8 7 10
18 19 18 15 14 15 13 14 14 12 11 11 10 9 9 7 7 8 5 4 3 3 1 2 3 4 5 7 9 9 9 7 4 10 13 11 10 5 8 8 10 10 10
16 18 20 21 18 16 20 14 14 13 11 11 9 8 10 12 14 11 7 6 4 4 3 2 4 4 7 7 8 8 12 11 5 10 14 13 8 5 8 9 10 10 9
19 18 19 20 19 19 21 18 15 13 9 10 11 10 12 15 12 12 6 6 5 2 3 4 6 7 8 9 11 11 11 9 7 11 13 10 8 8 9 9 9 9 9
18 19 21 22 24 24 20 20 20 17 16 13 19 16 13 11 9 8 12 14 10 7 7 6 6 8 9 10 11 11 10 7 6 10 12 10 7 7 8 9 9 10 10
18 21 21 23 27 29 24 22 20 19 19 17 16 15 13 10 8 13 19 14 10 9 7 8 8 7 9 10 10 9 8 6 6 7 12 9 7 8 9 9 10 11 12
21 20 24 25 25 26 30 24 20 21 22 21 19 18 16 15 17 20 20 13 10 9 9 7 6 7 8 8 8 8 7 7 6 6 10 11 9 8 9 10 11 12 13
23 24 25 27 28 27 25 27 25 23 18 23 22 19 19 20 21 21 17 13 12 10 10 6 6 6 6 7 8 7 9 9 7 8 9 10 11 11 12 12 13 16 15
30 27 24 29 31 28 29 27 28 22 23 25 24 21 23 26 22 17 12 14 12 13 9 7 3 3 5 7 8 8 9 9 7 7 9 9 10 11 13 16 16 18 18
36 30 30 29 29 27 30 24 27 25 26 25 25 26 28 25 17 16 15 15 13 13 9 6 2 3 5 8 8 7 9 6 7 8 7 10 13 14 16 17 19 16 20
31 36 32 36 33 33 31 33 32 33 30 30 29 29 29 23 18 18 18 15 15 12 9 5 2 3 5 8 8 7 5 7 9 9 7 8 11 17 18 19 18 23 25
34 32 36 31 33 34 35 33 35 36 35 33 34 33 30 25 22 20 19 17 14 12 9 5 2 3 5 8 9 6 3 5 6 7 11 11 15 14 18 20 24 27 25
34 37 33 34 34 33 33 37 40 37 38 37 37 36 32 28 25 22 20 16 16 13 9 5 2 4 6 7 8 6 2 2 10 8 6 11 13 15 19 22 28 28 29
38 35 37 32 34 33 40 42 46 40 43 42 39 36 34 30 29 25 22 19 16 13 10 6 3 3 7 8 9 6 5 7 4 8 7 11 16 15 19 26 27 30 29
35 28 35 36 34 38 42 44 45 40 41 38 38 32 34 33 31 26 23 21 18 14 10 6 4 4 6 8 9 9 9 8 8 9 21 19 22 24 24 25 25 28 29
22 28 28 37 39 35 41 42 43 42 39 38 37 38 38 35 32 29 25 22 19 15 11 7 5 6 7 8 9 10 9 9 8 12 20 27 29 31 28 28 25 22 24

GFSSE_850_spd_027.txt.gz
Wind_Speed
15 15 14 17 17 17 15 13 11 10 9 9 7 5 3 3 2 2 3 1 0 1 2 11 8 15 11 12 5 2 2 1 3 4 4 3 6 9 9 6 4 4 2
16 19 19 19 19 17 16 14 11 9 8 9 9 8 5 6 5 3 4 4 5 6 7 12 13 10 10 8 5 2 3 3 3 4 4 4 6 9 9 6 4 3 4
18 21 21 20 19 17 15 12 10 8 8 9 10 11 10 8 6 3 8 10 10 9 10 14 11 11 8 4 3 2 3 4 8 8 6 6 7 9 10 6 4 4 5
18 22 22 20 17 16 14 11 9 10 12 16 15 14 11 9 7 9 11 13 13 13 13 11 9 6 4 2 0 3 6 10 10 8 10 8 9 8 9 7 6 5 3
18 21 21 19 16 15 13 11 10 11 12 15 16 15 11 8 7 9 11 12 12 13 13 12 10 9 8 7 8 9 10 10 9 10 11 6 7 7 9 6 7 6 4
16 19 20 18 15 14 13 11 10 11 12 13 13 12 13 15 12 9 10 10 11 11 11 11 10 10 10 10 10 10 10 8 9 8 5 4 5 5 8 6 7 6 6
15 19 17 16 15 14 12 11 10 10 12 12 13 16 15 14 11 9 8 9 9 9 9 9 10 10 10 9 8 7 6 7 7 6 1 1 4 5 6 3 3 2 2
13 15 15 15 15 14 12 10 9 10 11 13 15 15 12 11 8 7 7 7 8 8 8 8 9 8 7 7 6 6 6 6 6 4 2 5 6 7 6 4 5 4 4
17 16 16 15 16 14 11 10 9 9 11 14 15 14 12 10 8 8 8 6 7 7 7 7 6 5 5 5 5 6 6 7 3 1 3 4 6 8 6 5 3 2 4
19 17 15 20 20 17 14 11 10 10 9 12 14 13 12 10 8 9 8 6 6 6 5 5 4 3 3 4 5 3 3 3 2 2 6 6 8 8 7 4 3 2 4
20 19 15 21 21 18 16 14 12 11 12 12 14 14 12 10 9 7 6 6 5 5 4 3 2 1 1 1 2 2 1 2 6 7 8 9 8 5 4 2 3 5 5
23 20 18 16 20 18 17 16 15 13 13 14 14 13 13 11 10 8 7 5 5 5 4 3 2 0 1 3 4 6 5 6 9 10 10 9 8 5 2 4 6 6 6
24 20 20 17 15 16 18 17 17 15 13 13 13 13 14 14 11 8 7 6 6 6 5 4 2 1 3 4 5 8 9 9 9 10 10 9 5 4 3 5 5 4 6
24 23 23 20 19 16 15 18 14 16 14 14 15 13 15 13 10 10 9 9 8 6 6 4 3 4 5 6 7 8 9 10 10 9 10 8 7 7 6 5 5 5 6
26 24 27 25 23 21 19 18 18 18 17 11 16 14 13 12 14 15 13 11 9 8 7 6 6 7 7 7 9 9 7 8 9 9 9 8 5 5 5 5 6 6 8
21 28 25 28 27 26 24 22 21 22 17 14 15 15 14 14 14 16 15 14 12 12 9 7 8 8 8 8 8 6 5 5 7 8 9 7 6 5 5 6 7 8 9
21 19 30 28 28 30 30 26 25 24 21 20 19 19 17 14 15 18 17 18 15 13 10 9 8 8 8 7 6 5 4 4 7 8 9 8 7 6 6 6 8 9 12
25 26 27 30 30 29 32 33 28 26 27 23 25 24 21 21 19 19 20 19 16 13 10 10 9 7 6 5 5 6 5 4 5 8 9 10 8 8 8 9 11 12 13
36 30 29 32 34 32 31 33 33 28 26 30 27 26 25 24 22 21 22 20 17 13 11 10 9 6 4 4 5 5 5 6 4 6 8 8 9 10 10 12 13 14 14
35 38 32 35 38 37 32 32 32 30 27 26 28 30 30 30 24 23 21 19 15 13 13 12 8 5 3 2 3 4 3 2 2 4 8 8 9 10 14 16 16 14 18
35 34 38 33 39 41 39 36 33 34 33 30 32 32 32 29 28 26 22 20 18 16 15 12 9 5 2 2 2 3 0 2 2 3 4 6 12 13 17 17 18 20 22
27 31 36 37 31 41 42 39 35 35 36 36 35 34 32 29 27 30 23 23 18 18 16 13 9 6 3 1 2 1 1 3 3 4 6 9 9 13 14 16 19 23 26
33 30 35 37 30 37 43 44 40 37 39 41 39 36 34 31 32 31 27 21 19 17 16 14 10 7 3 1 3 3 1 2 6 6 7 9 12 13 15 17 20 25 26
32 29 33 32 37 30 45 46 44 44 44 47 43 40 36 34 35 32 28 26 20 19 18 14 10 7 4 2 3 4 3 5 3 4 8 10 12 16 17 20 24 22 23
22 34 27 33 35 38 37 46 46 44 45 44 44 42 39 36 36 34 30 27 24 22 19 15 12 8 5 4 4 4 5 6 8 9 15 14 19 20 21 21 23 22 20
12 14 20 29 31 38 43 42 49 47 44 43 45 44 40 37 37 35 32 28 24 23 20 16 13 9 6 5 6 7 7 7 9 10 16 22 26 27 25 23 21 19 19

GFSSE_850_spd_030.txt.gz
Wind_Speed
15 17 17 18 18 17 17 16 14 12 11 9 8 7 7 5 2 2 3 3 3 3 9 9 12 13 12 9 6 2 2 2 3 4 5 4 2 3 5 4 4 4 1
18 19 19 20 20 18 16 15 13 12 12 11 9 7 5 4 1 2 1 4 6 8 13 15 14 16 11 6 5 3 2 1 2 3 2 2 3 7 7 5 5 5 5
18 21 21 21 20 18 17 14 12 11 11 12 11 8 8 6 2 3 7 8 9 11 16 14 13 12 9 4 3 1 1 5 5 5 5 7 7 10 8 6 5 6 4
16 21 23 22 20 18 16 13 11 10 11 13 14 12 10 7 5 9 10 11 11 13 16 14 11 9 7 4 2 5 9 9 7 6 5 8 7 8 8 6 4 5 3
18 21 23 22 20 18 15 14 12 12 13 16 16 15 11 7 7 9 11 12 13 13 13 10 8 7 6 8 9 11 10 9 8 7 6 8 7 7 8 6 7 7 5
21 23 24 22 19 17 15 14 13 13 14 17 20 16 11 8 10 9 10 11 11 12 12 11 11 11 10 10 11 10 8 9 7 5 4 5 5 5 6 3 4 3 2
22 23 23 21 19 17 15 14 12 12 13 15 15 13 13 13 11 9 10 10 10 10 10 11 11 11 10 9 8 7 7 7 5 5 3 0 2 5 5 3 2 3 2
19 22 20 19 17 15 14 13 11 11 12 13 16 16 15 12 10 9 9 9 9 9 10 10 9 8 7 7 6 5 5 7 6 3 3 4 5 7 7 4 3 3 2
15 21 20 18 17 15 14 13 12 11 11 12 16 15 14 11 9 8 8 8 8 8 8 8 6 5 5 5 5 5 5 5 3 3 2 5 6 7 7 4 0 3 5
16 16 17 18 19 17 15 14 13 12 13 13 15 15 13 11 10 10 9 7 7 7 7 6 4 3 3 4 3 3 2 2 3 3 3 5 7 6 3 1 2 2 2
19 18 17 17 20 19 17 15 14 14 14 16 16 16 15 13 11 11 10 8 7 7 6 5 4 3 3 2 1 2 2 4 5 6 6 6 7 4 4 4 4 2 4
25 23 19 17 21 21 20 18 17 16 16 18 18 17 15 14 12 11 10 9 8 8 7 6 4 3 3 3 4 4 5 7 8 9 8 7 6 3 3 1 1 1 3
25 23 21 18 18 22 22 20 19 18 17 18 19 18 17 16 15 14 13 11 10 9 9 6 5 5 4 4 5 6 7 8 9 9 7 6 6 3 4 2 2 2 3
26 25 23 21 19 20 21 21 21 20 19 19 19 20 20 19 17 15 14 11 11 10 10 8 6 5 5 6 7 9 10 10 8 7 5 5 5 7 4 3 3 3 4
26 27 26 23 22 21 21 20 20 21 21 18 20 20 20 18 16 16 14 13 13 12 10 8 6 6 7 8 9 9 9 8 8 7 5 4 3 5 5 4 4 5 5
30 30 27 26 24 24 24 23 21 21 19 21 21 22 20 17 17 16 17 17 15 12 9 9 8 9 9 9 10 8 7 6 6 6 5 4 4 4 5 5 5 5 6
19 31 37 31 29 28 25 25 24 24 20 24 21 20 21 17 16 17 20 19 16 12 11 11 10 11 10 9 8 7 6 6 6 7 6 4 4 4 4 4 5 7 9
26 22 28 40 36 32 30 27 29 27 25 26 23 20 20 17 16 21 21 20 17 14 15 13 12 11 10 8 7 6 5 5 6 7 6 5 5 4 5 6 8 9 10
36 33 29 30 44 39 32 30 31 32 29 27 27 23 24 21 23 21 20 19 20 18 16 14 12 12 10 8 6 5 5 5 6 5 6 6 5 6 6 8 10 9 9
43 42 38 34 34 43 39 33 32 34 32 27 29 29 28 28 27 23 21 22 22 19 17 14 13 12 10 7 6 5 5 3 3 4 5 6 6 8 10 11 11 11 12
37 34 38 36 35 40 43 40 36 37 35 34 31 33 32 32 30 27 25 24 21 20 18 15 15 14 10 7 6 5 6 5 4 5 6 6 8 10 10 12 13 15 17
24 26 38 40 35 37 43 45 46 40 38 38 35 35 34 35 33 30 29 26 22 22 19 18 16 15 12 8 7 6 6 7 8 7 8 9 10 10 12 13 16 18 21
36 32 27 26 30 33 34 43 44 42 39 40 39 37 38 39 36 31 31 28 27 22 20 17 18 16 13 10 8 6 4 5 7 9 11 11 12 12 13 15 18 21 24
35 34 32 31 29 30 31 37 46 47 45 43 41 42 40 39 37 33 32 32 30 26 22 19 20 18 15 12 9 6 5 6 3 4 10 12 14 14 16 19 22 21 23
30 34 36 36 34 34 34 35 37 47 47 48 46 43 42 40 38 37 35 35 33 29 25 23 22 19 16 12 9 7 7 7 8 8 8 10 15 17 21 20 21 21 21
18 21 25 25 33 32 35 38 38 42 48 48 48 45 42 43 42 41 36 36 34 31 27 25 23 20 16 13 10 8 8 8 9 9 12 17 20 22 20 20 19 20 18

GFSSE_850_spd_033.txt.gz
Wind_Speed
18 19 19 19 19 18 16 16 15 14 13 13 13 12 11 9 7 7 7 6 4 3 5 8 10 11 11 9 4 2 1 2 3 4 5 6 5 3 4 5 6 5 3
19 19 18 19 19 18 17 16 15 13 12 10 9 9 8 5 3 2 1 5 6 9 13 11 10 12 11 6 5 3 1 2 2 1 1 1 3 6 6 6 6 8 6
18 20 19 19 20 18 16 14 13 14 14 11 8 9 5 4 1 3 6 7 9 13 15 15 16 13 7 4 2 1 1 3 4 5 6 5 7 9 8 7 6 7 4
16 19 19 19 18 16 15 14 13 12 12 12 8 7 7 4 5 7 8 9 10 15 14 12 10 9 6 2 2 3 7 7 5 6 7 8 8 11 9 8 7 6 5
17 17 19 20 18 17 15 13 13 11 12 12 12 11 8 5 8 9 10 11 11 13 11 9 6 5 3 5 6 8 8 7 5 6 7 8 10 10 9 7 7 7 6
19 19 19 20 19 17 14 12 13 12 14 15 14 12 7 6 9 10 10 11 12 11 10 8 8 9 9 8 8 7 6 5 4 6 5 7 8 5 6 3 4 4 2
21 21 20 21 19 17 14 12 12 12 13 16 18 12 8 10 10 10 11 11 11 12 11 11 10 10 9 8 6 5 4 3 2 4 2 4 4 4 6 3 3 3 4
19 21 21 20 18 16 13 12 13 13 12 14 14 12 13 12 10 10 10 10 10 11 11 11 10 8 6 5 3 3 3 3 2 1 0 2 3 6 7 4 1 2 1
18 20 21 18 17 15 14 12 13 13 12 12 15 16 15 12 11 10 10 9 9 10 10 9 8 6 5 4 3 2 2 2 2 2 2 2 4 7 6 2 3 3 6
16 17 19 19 17 16 15 13 13 13 13 13 16 15 14 12 11 10 10 9 9 9 8 7 6 4 4 3 2 1 2 2 3 2 3 4 6 6 3 3 4 4 2
17 17 18 18 16 16 16 15 15 15 16 15 17 16 15 13 12 13 11 9 9 9 8 6 5 4 3 2 1 2 3 4 5 5 6 5 5 4 4 5 5 6 6
24 22 21 19 18 18 19 18 17 17 18 18 18 17 16 14 12 13 12 10 9 9 8 7 6 5 4 4 3 4 6 7 7 7 6 5 3 5 3 3 3 1 3
24 23 22 21 18 20 22 20 19 18 18 19 19 18 17 16 16 15 14 13 12 11 10 8 7 6 5 5 5 5 7 8 8 7 5 4 4 3 4 1 1 2 3
24 23 22 20 19 20 22 23 21 20 19 20 21 21 20 19 18 17 16 14 13 12 11 9 8 6 6 6 6 7 8 8 7 5 4 5 7 8 7 2 2 2 3
29 26 23 22 22 22 23 24 24 23 23 20 21 23 23 22 20 18 16 15 14 13 12 10 8 7 7 8 8 9 9 8 7 5 4 5 5 6 5 4 4 5 5
29 28 26 25 24 23 25 25 25 23 22 23 23 24 24 23 21 19 17 17 15 13 12 10 9 8 9 10 9 9 8 6 5 5 4 3 4 4 5 5 5 5 6
31 29 30 30 29 27 26 25 26 24 21 24 26 25 25 23 21 18 19 19 16 15 13 11 10 9 10 11 10 9 8 6 6 5 4 3 3 4 4 4 5 6 7
24 25 25 32 35 33 32 29 27 26 25 25 24 25 25 23 20 19 19 19 19 17 14 11 11 12 12 12 11 9 8 7 6 5 4 4 3 4 4 4 5 7 8
32 30 27 25 25 38 36 33 30 30 29 28 24 26 26 23 21 19 18 19 19 18 13 13 14 13 13 12 11 10 9 8 7 6 5 5 4 4 4 5 7 7 8
38 38 35 29 29 25 37 39 34 34 34 33 29 27 29 27 23 22 19 19 19 19 18 17 16 15 14 13 11 10 9 8 7 6 6 6 6 6 7 8 9 9 11
26 33 43 39 32 30 33 39 42 38 36 36 33 30 32 29 26 27 22 24 21 20 20 18 16 15 15 14 12 10 9 8 9 9 8 8 8 9 10 11 12 13 15
27 22 28 39 36 31 35 35 43 44 40 38 38 36 34 33 31 31 28 28 24 22 24 21 18 17 18 16 13 11 7 11 12 12 11 11 11 12 12 13 14 17 19
36 32 28 24 26 33 35 36 42 46 47 44 41 40 39 36 35 35 34 31 29 25 25 22 19 18 20 18 17 12 7 7 11 14 14 14 13 13 14 15 17 21 24
33 35 30 28 26 26 24 31 41 44 48 47 46 43 41 38 37 38 38 35 29 29 29 25 25 22 22 21 19 17 14 10 8 7 13 14 15 16 16 17 20 25 24
15 22 29 28 27 26 26 27 29 37 43 46 46 46 44 41 40 40 41 37 34 31 32 30 30 26 25 23 22 18 16 13 12 12 7 12 16 17 18 20 24 24 23
14 15 19 27 32 32 33 33 30 32 37 41 45 48 46 44 43 42 41 42 38 34 36 33 31 27 25 24 22 19 17 15 13 12 13 13 15 17 18 20 22 22 22

GFSSE_850_spd_036.txt.gz
Wind_Speed
18 19 19 19 18 16 15 14 13 13 12 11 11 11 10 8 8 8 8 6 3 2 6 7 11 12 13 8 3 3 2 3 3 4 5 5 4 3 2 5 7 6 6
17 20 19 19 17 15 16 14 12 11 10 11 11 12 11 9 7 6 6 5 8 14 10 11 13 12 11 7 5 4 2 1 2 1 0 2 3 5 6 7 8 10 7
20 19 20 19 18 16 15 14 13 11 10 9 7 8 7 5 3 4 6 9 13 14 13 16 13 15 7 3 2 2 2 4 4 5 4 6 7 10 9 9 10 6 7
17 18 19 17 16 17 17 14 14 13 11 9 8 6 7 4 6 7 8 9 13 14 16 15 12 7 4 0 0 4 6 7 6 6 7 7 9 12 11 11 10 9 9
16 15 17 16 15 15 15 13 13 14 13 11 8 8 6 6 8 9 9 10 11 14 12 9 8 6 3 3 5 7 6 6 6 7 7 10 11 11 9 8 6 7 7
19 17 16 17 16 15 14 13 12 13 14 11 10 8 6 7 8 10 11 12 13 12 10 8 7 8 8 7 7 6 5 5 6 6 8 8 7 6 4 4 4 7 5
18 18 17 17 16 15 13 11 11 11 13 13 13 9 6 8 9 10 10 11 12 12 11 11 10 9 8 6 5 3 3 3 4 3 5 5 5 4 6 3 3 4 2
16 18 18 17 16 14 13 11 11 12 14 14 14 9 7 9 9 10 10 10 11 11 11 11 10 8 6 4 2 2 2 1 2 2 2 3 3 6 6 4 0 2 0
17 18 18 17 16 14 13 11 12 11 15 15 13 10 11 11 10 10 9 9 9 10 10 9 7 5 4 2 2 2 3 2 1 2 2 2 4 6 5 2 2 4 5
15 17 17 17 16 15 13 12 12 13 14 15 14 14 13 11 10 9 9 9 8 9 8 7 5 4 3 2 1 2 1 1 0 1 2 3 4 4 1 2 3 4 6
17 17 18 18 16 15 14 13 14 14 14 15 16 16 14 12 10 9 9 8 8 8 7 6 4 3 3 1 0 1 1 2 2 3 4 3 2 4 4 5 5 7 7
21 20 20 19 18 16 16 16 15 15 15 15 17 17 15 13 12 11 10 9 8 8 7 6 5 4 3 2 3 4 4 4 5 5 5 2 3 5 6 2 3 3 3
19 19 20 20 19 19 18 18 18 17 16 17 17 18 16 15 13 14 14 12 10 10 8 7 6 5 4 4 5 5 6 6 6 4 3 3 6 7 6 2 2 3 3
19 18 19 20 20 19 18 20 20 19 17 18 19 20 19 18 16 15 14 13 12 11 10 9 8 7 6 6 6 7 7 7 6 4 4 5 7 8 6 1 1 2 3
23 22 21 21 21 20 20 21 22 22 20 19 20 22 22 21 19 17 16 16 14 13 11 10 9 8 7 7 8 8 9 7 5 4 4 5 6 6 4 2 2 3 3
26 26 22 23 23 21 22 22 23 23 22 21 22 23 24 23 21 19 18 17 16 14 13 12 11 9 9 9 9 9 8 7 6 4 4 4 5 5 4 4 3 3 4
30 30 29 28 27 24 24 23 24 23 22 23 24 24 24 25 24 22 20 19 17 15 15 14 12 11 10 11 10 10 8 7 6 5 5 4 4 4 4 4 4 5 5
23 30 31 30 31 29 29 28 26 26 25 26 23 24 25 25 24 23 23 21 19 18 17 15 13 12 12 12 12 10 9 8 7 6 6 6 5 5 5 6 5 5 7
29 27 27 29 30 29 33 34 30 29 29 27 27 26 25 26 26 25 23 21 21 20 18 16 13 12 13 14 13 12 10 10 9 8 8 7 7 6 7 7 7 7 7
29 32 33 31 31 29 27 27 36 35 33 33 31 30 28 26 27 26 25 22 22 21 21 18 16 16 15 15 14 13 12 11 11 10 10 9 8 8 8 9 8 9 9
25 25 33 37 38 35 34 33 31 37 40 36 34 32 32 29 29 29 30 26 23 22 19 19 20 19 17 16 15 14 13 13 12 12 12 12 11 11 11 11 11 12 12
30 28 26 28 32 37 39 37 36 35 36 41 38 34 33 34 31 32 32 29 28 24 22 21 23 20 18 18 18 14 9 14 15 15 15 14 14 13 14 14 14 15 16
31 33 31 28 24 22 32 35 36 39 40 41 44 41 37 35 35 34 35 32 33 29 26 23 25 21 19 21 21 16 8 10 13 18 18 16 15 15 16 16 17 18 20
12 19 32 34 31 28 25 29 36 39 40 39 42 42 42 38 36 36 38 37 35 34 32 29 26 25 25 24 23 25 23 12 9 9 18 18 17 18 18 19 20 21 23
9 9 13 23 32 30 28 29 27 30 34 38 39 43 47 43 40 38 39 38 38 39 37 33 31 31 31 28 27 26 26 24 20 16 12 16 18 19 19 21 22 23 25
11 9 10 12 18 24 25 25 25 26 28 31 34 38 41 47 46 45 41 41 40 41 41 37 34 35 34 32 29 28 28 26 24 20 19 15 15 16 19 21 23 24 24

GFSSE_850_spd_039.txt.gz
Wind_Speed
19 18 20 17 15 15 15 14 13 11 10 10 9 8 7 6 6 6 6 4 2 4 6 11 12 10 9 6 5 6 5 3 2 2 5 5 5 4 3 4 6 6 9
20 19 20 19 17 17 14 13 13 12 11 10 8 7 7 6 6 6 6 1 11 11 11 14 12 11 10 6 4 5 3 3 3 3 1 2 3 5 6 7 8 9 9
21 20 21 20 19 18 16 15 12 10 8 6 5 4 7 4 4 3 4 12 14 9 15 12 11 12 5 4 4 4 5 5 4 4 5 7 8 9 9 9 11 7 8
21 19 19 19 18 18 16 15 12 10 8 5 5 4 7 3 5 6 9 14 15 14 15 14 11 5 2 2 2 6 8 7 7 7 7 8 10 11 11 10 9 9 8
19 16 16 19 18 17 16 15 13 10 8 6 6 5 6 7 8 8 9 13 14 17 14 11 8 4 1 4 7 9 9 8 7 7 7 8 10 10 7 7 7 5 5
20 17 16 18 18 15 16 15 12 12 10 9 6 7 7 8 9 10 10 13 15 14 11 8 6 5 6 7 8 7 8 7 7 8 7 6 8 4 2 2 3 4 6
18 18 17 17 15 14 13 13 13 12 12 11 10 8 7 8 9 10 11 12 12 11 10 9 9 8 7 7 6 5 5 5 6 5 5 4 5 4 4 4 3 3 5
17 17 17 16 15 14 13 12 11 10 12 13 12 8 7 9 10 10 11 11 11 11 11 10 9 7 6 4 4 3 3 3 4 3 2 2 2 5 4 2 2 2 2
15 17 16 15 15 13 11 9 11 11 14 16 14 10 9 9 10 10 10 10 10 10 10 9 7 5 4 4 4 4 4 3 2 2 1 2 4 4 2 1 2 3 4
13 15 15 15 15 13 12 10 11 12 13 15 16 12 12 11 10 10 9 9 9 9 9 7 5 4 3 4 3 3 3 2 1 1 1 2 3 2 3 2 4 5 6
15 16 16 16 15 14 13 12 12 12 12 15 17 15 15 14 12 11 10 9 9 9 8 6 4 3 3 2 2 2 1 1 1 3 3 0 5 5 4 5 8 7 7
18 18 18 17 16 15 14 14 13 13 14 15 15 16 16 15 13 11 11 10 10 10 9 8 5 4 3 1 1 2 2 3 4 4 3 1 4 4 4 7 2 3 3
15 16 17 18 18 18 17 15 15 15 14 16 16 17 17 16 15 14 14 13 12 11 9 8 6 5 3 3 3 4 4 4 5 4 3 6 7 8 5 7 2 2 2
17 17 16 17 19 20 19 18 17 18 17 17 17 18 19 18 16 15 16 15 14 12 11 10 8 7 5 4 5 5 6 6 5 4 5 7 9 8 6 2 1 1 2
18 17 17 17 18 18 19 19 20 20 20 18 18 20 21 20 18 17 17 17 16 14 13 11 10 9 7 6 6 7 7 6 5 5 6 7 7 7 4 2 2 2 2
20 21 19 19 19 19 20 21 20 20 20 21 21 21 21 22 21 20 19 18 17 16 14 13 11 11 9 8 8 8 8 6 6 6 7 8 7 6 5 4 4 3 3
20 21 24 23 22 22 21 21 21 21 21 22 22 22 23 23 24 23 21 21 19 18 17 16 14 13 11 9 9 9 9 8 8 8 8 8 8 8 7 6 5 5 6
23 23 24 29 28 27 26 25 24 23 23 22 23 24 24 25 25 25 25 24 21 21 19 18 16 14 13 11 10 11 11 10 10 10 10 10 10 9 8 9 7 6 6
28 29 28 27 32 31 29 30 29 28 26 25 25 25 25 26 26 27 27 26 24 24 22 21 19 15 13 12 12 12 13 13 12 12 12 12 12 11 10 9 8 8 7
28 27 29 31 31 31 32 33 33 31 33 32 31 29 27 28 27 28 28 27 27 26 26 24 22 17 15 16 14 15 15 14 14 14 14 15 14 13 12 10 10 10 9
25 26 27 29 35 35 35 36 36 35 32 37 36 33 31 30 30 28 28 29 31 30 28 25 24 22 22 19 17 17 17 17 17 17 17 17 17 15 14 13 12 12 12
26 26 26 28 27 33 40 40 40 39 38 35 37 39 35 34 33 31 31 33 34 33 30 28 26 26 25 21 20 17 13 18 20 20 20 20 19 18 17 16 16 15 15
13 21 28 29 29 29 29 34 42 42 41 39 40 38 40 40 38 33 34 34 34 36 34 29 29 29 30 24 23 19 9 12 16 22 24 23 22 20 19 19 18 18 17
5 9 14 24 32 32 29 29 33 41 44 44 42 41 39 41 42 39 36 36 34 35 38 36 31 32 32 32 28 28 26 18 11 9 22 25 24 23 22 21 20 20 20
11 8 8 10 16 27 34 32 32 33 33 35 39 39 39 40 43 43 40 37 36 37 39 41 39 37 36 36 34 31 30 28 26 20 14 20 25 25 24 23 22 22 23
13 11 10 9 9 11 22 27 30 33 34 34 32 32 34 37 38 43 43 41 40 39 40 40 41 41 38 38 37 36 33 31 30 28 24 21 20 22 24 24 24 24 25

GFSSE_850_spd_042.txt.gz
Wind_Speed
16 17 19 17 17 17 15 14 11 9 7 7 8 6 6 6 4 4 3 3 2 4 10 12 9 7 4 4 4 3 2 2 1 3 6 7 7 5 5 6 9 6 8
19 17 19 16 16 17 14 14 13 12 9 8 8 6 6 5 4 4 1 5 8 11 13 11 10 11 7 5 3 3 2 2 2 3 3 4 5 6 7 7 9 5 8
20 19 20 18 18 17 15 14 14 12 9 8 6 5 6 3 3 0 9 13 6 10 11 10 11 8 4 4 4 3 2 2 2 3 6 8 8 9 9 10 10 8 8
20 19 19 19 18 17 17 15 12 10 8 6 5 3 5 2 3 6 13 13 11 14 10 13 11 4 3 3 4 7 7 6 6 7 7 7 7 10 9 9 8 8 7
18 17 18 20 20 18 16 15 12 9 8 7 5 5 5 6 6 8 13 15 14 12 10 9 4 1 1 5 9 9 8 7 7 8 7 6 6 5 8 7 6 4 4
17 16 17 19 18 16 15 14 12 10 8 9 5 7 8 9 9 9 12 12 13 13 10 7 5 3 5 7 8 8 7 7 8 6 6 5 6 4 2 3 4 5 6
17 15 15 18 17 17 15 14 14 11 10 9 8 8 9 10 10 11 13 14 13 12 9 7 6 6 6 6 5 5 5 5 6 5 5 5 2 3 3 3 2 3 6
15 16 15 17 16 15 14 13 13 13 12 9 11 8 7 9 10 11 12 13 12 11 10 8 8 7 6 5 4 4 3 4 5 3 3 3 3 4 2 2 3 2 2
14 15 14 15 15 14 12 11 11 14 13 12 12 9 8 8 9 10 10 11 11 11 10 9 7 5 4 4 4 4 3 4 4 2 3 3 5 2 1 2 2 2 3
14 14 14 14 14 14 13 11 11 11 14 14 12 10 10 10 9 9 10 9 10 10 9 7 5 4 3 4 4 3 2 2 2 1 2 1 3 3 3 4 4 4 6
14 14 14 14 14 13 11 10 10 11 12 16 15 13 11 11 11 11 10 10 10 9 9 7 5 4 4 3 3 2 1 1 1 1 2 3 6 6 7 6 7 6 6
16 16 15 15 14 14 13 11 11 11 13 14 16 15 13 13 11 11 12 11 11 11 9 9 6 5 4 3 2 2 2 3 2 2 3 4 5 6 6 7 9 3 3
15 16 17 17 16 16 15 14 12 13 13 15 16 16 16 15 15 13 11 13 13 13 10 9 8 7 7 5 4 4 4 4 2 3 5 6 8 8 7 7 5 2 1
16 16 17 17 18 18 16 16 15 16 15 15 16 17 17 17 16 14 13 13 12 12 11 11 10 10 9 7 6 6 6 5 3 5 7 11 11 9 8 5 3 3 2
16 17 18 18 18 18 19 18 18 18 18 18 19 19 18 18 17 16 15 17 14 13 13 14 13 12 11 9 8 8 7 7 5 6 6 10 10 9 7 5 4 3 3
16 17 17 19 19 21 21 21 21 20 18 20 21 22 22 20 19 17 16 19 16 15 16 16 16 14 14 12 11 10 9 9 8 8 7 8 10 9 8 6 5 5 4
15 15 18 18 19 20 22 23 22 22 20 21 22 23 23 23 23 22 18 18 18 16 18 19 19 17 17 15 13 11 11 10 10 9 9 8 10 10 10 9 8 7 6
19 18 18 19 23 24 25 24 23 24 24 23 24 24 24 25 25 24 22 20 19 19 22 22 21 19 19 17 15 13 13 13 12 11 12 12 12 10 11 12 10 9 8
26 25 27 25 23 24 27 29 28 28 26 24 25 24 24 27 26 26 25 23 21 21 24 25 24 22 21 19 16 15 15 15 15 15 15 15 15 15 12 13 11 10 10
25 25 28 29 29 26 24 29 32 32 31 30 30 30 30 28 27 28 29 28 25 24 27 29 26 25 23 20 18 17 18 18 18 18 18 18 18 17 16 15 13 13 12
24 25 24 26 28 28 26 30 34 39 38 37 35 36 34 31 32 30 29 31 30 31 31 31 28 28 27 24 21 19 20 21 21 21 21 20 21 20 18 17 16 15 15
24 26 27 27 28 29 30 29 34 35 40 42 39 36 37 37 36 36 35 35 33 33 34 34 34 33 31 29 26 18 11 17 25 24 24 23 23 22 21 20 20 18 17
12 19 25 30 32 32 33 31 30 29 34 38 41 40 38 38 42 42 39 38 36 36 37 38 37 36 35 33 33 18 9 11 12 21 28 27 26 26 24 23 23 22 21
3 3 7 14 23 32 34 35 33 30 35 40 45 45 44 45 43 45 44 40 41 38 39 39 39 38 37 37 37 36 31 15 9 8 20 26 28 28 27 28 26 26 24
7 6 5 5 7 13 24 33 32 27 27 26 28 32 37 43 45 43 43 46 45 42 40 41 42 42 42 41 39 39 38 34 28 18 12 19 26 30 30 30 29 28 26
8 8 8 8 8 8 10 17 26 32 27 25 26 28 31 33 38 39 39 40 45 45 43 41 42 45 46 45 43 43 42 38 36 32 23 19 20 24 30 30 29 29 27

GFSSE_850_spd_045.txt.gz
Wind_Speed
13 15 18 19 17 15 12 9 7 7 7 5 5 6 6 5 3 2 3 3 3 9 11 10 7 4 2 1 2 1 0 2 4 7 9 10 9 8 9 8 13 4 7
17 16 17 16 17 15 13 11 10 8 8 5 5 5 4 3 2 2 1 6 8 13 12 10 8 9 6 4 2 1 1 2 4 7 9 9 9 10 11 8 6 7 7
16 17 17 16 15 14 13 14 12 9 7 6 4 4 3 1 1 4 10 7 7 11 9 10 9 6 6 6 5 3 2 3 6 11 16 8 11 11 12 11 11 10 8
16 16 16 16 17 15 13 13 12 9 6 4 2 2 2 2 5 10 13 10 10 9 9 10 6 4 5 5 6 7 7 8 9 13 9 8 5 9 9 9 8 9 8
16 16 16 17 17 15 13 11 10 8 6 5 4 4 4 5 7 11 14 11 10 9 9 7 2 3 4 7 9 9 8 9 12 11 6 5 3 5 7 7 7 6 4
15 14 16 17 17 15 14 11 9 8 7 7 3 3 5 6 8 10 11 10 10 9 8 4 0 2 5 7 8 8 8 10 13 7 7 8 4 6 4 6 9 7 6
15 13 14 17 16 15 13 10 9 9 8 6 4 4 6 7 7 9 10 9 11 7 5 3 3 5 6 6 6 6 7 9 9 6 6 2 3 4 2 2 1 4 5
14 12 14 16 15 14 13 13 11 9 9 7 7 7 7 8 8 9 11 11 10 7 5 6 6 6 5 4 4 4 5 8 7 3 4 2 4 5 2 2 4 2 5
13 13 12 16 16 16 14 13 13 12 10 8 8 7 7 7 8 9 10 9 9 8 7 6 5 4 3 3 3 4 5 8 7 2 4 2 4 2 2 3 5 4 5
12 13 11 13 12 11 12 13 12 12 12 10 9 6 8 9 9 8 8 9 9 8 7 5 4 2 2 3 3 3 4 5 2 3 3 2 4 4 5 6 7 6 6
11 12 12 13 12 11 10 12 11 11 13 13 13 10 8 7 8 9 9 8 8 8 8 6 4 3 3 2 2 2 2 3 1 2 4 3 6 6 8 10 8 6 5
14 13 13 13 13 12 11 11 10 11 12 14 15 14 8 9 7 5 9 10 10 9 9 7 6 5 4 2 3 2 2 2 2 3 9 6 8 8 6 8 7 5 3
14 15 13 14 14 13 12 10 9 10 11 11 10 10 11 11 13 13 13 14 12 12 11 10 9 7 5 6 6 3 6 4 2 3 9 6 7 7 8 7 6 3 2
13 16 19 15 15 14 12 12 11 12 12 14 16 16 15 15 14 13 14 11 11 12 11 7 8 8 10 9 8 6 6 4 3 4 12 10 9 9 9 7 4 4 2
14 14 15 17 17 18 16 13 13 14 15 14 15 17 17 16 15 15 14 15 14 13 13 13 12 12 11 11 11 8 7 5 5 6 12 10 13 11 10 7 6 6 4
13 13 14 16 17 16 18 18 15 14 14 15 16 19 20 18 17 16 15 22 20 16 15 15 14 13 12 13 13 11 8 7 7 8 10 12 13 11 10 8 7 7 5
15 14 15 16 17 19 20 22 22 19 16 16 17 18 20 22 20 18 17 23 22 16 16 15 15 15 15 15 15 13 12 10 10 10 11 12 11 12 11 11 10 9 7
14 15 16 17 17 18 21 23 23 24 23 18 17 17 20 22 23 23 23 21 18 17 19 18 17 18 18 18 16 16 14 14 12 12 13 13 14 11 12 14 12 11 9
19 18 18 18 19 20 20 21 24 25 24 24 19 20 22 22 23 25 25 23 22 22 23 22 22 21 20 20 18 18 16 16 14 15 16 16 16 14 12 14 15 13 12
20 20 20 20 20 21 22 22 26 30 27 28 25 23 24 25 26 27 27 25 24 27 28 27 24 25 24 22 19 19 19 18 17 18 18 18 18 18 18 19 14 16 15
17 18 19 19 20 21 23 25 28 34 33 31 34 30 25 26 27 30 30 28 28 29 29 29 26 27 27 23 22 22 21 21 21 21 20 21 20 21 20 22 17 18 17
14 15 16 18 19 23 26 27 27 29 38 39 37 38 39 37 33 31 33 32 32 32 31 31 30 30 31 31 30 19 12 20 24 25 24 24 23 23 22 23 21 21 19
4 13 19 22 25 26 28 29 31 26 27 27 32 36 42 40 38 33 36 36 36 35 37 36 36 35 37 35 35 24 10 13 13 18 26 27 24 25 24 24 24 23 23
2 3 6 10 16 23 29 30 30 27 29 30 30 29 32 36 37 37 35 37 38 38 38 41 40 39 39 41 36 38 29 15 11 9 17 25 26 26 26 25 25 26 26
5 5 5 6 7 9 14 21 28 32 31 28 28 28 29 30 35 39 36 39 41 42 41 43 41 42 43 43 43 40 42 37 27 20 14 18 22 27 28 26 27 26 27
7 8 8 8 8 10 12 12 16 22 25 25 26 26 26 26 28 32 32 34 39 39 41 43 44 44 45 45 44 43 43 44 45 39 27 15 19 21 26 28 28 27 27

GFSSE_850_spd_048.txt.gz
Wind_Speed
11 17 16 18 17 15 12 10 9 9 7 4 2 5 3 1 2 3 4 5 8 14 13 10 6 6 6 3 3 3 4 5 8 10 11 11 12 12 10 9 9 9 12
13 18 18 18 17 15 13 11 10 10 8 6 4 3 3 1 1 2 7 9 13 15 12 9 12 9 7 4 4 3 5 7 10 13 15 15 13 14 12 10 11 10 9
15 20 20 19 17 14 13 14 11 9 8 6 4 3 4 3 4 9 10 10 12 12 11 9 8 9 8 8 7 7 8 11 18 20 17 14 12 12 12 13 13 13 9
13 20 18 18 17 14 14 13 11 9 5 2 1 5 5 6 9 15 12 10 10 9 10 7 6 9 9 9 10 12 13 15 18 15 13 7 9 12 11 10 10 10 9
11 16 18 18 18 15 14 12 10 8 4 3 5 6 7 9 12 14 12 10 11 11 8 5 5 7 9 11 12 12 14 16 16 11 3 5 5 8 8 9 8 7 8
12 16 15 18 17 14 13 10 8 6 7 7 5 6 7 8 10 12 10 9 8 9 7 2 3 6 9 10 11 12 13 15 16 9 7 7 6 7 5 11 11 11 9
17 15 12 17 17 14 12 9 7 8 7 5 4 6 6 7 7 9 10 9 8 7 4 3 5 7 7 8 8 10 11 13 14 8 2 3 5 2 2 2 1 5 6
14 13 13 15 17 13 12 11 10 9 6 5 4 5 6 6 6 8 8 8 8 5 4 5 6 6 6 6 6 8 11 13 10 2 2 3 4 2 2 2 3 4 4
10 10 11 17 16 14 13 14 12 9 8 6 7 7 7 7 7 7 8 8 7 5 6 6 5 4 4 5 5 6 9 11 6 2 2 3 3 1 2 4 6 4 3
12 9 6 14 16 17 14 14 14 12 10 8 6 9 8 9 9 9 8 7 7 7 7 6 5 4 3 4 4 5 7 6 2 4 3 2 3 4 4 6 9 4 3
14 10 5 6 7 8 11 12 12 12 13 11 9 7 8 7 7 9 10 9 8 8 8 6 5 4 3 3 3 4 5 4 1 3 5 3 5 6 8 9 8 7 4
13 13 7 11 8 9 6 7 10 11 12 13 13 11 8 8 6 9 8 8 9 9 8 7 6 5 4 4 3 3 3 2 4 6 8 7 9 10 7 7 7 5 3
21 17 14 13 11 11 13 10 10 10 11 11 13 14 8 6 11 11 9 10 11 10 10 8 8 7 6 5 5 6 5 5 4 10 9 8 9 8 7 7 6 3 1
17 22 18 15 15 14 14 13 7 7 7 12 9 7 8 11 15 17 14 11 14 13 13 11 9 10 11 10 9 8 8 7 8 11 11 11 11 8 9 7 5 3 2
12 17 23 22 18 18 16 13 14 13 14 14 14 11 9 14 19 18 16 13 12 13 10 9 9 10 12 12 12 11 11 8 9 14 13 13 12 12 11 8 6 5 4
13 13 13 21 22 24 23 19 13 16 17 17 18 20 23 23 22 21 18 18 19 14 14 11 17 17 18 15 15 14 13 10 10 15 16 15 13 14 12 9 8 7 6
12 12 15 16 16 20 25 24 24 20 17 17 17 20 20 24 23 22 22 24 25 21 20 19 22 19 19 18 18 17 16 14 14 16 18 18 14 12 13 11 10 9 8
15 12 15 16 16 17 19 21 25 27 24 21 17 18 21 20 25 26 26 25 27 26 24 24 23 24 23 23 21 20 19 18 17 17 18 20 17 15 14 14 13 12 11
17 18 17 17 14 17 14 17 22 21 24 26 23 19 22 23 24 25 28 28 28 26 22 27 27 28 28 26 24 22 22 21 19 19 20 21 22 20 15 15 15 15 13
19 20 20 19 21 22 16 20 23 24 24 24 25 27 26 27 27 27 28 29 29 27 25 28 31 31 30 26 25 22 25 23 22 21 22 22 23 24 21 19 16 15 16
16 16 17 20 21 19 23 24 23 29 30 30 30 27 26 26 29 30 30 32 31 32 34 34 34 33 31 27 24 25 26 26 25 25 24 24 25 25 25 24 20 18 19
22 18 17 20 22 23 25 27 28 24 30 33 35 35 32 31 30 32 34 35 35 35 36 36 38 37 33 31 31 27 24 28 30 30 29 27 28 27 26 26 25 22 21
12 19 23 25 26 27 28 29 31 33 27 24 30 36 36 34 37 33 34 36 37 36 37 39 39 40 38 34 36 29 13 17 18 25 31 31 30 31 29 26 27 24 24
7 6 9 11 15 20 26 31 32 33 34 31 25 27 29 29 31 32 32 39 37 37 37 38 40 42 41 40 38 40 36 19 14 12 20 26 31 32 31 29 28 27 26
4 3 4 5 5 9 9 12 19 25 30 31 28 25 28 29 31 33 32 27 36 37 38 38 38 42 45 45 44 43 42 38 27 28 21 23 27 30 32 31 29 29 29
8 7 7 6 7 8 12 12 12 14 17 21 25 23 26 26 26 28 30 30 26 35 38 40 40 40 44 46 48 46 45 44 46 36 30 27 25 28 32 32 31 31 30

GFSSE_850_spd_051.txt.gz
Wind_Speed
15 15 18 20 18 16 15 13 12 10 7 4 2 3 2 2 3 4 6 10 16 15 13 9 8 7 7 7 7 7 7 9 11 13 14 13 12 11 12 12 12 14 16
16 20 19 20 17 17 15 14 13 12 10 8 5 5 4 3 4 8 11 16 17 14 11 13 11 9 7 7 8 8 9 11 13 14 16 15 14 14 13 13 12 10 9
18 23 22 21 18 16 15 14 15 13 10 9 5 7 6 5 10 11 14 16 15 14 11 9 10 9 10 11 10 11 14 16 14 14 16 14 12 12 11 12 13 10 7
16 23 20 20 19 17 16 15 14 12 9 7 5 8 7 11 16 12 12 14 13 12 9 7 9 10 13 14 14 17 17 16 16 13 11 9 10 10 9 8 9 10 9
18 22 21 20 17 16 16 14 13 10 6 5 7 8 10 15 15 13 12 13 11 11 6 6 8 11 14 15 15 16 16 15 11 7 3 4 7 10 10 9 9 10 12
15 20 20 19 17 17 15 13 11 7 9 9 9 10 10 13 14 13 11 11 10 10 7 4 7 10 12 13 14 15 15 15 11 8 7 7 6 6 10 11 12 10 8
14 16 18 19 17 16 15 11 9 9 9 9 9 9 10 10 11 11 10 9 8 8 5 6 8 9 10 11 12 13 13 13 8 4 2 5 3 2 6 3 2 4 3
12 13 12 18 17 15 13 12 10 8 6 8 8 9 9 9 10 10 10 9 8 6 6 7 8 8 8 9 10 12 11 9 4 1 3 5 3 3 3 2 3 4 5
13 10 11 16 16 13 13 13 13 9 7 7 6 7 9 10 10 10 10 9 8 7 7 8 7 7 7 7 9 10 9 7 4 1 2 3 1 1 2 4 6 6 4
10 7 9 17 17 15 17 15 13 12 9 4 6 6 6 7 9 11 10 9 8 8 7 7 6 6 6 6 7 8 7 5 3 3 2 3 3 3 4 7 7 7 2
8 6 3 13 15 14 12 16 14 12 11 9 7 9 8 8 8 8 9 10 10 10 9 8 6 6 6 6 6 6 6 4 4 2 2 3 6 7 8 8 7 6 3
11 8 3 8 9 11 11 12 12 12 12 11 10 9 9 9 9 8 9 8 9 9 10 9 8 7 7 7 6 6 5 4 6 5 5 6 8 9 9 7 7 5 2
17 12 6 4 5 6 10 11 10 12 13 13 12 10 9 10 12 10 10 10 11 11 10 10 9 9 9 9 8 8 6 6 9 9 8 8 9 8 7 6 6 4 1
20 19 16 10 10 11 9 10 9 11 12 14 10 7 10 13 13 12 11 10 13 13 12 12 12 12 12 12 11 10 9 8 12 12 11 11 11 10 9 7 6 5 3
21 22 22 20 16 15 15 13 12 10 10 9 10 8 9 11 12 12 14 13 12 12 14 14 14 14 14 14 12 13 12 10 14 15 14 14 12 12 12 10 7 6 6
11 18 23 24 24 21 20 16 11 12 10 11 11 12 13 12 14 16 19 18 15 15 14 15 14 15 14 15 15 16 15 13 15 17 17 16 15 13 14 13 10 9 8
9 9 12 21 27 24 25 23 19 16 17 17 16 16 17 17 17 22 23 23 21 20 18 16 15 17 18 21 20 19 18 17 17 18 20 19 17 16 15 14 13 11 11
11 15 15 12 12 14 19 26 26 23 23 22 22 19 18 20 22 26 26 26 24 24 22 22 22 23 26 26 23 21 20 20 20 21 22 22 21 19 17 16 15 14 13
15 13 12 17 17 17 16 14 20 27 28 27 25 22 21 23 21 21 24 27 27 26 27 26 27 30 30 29 27 25 24 23 23 24 25 25 24 22 20 18 18 17 16
18 22 21 16 13 14 14 15 18 19 20 24 30 30 25 25 25 26 26 25 28 30 30 31 30 30 33 31 29 29 28 28 26 27 28 27 27 26 24 22 20 19 19
19 19 22 25 23 15 16 19 19 22 25 26 25 24 26 30 27 26 30 29 29 32 32 32 31 31 34 35 32 31 31 30 31 31 30 31 31 29 28 27 23 22 21
19 17 18 20 22 22 22 22 22 23 23 24 27 29 29 28 29 31 31 34 34 35 35 34 34 35 37 38 35 33 27 34 38 37 34 34 34 33 31 30 29 26 25
15 21 23 24 26 28 30 31 30 31 31 28 26 25 27 30 30 28 34 35 35 36 36 37 39 39 41 41 41 31 14 22 24 32 38 39 37 37 36 33 32 30 28
10 13 15 19 23 25 27 29 30 32 34 34 32 29 24 24 27 27 26 26 34 36 38 39 36 42 43 44 42 43 41 32 19 14 24 32 39 39 38 36 34 33 32
4 4 5 5 6 9 11 12 16 22 28 31 32 31 27 23 23 26 28 27 28 27 33 38 37 40 39 43 48 46 45 47 39 33 30 28 29 37 38 35 34 33 33
5 5 5 6 7 10 12 12 13 14 14 15 17 21 25 30 28 23 25 28 27 26 25 29 34 35 38 41 44 47 46 45 48 42 37 36 31 32 35 36 32 34 35

GFSSE_850_spd_054.txt.gz
Wind_Speed
16 18 21 20 18 17 15 13 12 10 8 4 3 3 2 3 3 5 10 14 14 13 8 7 7 7 9 10 9 8 7 6 7 9 12 12 11 11 11 13 16 15 10
21 21 23 21 19 17 15 15 13 12 12 9 5 6 5 5 6 9 16 17 15 12 11 10 8 7 10 10 9 8 8 8 8 10 13 13 13 12 12 10 10 10 9
19 23 23 21 20 18 17 16 14 13 10 9 7 7 7 8 12 14 17 16 13 10 9 9 9 9 13 12 11 11 9 9 11 12 14 13 11 10 10 11 9 7 6
19 24 24 21 20 19 18 17 15 14 9 9 9 9 10 15 11 14 15 13 13 8 7 9 10 13 15 14 14 12 11 11 12 10 11 10 9 8 7 9 10 8 5
21 24 23 22 20 19 17 15 14 12 9 9 9 11 15 14 13 14 14 13 11 7 6 8 11 14 15 16 15 13 10 9 7 6 6 6 10 9 8 7 9 11 12
22 23 22 21 19 18 17 14 13 9 7 10 11 13 14 14 14 14 13 10 8 7 6 7 11 13 13 14 15 13 10 8 8 8 6 6 6 9 10 10 9 7 12
22 22 21 20 18 18 16 14 11 8 11 12 13 13 12 10 11 11 10 9 8 7 6 8 9 10 11 12 12 11 8 9 6 5 3 3 3 5 7 6 3 3 4
18 19 19 19 18 17 17 14 10 11 11 10 12 14 13 12 11 10 9 9 8 7 7 8 9 9 9 9 9 9 7 6 4 3 3 4 3 3 2 1 2 5 8
14 14 15 18 16 16 14 13 12 9 7 7 9 9 11 13 14 12 11 10 8 7 8 8 8 8 8 9 9 8 5 3 2 2 1 2 1 0 1 4 6 6 6
12 10 12 17 19 16 15 14 14 12 7 5 5 5 6 8 11 13 13 12 10 9 9 7 7 7 8 8 8 7 6 4 3 1 2 2 3 3 5 6 6 6 4
14 8 9 18 20 19 17 16 14 11 8 7 6 7 7 6 7 8 9 9 9 9 9 8 7 7 7 8 8 8 7 6 4 3 4 4 5 8 8 8 7 6 4
15 11 7 14 16 15 16 17 15 13 11 9 8 7 8 8 8 8 8 8 9 9 8 8 7 7 8 8 9 9 8 9 7 6 5 6 8 9 10 9 8 6 4
13 13 9 8 11 11 13 15 15 14 13 13 11 9 9 10 11 11 10 9 9 9 10 11 11 9 10 10 10 10 10 11 10 8 8 9 9 10 10 10 10 7 4
17 16 14 12 11 9 9 12 11 12 14 14 12 11 12 12 13 12 10 9 10 11 12 13 13 12 12 12 12 12 11 12 13 12 12 11 11 12 11 12 11 9 7
19 17 16 16 15 12 10 10 11 10 13 11 12 11 10 11 12 12 11 11 10 11 12 14 15 15 16 16 15 15 14 14 16 16 15 15 14 14 13 13 13 11 9
24 22 19 16 16 15 14 12 12 12 12 11 10 11 11 11 12 13 13 12 13 14 13 12 13 15 16 16 16 17 17 16 17 19 19 17 17 16 16 16 15 13 12
13 17 25 21 19 20 19 17 17 15 15 15 12 11 12 14 15 15 15 17 17 17 17 17 16 17 18 19 20 19 19 21 21 21 22 21 19 19 18 18 17 16 14
11 12 12 21 26 25 24 23 22 21 19 19 17 16 15 16 17 18 19 21 22 23 22 22 21 22 22 23 24 22 23 24 24 23 24 24 24 22 22 20 19 19 17
14 12 14 17 19 22 22 22 25 26 25 24 21 21 21 20 19 20 21 22 24 26 26 26 27 26 26 28 28 27 28 26 26 25 27 28 27 27 24 23 22 21 20
19 18 16 14 16 18 17 17 20 21 24 28 29 27 27 26 25 25 26 25 24 26 28 29 30 29 30 31 32 33 32 30 29 30 30 30 31 31 29 27 25 23 24
21 22 22 19 19 19 18 20 21 21 20 25 26 26 30 31 30 31 29 28 28 30 29 30 32 33 34 33 35 35 36 35 34 35 34 34 34 34 34 32 29 27 25
20 21 21 20 19 18 19 22 24 25 25 26 26 27 28 28 28 30 32 30 31 32 33 33 34 35 36 36 37 37 33 36 41 39 39 39 37 37 37 36 35 31 27
14 15 18 21 22 22 21 21 21 22 23 24 26 29 29 27 29 28 28 29 30 33 34 34 35 36 38 38 38 34 16 22 28 31 32 36 39 40 40 40 38 36 31
13 14 17 20 23 26 28 28 29 29 30 29 29 30 31 32 31 28 26 25 27 27 29 31 33 36 37 41 39 40 42 44 26 24 25 27 31 39 41 41 40 39 35
10 11 12 12 13 15 18 24 26 27 29 32 33 34 34 33 30 26 27 26 25 25 25 26 28 30 33 35 36 37 38 43 48 46 38 32 36 32 33 40 41 40 38
9 8 8 9 10 12 13 14 15 16 16 16 17 18 19 22 26 28 30 25 24 23 24 24 23 24 24 27 31 33 34 34 37 46 49 47 48 42 38 36 40 40 40

GFSSE_850_spd_057.txt.gz
Wind_Speed
21 21 21 20 18 17 16 14 12 10 7 6 5 4 2 3 4 8 12 12 13 9 6 6 6 7 9 8 6 5 5 5 6 7 10 11 11 10 11 15 12 10 8
25 22 21 20 17 16 14 12 12 10 8 5 3 6 4 6 9 14 14 15 12 11 9 6 6 8 9 8 6 5 4 4 6 8 11 12 12 12 9 9 8 7 5
23 24 22 20 18 16 15 13 13 11 9 6 6 7 7 10 13 17 16 11 9 8 8 8 7 10 11 9 7 6 4 5 8 10 12 11 11 10 11 10 8 5 4
22 24 22 20 19 17 16 14 13 12 8 6 8 9 12 11 14 15 13 10 8 7 8 9 11 14 12 10 8 6 6 8 9 9 9 10 9 9 9 10 10 7 3
22 23 22 20 20 17 16 15 14 10 8 8 9 10 12 11 14 13 12 10 6 5 8 10 11 12 11 10 8 7 6 7 7 7 9 9 9 9 7 7 9 12 11
21 23 22 21 19 18 16 13 11 9 7 10 11 12 11 12 13 13 11 8 6 6 8 9 10 11 10 9 7 6 6 8 9 9 7 5 6 8 7 6 3 7 9
24 21 22 20 19 18 15 11 9 5 6 10 13 14 12 12 11 11 8 8 7 7 7 8 9 9 9 8 6 4 4 5 5 6 4 3 3 4 4 3 2 2 3
23 21 21 20 18 18 16 13 10 7 7 7 11 16 13 12 11 9 8 7 7 6 7 7 7 7 7 7 5 4 3 2 3 4 4 3 1 2 1 2 5 7 8
19 20 18 18 18 18 16 14 11 9 8 7 7 7 9 13 14 11 10 8 7 6 7 7 6 6 6 6 5 5 3 2 1 3 4 5 3 4 3 4 6 7 8
16 15 16 18 17 17 16 13 12 11 9 7 8 7 6 5 6 9 11 10 9 8 8 8 7 6 6 6 7 7 5 3 3 4 4 6 5 5 8 9 8 8 7
15 12 13 17 17 18 17 14 13 11 7 7 8 8 8 7 7 7 6 6 6 6 7 6 6 6 7 7 8 10 7 6 6 5 5 7 7 10 11 11 10 10 9
17 13 12 16 19 17 17 16 14 12 9 8 6 6 8 8 9 9 8 7 7 7 7 7 7 7 7 8 9 10 10 9 8 8 8 8 9 11 12 12 11 11 10
14 13 11 13 18 15 13 16 15 13 12 11 10 8 9 10 10 10 10 9 8 8 8 9 9 9 8 9 10 11 12 12 10 10 11 10 11 12 13 13 12 12 10
16 13 11 12 13 12 13 14 14 15 14 14 11 11 11 10 11 11 10 10 9 8 9 10 11 12 12 12 13 13 14 15 15 13 13 13 13 14 14 14 14 13 12
17 15 14 13 13 12 11 11 12 12 12 12 12 12 12 12 11 11 11 12 11 10 8 10 13 15 16 16 16 17 16 17 18 18 17 15 16 16 16 16 16 15 13
18 18 17 17 15 15 13 11 10 11 10 11 10 11 12 11 11 11 12 13 13 11 10 10 11 13 15 16 17 17 17 19 20 21 20 19 18 19 17 17 17 17 15
20 19 19 16 16 18 16 14 13 11 12 13 12 11 12 13 13 14 14 14 14 13 13 14 15 16 18 18 19 19 19 19 20 21 23 23 21 21 20 19 20 19 18
15 19 21 23 20 18 18 16 16 15 16 16 16 15 14 14 14 16 17 17 16 17 17 18 19 20 21 22 23 22 22 22 22 23 25 25 25 24 23 22 21 21 21
14 15 17 17 19 20 20 20 19 19 20 20 20 20 19 18 18 18 19 20 19 19 21 22 23 24 25 26 27 27 26 26 25 25 27 26 27 27 27 25 24 23 23
18 18 18 20 20 20 21 24 24 25 25 24 24 24 23 22 23 23 25 25 23 23 24 25 26 27 28 29 31 32 31 30 30 31 31 30 29 30 31 29 28 27 25
20 19 19 19 21 23 25 25 25 25 24 24 25 26 29 28 28 29 29 30 30 31 30 27 28 29 30 31 34 36 36 36 35 36 36 36 35 34 33 33 32 30 28
23 21 20 21 22 22 23 24 25 25 25 26 24 24 25 28 28 31 32 32 31 31 30 29 30 33 34 35 36 37 37 35 36 35 35 36 36 37 36 35 35 34 32
18 19 19 19 20 21 22 23 25 26 29 29 28 28 27 28 30 32 32 32 30 30 30 30 31 30 33 34 33 34 20 21 22 23 23 24 27 30 32 35 36 36 36
17 17 17 18 19 21 23 24 25 25 26 26 27 28 29 31 32 32 31 30 31 31 29 28 26 25 26 30 31 33 36 38 32 27 26 24 25 27 29 31 34 35 37
16 17 17 18 19 20 21 22 23 25 26 27 27 28 30 31 33 34 34 33 31 30 29 26 24 24 24 25 26 26 29 31 32 35 35 31 31 30 35 33 30 33 33
15 14 14 14 14 14 14 15 15 15 15 16 17 17 18 18 19 20 24 27 28 27 25 24 23 23 22 23 21 19 20 23 24 28 32 36 37 37 33 37 35 37 35

GFSSE_850_spd_060.txt.gz
Wind_Speed
23 22 22 19 17 16 15 13 10 8 6 5 4 3 1 3 8 12 12 13 11 7 6 6 5 8 7 6 5 4 4 6 8 9 12 14 14 12 14 12 11 10 9
25 23 22 19 16 15 13 11 10 7 5 4 4 4 4 9 13 15 15 12 11 9 7 5 6 8 7 6 4 3 4 5 7 9 11 13 14 13 10 9 8 5 5
25 24 22 20 17 15 13 12 11 10 6 5 7 7 9 12 15 15 12 10 9 9 8 6 8 9 8 5 4 4 5 6 9 10 10 11 13 13 12 10 8 6 7
25 24 23 20 18 15 14 12 13 11 7 4 7 9 11 15 15 14 9 9 8 9 9 10 10 10 8 7 5 5 7 8 10 9 10 10 11 11 11 12 10 7 8
23 23 21 20 18 16 14 13 12 9 7 8 10 11 11 13 13 11 8 7 7 8 10 10 11 10 9 8 8 7 8 8 8 9 9 11 11 10 7 8 12 12 10
23 23 21 21 18 16 16 13 9 6 5 9 12 11 12 14 12 10 7 5 5 8 9 10 10 10 9 8 8 7 8 10 10 10 8 7 10 8 5 4 4 5 5
22 22 19 20 18 17 15 11 8 5 4 8 13 12 12 13 11 10 7 7 6 7 8 8 8 8 7 6 6 7 6 7 9 9 8 4 2 1 3 4 5 4 5
23 20 19 18 17 16 13 9 8 4 5 4 7 13 12 13 12 10 8 8 7 7 8 7 7 6 5 3 2 4 4 4 6 8 8 6 4 4 3 5 7 8 8
22 20 20 19 17 16 14 11 7 5 6 6 7 6 4 9 11 11 10 9 8 7 8 7 6 5 4 3 2 1 1 3 5 7 7 7 6 7 7 8 9 10 10
20 18 17 17 16 16 15 11 8 7 8 7 7 8 6 5 5 4 5 4 4 5 6 6 5 5 4 4 5 4 3 1 3 5 6 7 8 9 11 11 11 12 11
21 19 17 17 16 15 14 12 11 9 9 8 8 7 7 6 7 7 6 6 4 4 4 3 3 3 4 4 7 6 6 5 5 5 6 8 9 11 12 13 13 13 12
20 17 15 16 16 15 15 14 12 10 8 6 5 5 6 6 6 8 8 8 7 6 6 5 4 4 5 6 8 8 8 8 8 9 9 9 9 11 13 13 13 14 13
16 15 15 16 16 15 12 15 13 12 9 7 5 5 6 8 8 8 8 7 6 6 6 6 7 7 7 8 9 10 11 11 10 10 11 11 10 11 13 14 14 14 14
15 11 12 12 16 15 12 12 12 12 10 9 8 8 8 9 9 9 8 8 7 7 7 8 8 9 9 10 11 13 13 14 14 13 12 13 13 13 15 15 15 14 14
15 12 11 10 13 13 13 12 12 11 10 8 10 10 11 10 9 9 9 9 8 8 8 8 8 10 11 12 14 14 16 16 17 16 16 15 15 15 16 16 16 15 15
14 13 12 11 10 12 11 10 10 9 7 8 9 9 11 10 9 10 9 10 10 10 10 10 9 10 11 13 14 14 15 16 17 18 18 18 17 17 18 18 18 17 17
16 13 14 13 12 14 12 11 11 9 9 8 8 9 10 10 10 11 11 11 10 11 12 12 12 13 14 15 17 16 16 16 18 19 19 19 19 20 19 19 19 19 18
16 16 15 17 16 15 15 14 13 13 12 11 11 11 12 13 12 13 14 13 11 13 14 16 16 17 18 18 19 20 20 20 19 20 21 20 20 21 22 21 20 21 20
12 13 14 16 17 17 16 15 16 16 17 15 15 16 15 16 17 18 18 16 15 16 17 18 19 20 22 22 23 24 23 24 24 23 24 24 23 23 24 23 22 22 22
18 18 17 17 16 16 17 17 18 19 20 20 20 19 19 19 20 21 23 22 22 22 23 23 23 24 25 26 27 28 28 28 28 29 28 28 28 28 27 26 25 25 25
18 22 22 21 21 21 21 21 22 21 23 24 23 22 22 23 24 25 25 26 26 27 27 26 27 27 28 27 29 32 33 31 32 31 30 29 30 30 30 30 30 28 26
22 23 22 21 20 21 24 26 26 25 26 26 24 24 25 25 26 29 30 30 29 30 29 28 29 29 29 28 30 34 34 31 31 27 23 19 19 22 24 26 29 30 28
20 21 21 20 20 21 22 22 24 26 27 27 28 28 29 29 28 28 27 29 29 30 31 29 29 29 29 28 28 28 19 19 23 24 24 24 23 23 24 25 26 27 27
17 17 17 18 18 19 20 21 22 23 24 25 24 24 25 25 25 27 28 29 29 30 31 30 28 29 27 26 24 24 26 27 28 23 22 21 22 25 25 27 23 24 24
19 18 17 17 17 18 19 21 22 23 25 26 26 26 26 28 30 32 32 32 31 31 30 30 29 28 26 24 23 22 23 22 21 25 27 23 24 23 24 26 26 27 25
21 18 17 16 16 16 16 16 17 17 17 17 18 19 18 18 18 19 20 21 23 24 25 26 24 26 25 23 22 21 20 18 18 20 25 27 26 25 24 21 23 23 25

GFSSE_850_spd_063.txt.gz
Wind_Speed
24 24 23 19 18 15 13 11 9 6 5 4 2 2 3 6 12 13 14 11 8 7 7 7 7 8 7 6 6 8 9 10 11 13 15 15 15 14 12 12 11 11 11
26 25 24 20 17 16 13 11 8 6 4 3 3 3 7 12 15 16 13 12 11 8 7 6 9 8 6 6 6 8 9 10 11 13 14 15 15 13 12 10 8 7 9
25 25 23 20 17 15 14 11 9 8 7 8 9 9 12 16 15 13 12 11 11 10 9 8 9 9 7 7 7 8 10 11 12 12 13 14 16 15 13 9 8 9 11
25 26 23 20 17 15 13 12 12 10 7 9 11 13 16 16 15 10 10 10 11 12 13 12 11 10 9 8 8 9 11 11 11 13 13 13 14 11 11 14 13 11 12
25 25 22 20 17 15 14 14 11 8 7 10 13 14 15 14 14 10 9 9 11 13 14 13 12 11 10 10 10 11 11 11 11 11 12 12 14 11 8 10 11 9 9
26 24 22 20 18 16 14 13 9 5 6 10 13 15 15 13 12 9 7 8 9 12 13 12 12 12 11 10 10 11 12 11 11 11 10 11 10 6 5 6 4 3 3
25 23 21 19 18 16 13 11 7 6 5 8 14 14 16 13 11 8 8 8 9 10 11 11 10 11 10 9 9 9 9 10 10 11 9 6 4 4 6 5 6 6 7
23 22 19 19 17 16 13 9 7 5 6 7 6 14 13 12 12 10 9 9 9 9 8 8 8 7 7 7 6 7 7 7 8 8 9 7 7 8 7 8 8 8 8
21 21 17 17 15 14 13 10 7 4 7 7 8 5 7 11 11 10 8 7 6 6 6 5 5 4 3 2 3 3 4 4 6 6 7 7 8 6 8 9 11 11 9
21 19 20 18 15 15 13 9 6 5 7 8 8 7 6 6 5 5 5 5 5 4 4 3 1 1 2 3 4 5 5 5 6 6 7 8 9 10 11 12 11 12 11
21 20 18 18 16 14 13 10 8 7 7 8 9 7 6 6 6 7 7 7 5 4 4 4 3 2 2 4 3 4 4 4 5 5 6 7 9 10 11 11 12 12 12
22 21 18 17 15 15 14 12 10 8 8 7 7 6 6 5 6 6 6 5 4 4 5 5 3 3 4 5 5 6 6 6 7 8 8 8 9 11 11 12 12 12 12
20 19 17 17 16 16 14 13 11 10 9 7 6 5 5 6 6 6 6 5 5 5 5 5 5 5 5 6 8 8 9 9 9 9 10 11 11 12 13 12 13 13 13
17 15 14 16 17 16 14 10 11 11 9 7 7 6 6 6 6 6 6 7 7 7 6 6 6 7 8 8 9 10 11 11 12 12 11 12 13 13 14 14 13 13 13
17 14 13 13 15 16 13 11 9 10 9 8 8 8 7 7 7 7 7 8 8 8 7 6 7 7 8 9 10 11 11 13 14 14 14 14 14 14 14 16 16 14 14
15 14 12 10 10 12 11 10 8 9 8 8 7 7 7 8 8 7 7 8 9 9 9 9 9 9 9 10 9 10 11 12 13 14 15 15 15 14 14 16 17 16 16
15 14 13 10 10 10 10 9 8 7 8 7 6 6 6 7 7 8 9 9 8 9 10 11 11 12 13 12 12 12 13 13 14 15 16 17 17 16 15 15 16 18 18
18 17 15 14 13 12 11 10 10 10 10 8 8 8 8 8 8 10 11 10 10 11 12 13 13 15 16 16 16 15 16 17 17 18 19 20 19 19 18 17 16 17 19
17 17 17 17 16 15 13 13 14 15 15 13 13 12 11 12 13 14 15 14 14 14 15 16 17 18 19 19 20 21 20 21 21 21 22 23 23 23 22 21 19 18 19
15 15 15 16 15 14 15 16 16 18 19 17 16 15 15 16 16 18 19 18 20 21 21 22 22 22 23 24 24 25 25 25 24 25 25 26 26 25 24 24 23 22 21
17 18 17 17 17 17 16 17 18 19 18 19 19 18 18 19 20 21 22 23 23 24 24 24 24 25 26 24 27 28 28 28 28 28 26 23 20 20 21 23 24 24 23
18 19 20 21 20 20 20 20 21 21 21 20 21 22 23 23 23 25 26 26 27 28 28 27 27 28 28 26 26 27 25 22 23 18 12 15 16 17 17 17 19 21 24
19 20 24 24 23 22 21 22 23 24 25 24 24 24 25 26 27 28 29 29 29 29 29 28 29 30 30 27 24 24 16 15 17 18 17 17 19 19 16 16 17 18 18
20 20 21 22 22 21 20 20 21 22 23 24 24 25 25 26 25 25 25 25 26 27 28 28 27 27 28 28 25 25 25 23 15 15 14 16 20 18 18 18 18 19 19
21 19 18 18 18 18 18 18 19 20 21 22 23 23 24 25 26 27 27 28 29 31 31 31 29 28 28 27 25 24 22 19 21 20 17 13 15 15 18 18 18 18 16
23 21 19 18 17 17 17 17 18 19 19 19 19 19 19 20 20 20 20 20 20 20 20 20 21 23 24 24 25 23 22 21 18 18 18 18 19 17 18 19 18 17 15

GFSSE_850_spd_066.txt.gz
Wind_Speed
21 21 20 17 15 13 11 8 7 5 3 2 1 2 5 11 13 13 10 9 7 8 8 8 7 8 8 8 9 10 11 13 14 15 15 15 14 13 12 12 14 10 13
24 22 22 18 15 12 10 8 5 4 3 3 3 5 10 13 15 11 10 10 9 9 9 10 8 7 7 7 9 10 12 13 14 15 16 16 16 14 11 10 9 12 14
25 22 22 17 16 13 11 10 8 6 5 7 8 10 15 16 12 11 11 12 11 11 11 12 10 9 8 9 10 12 13 13 13 14 16 12 12 15 13 11 12 14 16
23 22 21 19 17 15 13 10 9 8 7 9 12 15 15 15 10 10 11 13 14 15 15 14 12 11 10 10 11 12 13 13 14 15 12 11 10 12 15 14 13 12 13
22 22 20 20 18 15 13 13 10 6 7 12 15 17 17 14 8 10 10 12 14 15 15 14 12 12 12 12 12 13 12 13 12 13 11 13 9 8 9 8 6 6 8
21 20 22 20 18 16 15 12 7 5 8 13 15 16 14 14 10 8 9 11 13 14 14 13 12 12 12 11 11 12 12 12 13 10 10 9 5 7 6 5 5 5 7
21 19 22 20 18 16 14 11 8 7 8 10 14 14 13 13 9 8 9 10 11 12 12 12 11 11 10 9 9 9 10 10 9 10 8 7 7 7 9 8 8 7 7
20 19 19 19 18 16 14 11 8 9 9 9 11 13 13 12 10 10 8 7 7 8 9 9 9 8 7 6 7 7 7 8 9 8 8 6 7 8 9 9 9 9 9
18 18 18 18 16 15 12 11 8 9 9 10 10 12 12 12 9 9 9 6 5 5 5 5 5 4 4 4 4 5 6 6 6 5 7 4 7 7 9 9 9 10 9
17 16 17 15 15 14 13 10 7 8 9 10 9 8 7 5 5 6 6 5 4 3 3 2 2 2 2 1 1 2 3 3 3 4 4 4 7 9 10 10 11 11 11
16 17 18 15 15 14 11 10 7 8 8 9 9 8 5 5 5 5 6 5 5 4 4 3 2 2 2 3 3 3 4 4 5 5 5 8 9 9 9 10 11 12 11
17 18 18 16 14 14 13 10 8 8 7 8 8 8 7 6 6 7 6 7 6 5 5 4 3 3 4 5 6 5 5 5 6 7 6 8 9 10 10 10 11 11 11
18 15 16 18 14 13 12 12 9 8 9 9 8 7 7 6 6 7 7 7 7 6 6 5 5 6 7 7 8 7 7 7 7 9 9 9 10 11 12 11 11 11 11
20 20 18 16 17 14 12 12 10 10 10 9 8 7 6 6 7 7 7 8 8 7 7 7 7 8 9 10 10 9 10 10 10 11 11 10 11 12 12 14 12 12 12
17 17 16 16 16 16 15 12 11 11 12 10 10 9 8 8 8 7 8 9 9 9 8 8 8 7 8 9 10 10 10 10 11 12 12 11 12 12 12 13 15 14 13
15 15 14 14 14 16 16 14 11 11 11 12 11 9 9 9 9 9 8 9 9 9 9 10 9 9 9 10 10 11 10 11 11 12 13 13 13 14 13 13 14 14 15
15 15 15 14 13 14 15 13 11 11 11 10 9 9 8 8 9 9 9 9 9 10 11 12 12 12 13 13 13 12 12 12 13 14 16 16 17 16 16 15 14 15 14
18 18 15 15 14 14 13 12 11 11 10 10 10 9 9 8 8 9 10 9 10 11 12 13 13 14 15 15 15 13 14 16 16 17 19 19 20 20 21 19 18 17 17
19 18 19 18 17 15 14 15 14 14 14 13 13 13 11 11 11 13 13 13 13 14 15 16 16 17 16 15 16 18 18 20 21 21 21 21 23 23 24 25 22 20 20
19 19 20 20 20 18 17 18 17 17 19 18 17 16 14 15 15 16 17 17 17 18 20 20 20 19 21 21 19 24 24 24 24 24 23 24 25 26 25 24 24 23 22
17 17 17 17 17 18 20 20 20 19 19 19 19 18 18 18 20 20 20 20 21 22 22 22 22 23 23 21 24 25 21 21 24 25 22 20 17 15 15 16 18 19 20
16 18 19 19 18 18 19 19 19 19 19 19 20 21 22 22 23 23 24 24 24 26 25 25 25 26 27 25 25 21 19 18 19 18 12 12 17 19 18 17 15 15 16
18 17 19 20 22 23 23 23 22 22 22 22 21 22 24 25 26 27 27 28 28 29 30 28 27 27 27 27 28 22 16 16 11 13 15 17 19 16 14 16 19 18 18
17 20 20 20 22 24 24 24 23 22 21 22 22 23 25 26 26 27 28 28 28 27 27 26 27 29 29 28 28 28 28 26 17 15 14 16 17 17 14 15 18 22 21
16 23 22 21 20 21 21 20 19 20 20 21 21 22 23 24 25 26 27 27 27 28 30 31 32 31 30 30 28 28 26 26 22 21 17 18 18 15 18 18 18 20 23
23 23 24 21 19 19 19 18 19 19 20 21 22 23 24 25 25 24 24 24 24 24 24 24 24 24 25 26 26 25 26 21 20 20 20 18 17 16 15 16 16 21 17

GFSSE_850_spd_069.txt.gz
Wind_Speed
16 19 19 16 13 10 7 7 4 5 3 3 5 6 9 12 12 10 9 7 8 8 10 10 10 9 10 11 12 14 15 16 17 18 18 18 16 14 13 14 10 15 14
22 21 19 16 13 10 8 7 3 2 2 3 5 9 13 13 10 10 9 9 9 10 10 8 7 9 10 11 13 15 15 17 18 20 20 17 19 14 13 13 15 18 18
21 21 21 17 13 12 9 7 5 3 4 7 9 14 17 12 10 9 11 11 11 13 12 10 10 11 11 12 14 14 16 17 20 24 18 13 15 16 15 14 14 16 16
21 20 20 19 15 12 11 8 5 6 8 11 14 16 14 10 9 11 13 14 14 15 13 13 13 12 12 12 13 14 16 17 21 19 11 9 11 14 13 12 9 12 13
21 19 19 19 17 15 11 9 9 7 9 13 16 16 13 8 8 11 13 15 16 15 14 14 13 13 13 13 13 14 15 16 21 12 7 9 9 9 7 7 8 8 8
19 18 18 18 17 15 13 10 6 7 11 15 17 16 15 7 7 9 12 13 14 14 14 13 13 12 12 12 12 12 13 14 14 10 8 9 8 10 7 7 8 8 8
19 16 20 17 16 15 13 10 7 8 12 14 18 15 15 8 4 7 9 11 12 12 12 12 11 10 10 9 9 10 11 12 10 8 7 4 9 9 9 10 10 10 9
19 16 18 17 15 14 13 10 8 9 12 11 13 15 13 9 7 9 9 9 9 9 9 8 8 8 7 7 8 8 8 9 9 7 6 6 8 9 11 11 12 12 11
17 17 16 18 15 13 13 10 8 10 12 12 12 11 14 9 7 8 7 7 7 7 7 6 6 5 4 4 4 5 5 7 9 3 5 5 8 9 10 11 12 12 11
17 19 17 16 14 14 13 11 8 10 11 12 10 10 9 5 3 5 4 4 4 3 3 3 3 2 1 1 2 3 3 5 4 5 4 6 8 8 9 10 11 11 11
18 17 17 15 15 14 11 10 7 10 10 10 9 8 6 3 3 3 3 4 3 2 2 2 1 1 1 2 3 3 3 4 2 3 3 8 9 9 9 9 10 11 11
18 18 17 16 15 13 13 9 6 8 7 8 8 8 6 7 6 8 6 5 5 4 4 5 4 4 4 4 6 5 4 5 4 5 6 8 10 10 10 9 9 10 10
17 16 18 17 13 16 13 10 8 6 7 8 9 8 8 8 8 7 6 7 7 7 6 6 7 6 4 6 6 5 7 7 5 7 8 9 10 11 12 11 10 10 10
15 12 15 15 16 13 13 13 9 9 9 8 9 9 8 6 8 6 6 6 7 6 5 7 5 7 8 9 7 7 8 8 6 8 8 11 11 11 12 12 13 11 11
18 19 21 17 16 14 13 13 13 11 11 9 9 10 8 8 6 7 6 6 6 7 7 7 7 7 7 7 8 8 8 8 8 9 10 12 11 12 12 12 13 14 13
16 14 14 15 16 16 15 14 12 11 11 11 10 10 11 8 8 8 7 7 8 9 8 8 7 8 7 8 8 9 9 9 9 11 12 13 15 13 13 13 13 14 15
13 13 15 14 16 14 15 14 12 12 12 12 11 10 11 11 10 10 8 7 7 8 8 9 10 10 10 10 10 10 10 11 11 11 13 16 18 18 16 16 16 15 15
12 16 16 14 14 14 15 14 14 13 11 11 10 10 11 10 9 9 9 9 8 8 9 9 10 10 10 11 11 11 12 13 13 14 15 17 19 19 20 21 19 18 18
13 15 17 16 15 15 15 13 13 12 12 11 11 11 10 10 10 10 10 9 9 10 11 12 12 13 14 14 14 15 15 15 16 16 17 17 17 20 23 21 24 22 21
12 14 15 17 17 15 15 15 15 15 13 14 13 12 12 11 12 13 12 13 12 14 14 15 16 15 17 17 17 17 18 19 17 18 17 18 17 18 22 21 19 21 20
12 15 15 16 18 17 16 16 17 18 17 16 16 16 15 15 13 15 16 15 15 18 16 16 17 19 22 21 21 23 21 17 19 21 19 19 13 17 15 18 19 16 14
11 14 16 15 15 16 16 16 15 12 13 12 13 15 16 17 19 20 20 21 20 21 22 21 21 21 23 21 19 18 17 20 16 21 18 14 13 13 17 18 14 13 14
14 17 17 18 18 17 16 15 18 20 18 17 18 18 17 21 22 23 24 25 25 25 26 26 27 26 25 24 21 19 12 12 12 13 16 15 15 16 15 16 18 16 15
15 17 18 18 19 19 21 22 22 20 17 13 16 18 19 20 22 24 25 26 26 26 27 27 26 25 24 25 24 27 28 27 19 16 17 14 14 18 19 16 14 14 15
19 16 20 22 20 20 20 22 23 22 22 22 20 19 19 21 22 23 24 25 26 27 27 27 27 28 28 27 25 23 26 25 25 28 23 22 22 21 13 9 13 8 14
20 19 17 19 20 19 19 20 19 19 19 19 19 18 20 21 23 23 23 24 25 25 24 24 23 23 24 23 23 22 23 21 22 22 25 26 20 18 18 19 11 17 19

GFSSE_850_spd_072.txt.gz
Wind_Speed
14 20 20 17 15 11 9 11 7 7 8 8 10 14 15 14 12 11 10 11 14 14 15 12 11 12 14 16 18 20 22 23 24 23 22 18 17 16 17 18 19 19 16
19 22 20 17 14 12 10 11 6 5 8 9 13 16 15 11 11 11 10 10 13 13 14 12 11 14 15 18 19 21 23 23 24 22 21 19 19 18 16 17 18 18 17
22 22 20 17 15 13 11 8 6 7 10 13 17 17 12 11 11 12 11 12 14 14 14 13 14 14 17 18 20 22 25 24 20 19 18 13 18 17 15 14 16 16 16
23 23 22 19 15 13 11 9 9 11 14 17 19 15 12 11 13 15 15 15 17 16 16 15 15 15 16 18 19 22 23 22 15 16 9 9 13 10 9 10 10 12 12
21 21 22 19 16 13 11 9 11 13 15 19 18 13 10 11 14 15 17 18 17 17 16 16 15 16 16 17 18 19 21 21 13 10 8 9 12 10 9 10 10 9 8
21 19 21 19 16 13 12 12 11 14 17 18 18 14 9 11 12 14 15 16 16 16 15 15 15 14 15 15 16 15 14 15 13 10 9 12 11 12 12 12 12 11 10
23 19 20 19 16 14 14 11 11 14 17 18 18 17 9 7 10 13 14 14 14 14 13 13 13 12 12 12 12 12 12 13 12 7 8 10 11 12 12 12 13 12 11
21 19 21 18 15 15 13 11 12 14 17 18 17 17 11 8 12 12 12 12 12 11 11 10 10 10 9 9 9 9 9 11 9 7 8 9 9 11 11 11 12 12 11
16 17 22 19 14 13 13 11 12 15 15 18 17 17 12 10 13 11 10 10 9 8 8 7 7 6 5 5 6 6 7 7 6 6 4 7 8 9 10 10 11 11 11
16 14 19 21 16 14 13 11 11 15 15 14 16 15 12 6 7 8 8 7 6 6 5 4 4 3 2 3 3 3 4 4 7 7 6 7 8 8 8 9 9 10 10
21 17 15 14 14 14 13 11 9 12 15 13 12 11 8 6 4 5 4 4 3 3 3 2 1 0 1 1 2 3 3 2 3 4 7 8 9 9 8 9 9 9 10
19 17 18 16 16 15 12 11 8 9 10 11 10 8 8 2 3 3 2 3 3 2 2 2 2 2 3 3 3 4 2 4 5 5 9 9 10 10 10 9 10 10 10
14 20 19 16 15 15 13 9 6 6 9 7 6 6 10 11 10 8 5 5 5 5 5 4 4 4 5 5 8 7 7 7 6 6 10 10 10 11 12 12 11 10 10
19 17 15 14 16 15 14 14 9 3 6 7 8 7 10 13 8 6 5 5 6 4 6 6 6 6 9 9 8 8 8 9 8 7 10 10 10 11 11 13 13 12 12
22 20 15 19 17 17 14 15 16 13 9 9 8 11 10 7 7 8 7 8 6 6 6 7 6 7 7 8 9 11 10 9 10 11 13 12 11 11 12 12 13 14 14
20 18 23 20 15 15 16 14 14 15 11 11 11 11 13 10 10 9 9 9 9 9 8 7 7 7 8 8 9 10 11 12 11 12 14 16 15 13 13 14 13 14 15
21 19 20 18 19 19 17 16 15 12 13 11 14 11 11 13 13 11 10 7 7 7 7 7 8 11 13 12 13 12 11 12 13 15 14 17 20 19 17 16 15 16 16
14 15 13 16 19 21 16 18 18 13 16 15 14 11 11 11 11 10 9 10 9 8 9 9 10 10 11 11 12 12 12 14 16 18 18 18 20 22 22 22 21 19 18
15 15 18 15 15 15 18 16 17 16 14 13 12 12 11 11 10 9 9 8 8 9 10 11 11 11 12 14 15 17 18 19 20 20 21 21 18 19 20 19 24 22 21
14 16 17 22 19 19 18 17 15 16 17 15 12 11 11 12 11 12 11 10 9 11 12 13 15 16 17 17 19 21 20 21 21 24 22 21 20 19 18 22 21 16 15
17 15 15 17 18 17 17 18 19 18 17 15 18 14 14 13 12 14 15 14 12 15 15 14 16 16 17 18 22 24 23 21 19 18 21 21 19 16 18 16 18 16 13
15 18 19 17 18 18 17 16 14 14 14 14 12 16 20 19 19 19 19 18 17 18 17 17 18 20 21 19 22 24 26 22 22 13 14 20 18 15 14 19 19 14 13
19 19 19 21 19 17 19 16 16 17 14 14 14 14 16 18 18 20 20 19 20 21 22 23 23 24 25 26 24 21 14 12 11 13 12 16 15 15 16 17 18 18 16
23 20 19 22 22 21 19 20 19 17 19 17 17 20 20 18 17 19 20 21 22 23 23 24 23 24 24 23 21 21 24 27 27 17 14 16 17 17 19 19 13 10 16
24 20 20 22 22 22 22 21 20 19 18 18 16 18 19 19 19 19 20 21 22 23 24 24 24 25 24 24 23 23 21 20 22 24 22 24 19 21 18 16 14 18 18
22 23 20 20 21 20 19 20 21 21 19 18 20 20 19 19 19 19 20 22 23 24 24 23 22 21 21 21 22 20 19 18 18 21 21 24 23 23 20 17 20 20 22

GFSSE_850_spd_075.txt.gz
Wind_Speed
21 24 21 19 16 14 12 12 9 10 12 15 19 17 15 15 16 17 20 19 18 17 15 12 14 17 20 22 24 25 24 23 21 22 19 19 19 19 18 19 20 20 19
28 25 22 20 17 15 15 11 9 11 14 19 19 16 13 14 13 14 15 15 15 14 13 15 17 20 21 23 24 23 22 21 21 20 20 19 19 17 18 18 17 18 18
28 27 23 20 18 15 14 10 10 13 18 21 18 14 13 13 13 14 16 17 16 11 15 17 19 20 22 24 23 20 19 20 17 16 15 17 15 11 12 13 14 14 14
29 27 24 21 19 15 12 11 13 18 22 21 17 13 14 14 15 16 18 18 17 17 19 19 19 20 21 23 22 19 17 16 13 11 11 11 12 11 12 11 11 10 9
28 27 25 22 18 15 13 14 17 20 23 20 16 14 16 16 17 19 20 19 20 19 19 19 19 19 20 21 20 18 17 15 11 11 12 12 13 14 13 12 12 11 10
26 25 24 22 18 15 15 15 18 22 22 20 16 15 16 17 18 19 19 19 19 19 18 18 18 18 17 17 16 13 12 11 12 12 13 13 12 13 13 13 13 12 11
26 24 22 21 18 16 16 15 18 22 22 20 16 15 15 16 18 19 19 18 18 17 16 15 15 14 14 14 12 12 11 10 10 10 11 11 12 12 12 13 13 13 11
22 22 22 21 17 19 16 16 18 22 22 21 19 13 14 16 17 17 17 16 15 14 13 12 12 11 11 10 10 8 7 8 7 8 9 10 10 10 11 11 11 11 11
18 21 23 20 18 17 16 16 19 20 21 20 20 14 14 15 16 15 14 13 12 11 10 9 8 7 7 7 7 6 5 6 6 6 7 9 10 9 9 9 10 10 10
18 17 22 20 18 17 15 15 18 19 19 19 19 16 14 13 12 13 11 11 10 9 7 6 5 4 4 3 4 4 2 2 3 5 7 8 9 9 9 9 9 9 9
18 20 20 19 17 16 14 13 16 17 18 20 18 14 11 9 10 10 9 8 6 5 4 4 2 1 1 1 1 2 1 1 3 6 7 8 9 10 10 10 10 10 9
18 16 17 16 15 16 14 12 13 14 15 16 15 12 10 10 8 8 6 5 4 4 3 3 2 2 2 2 2 2 2 4 5 6 7 8 9 11 10 10 10 10 10
16 16 16 15 14 14 15 12 12 12 12 12 11 10 8 8 4 4 3 3 4 4 4 4 4 3 3 4 5 5 5 5 6 8 8 9 9 10 11 11 10 10 11
18 16 19 16 16 13 9 11 11 8 10 11 12 12 9 7 6 6 5 5 4 5 4 5 4 5 5 5 6 6 7 7 6 6 8 9 10 10 10 11 12 11 11
20 18 17 16 16 16 15 11 9 7 5 7 7 10 11 11 11 9 8 6 5 5 5 5 4 5 7 6 7 9 8 8 9 9 11 12 12 12 12 12 12 14 13
26 27 23 20 20 19 17 17 16 13 12 7 9 10 14 13 10 9 9 8 7 6 6 7 7 6 6 7 8 9 10 11 11 12 13 14 15 15 15 14 14 13 14
25 22 25 23 21 21 19 16 20 19 14 14 12 13 11 14 13 11 11 10 9 8 7 8 7 8 10 11 12 11 10 10 11 14 15 17 17 18 19 18 18 16 16
24 25 22 23 22 21 19 18 18 18 18 16 16 17 14 12 15 13 11 11 9 8 7 7 8 10 9 9 10 11 12 13 14 16 18 19 19 19 20 20 20 19 19
25 25 24 26 24 24 22 20 19 20 18 18 16 14 13 12 9 11 10 10 10 10 10 10 10 10 11 12 14 15 17 18 19 19 21 22 21 19 19 20 20 19 19
20 20 21 23 24 22 22 19 18 24 19 17 17 16 15 14 11 10 9 10 8 8 11 12 13 14 16 17 18 19 21 22 22 22 23 22 18 21 18 18 18 20 19
18 22 21 24 23 21 24 23 22 21 21 23 20 18 16 14 12 13 12 10 12 15 15 16 16 17 18 17 19 21 23 21 23 22 19 20 21 21 19 17 17 16 15
17 21 22 22 25 24 21 22 21 20 21 20 20 20 16 16 15 14 15 16 16 17 17 18 19 19 20 18 19 21 26 25 20 19 14 14 17 22 19 17 16 16 16
20 21 23 23 22 24 22 22 21 21 22 22 21 20 22 23 22 21 21 22 22 20 20 21 21 23 25 24 22 21 15 8 10 10 12 15 15 17 18 17 17 16 19
20 19 21 24 24 23 22 25 25 24 22 19 17 17 18 18 18 20 22 21 21 22 22 24 24 25 25 25 24 22 23 25 17 15 12 10 17 17 18 19 22 20 16
23 23 22 23 26 25 23 23 24 21 21 20 22 21 20 20 19 18 20 21 22 21 22 23 23 23 24 23 22 21 22 24 23 22 22 20 19 21 20 20 21 17 15
24 23 23 24 25 26 25 26 24 23 23 24 24 22 19 19 20 19 19 20 21 22 22 22 22 21 21 21 20 20 21 21 18 14 19 21 21 15 18 20 19 18 15

GFSSE_850_spd_078.txt.gz
Wind_Speed
27 26 23 22 19 16 12 12 12 11 17 19 19 20 22 23 23 24 21 18 17 15 13 16 19 20 22 23 21 21 20 20 21 20 20 20 17 18 17 18 18 18 17
32 27 24 21 19 17 16 13 12 14 20 19 16 17 19 18 20 21 19 16 13 12 17 20 21 22 23 21 19 17 18 19 20 19 18 17 13 13 15 15 16 16 15
31 28 25 23 21 20 15 13 15 19 22 18 14 14 16 17 18 17 17 15 12 15 19 21 22 22 22 20 19 16 17 17 16 14 13 13 12 12 12 13 11 12 14
30 28 26 23 22 19 15 16 18 23 21 17 14 14 15 16 17 16 15 12 16 19 21 22 22 21 19 17 18 15 14 15 15 13 13 13 12 13 12 12 12 10 8
31 28 25 23 21 18 17 20 23 24 21 16 15 16 17 18 19 17 18 22 22 22 21 21 21 20 18 16 15 13 14 13 13 12 13 13 13 14 14 13 12 11 9
30 26 24 22 19 18 18 22 25 25 20 17 17 17 19 21 22 22 22 22 22 21 21 21 20 18 16 13 11 10 12 11 11 11 12 13 13 13 13 13 13 12 11
28 25 23 20 18 17 19 22 26 25 21 18 18 18 19 20 21 22 21 21 20 19 19 18 17 16 14 11 10 7 8 8 9 9 11 11 12 12 12 12 12 12 11
26 24 23 20 17 18 18 22 26 25 22 19 18 18 19 19 20 20 19 18 17 16 16 15 14 12 11 9 7 6 4 6 7 7 8 10 10 10 11 11 11 11 11
23 22 21 19 17 17 17 21 24 24 23 19 15 16 17 18 18 17 17 16 15 14 13 12 10 9 8 7 5 4 3 4 5 5 6 8 10 10 10 10 10 10 10
17 19 22 18 17 16 17 19 22 23 23 22 16 15 17 16 16 15 14 13 12 11 9 8 7 6 5 5 4 3 2 2 4 4 6 8 9 10 10 10 9 10 10
18 17 19 17 16 14 14 18 20 21 20 20 18 16 14 14 13 13 12 11 10 9 7 6 5 4 3 3 2 2 2 2 4 5 6 7 8 9 9 10 10 10 10
18 18 18 18 16 15 13 16 18 19 20 19 17 16 13 13 12 10 9 8 8 7 6 6 5 4 3 2 2 2 3 3 5 5 6 6 7 9 9 9 9 10 10
15 16 17 17 14 15 14 14 17 17 18 19 17 15 13 12 11 10 7 6 7 6 6 6 6 5 3 2 3 3 4 4 5 6 6 6 7 8 10 9 9 9 10
21 16 19 18 15 13 13 12 14 16 17 17 15 14 14 13 10 7 7 6 6 7 6 6 5 5 4 3 2 3 5 5 5 6 6 7 8 8 10 10 11 11 11
18 28 23 20 15 15 12 12 13 13 12 13 15 14 12 10 8 6 6 7 6 6 6 5 5 5 4 4 5 5 5 6 7 8 8 9 10 10 11 12 13 14 14
29 35 33 18 18 15 15 16 15 13 10 10 11 12 12 10 8 8 10 9 8 6 6 6 5 5 5 6 7 8 9 9 9 9 10 11 12 13 14 13 14 13 14
36 37 38 32 23 19 19 17 17 14 14 14 10 9 11 11 11 13 12 10 8 7 7 7 7 8 8 10 11 11 10 9 10 12 14 15 16 17 15 15 16 15 15
29 28 28 30 31 20 23 22 18 19 17 16 14 13 12 11 13 15 13 11 10 9 8 8 8 10 10 10 10 10 12 12 13 15 16 17 20 18 18 17 16 17 16
29 29 30 28 28 33 27 28 22 21 22 19 20 18 17 14 13 13 14 13 13 12 11 10 9 10 11 12 14 15 16 19 18 20 20 20 21 22 21 17 16 17 14
28 30 30 27 27 24 27 25 22 22 25 23 21 19 18 13 13 9 11 12 12 11 8 10 12 14 16 18 19 20 21 22 24 21 20 21 23 24 20 18 16 18 17
23 28 27 27 27 27 26 27 27 30 29 26 22 21 17 18 15 14 11 10 10 10 13 14 16 18 18 18 21 22 24 25 24 24 21 18 19 19 19 22 19 16 15
20 23 24 25 26 26 26 28 30 28 25 25 25 21 25 21 19 16 15 15 15 14 15 16 19 21 22 20 22 24 26 29 24 16 15 15 14 14 15 19 18 16 15
20 18 23 22 24 26 27 24 27 24 24 26 27 28 24 21 20 19 17 17 17 19 20 20 22 22 24 25 24 22 12 9 15 13 11 14 15 15 15 16 18 18 19
24 21 19 21 23 24 26 26 27 29 28 28 25 25 25 25 24 23 23 22 22 22 22 22 24 26 28 28 27 26 26 28 25 14 13 10 8 14 15 15 19 21 21
27 25 24 22 22 24 25 25 25 29 26 22 23 24 24 23 21 20 21 22 23 23 23 24 25 26 26 26 24 24 24 24 24 25 26 21 16 17 20 19 20 22 20
29 28 25 25 26 26 27 27 27 26 26 24 23 23 22 20 22 25 25 24 23 22 23 24 25 26 26 25 24 23 22 22 22 19 17 18 19 19 20 20 22 23 20

GFSSE_850_spd_081.txt.gz
Wind_Speed
28 26 24 21 19 16 14 12 12 16 17 21 21 21 20 21 21 20 17 17 14 11 14 16 17 19 20 19 19 20 20 20 19 18 18 15 15 16 17 17 17 16 13
32 27 24 21 18 15 13 13 14 19 19 20 22 22 22 23 23 19 18 15 12 14 16 17 19 19 18 17 18 20 19 19 17 15 13 13 15 15 15 13 14 15 13
32 28 25 21 18 16 15 14 18 20 20 18 20 21 21 22 21 19 16 13 13 17 18 19 20 19 18 18 20 19 18 15 13 13 12 13 14 14 13 12 12 13 13
30 28 25 21 20 18 14 16 21 20 18 15 18 19 20 20 19 16 12 12 18 19 19 19 19 18 17 17 18 18 16 15 14 14 14 14 14 15 14 14 13 11 10
29 27 24 21 19 16 14 18 22 20 17 14 15 17 19 19 17 12 11 19 22 21 20 19 18 17 16 16 16 15 14 14 14 13 13 14 14 15 15 14 13 12 11
27 24 22 20 17 14 15 21 23 19 16 15 16 17 18 18 16 18 22 22 22 21 19 18 17 15 14 13 13 12 11 11 11 12 12 13 13 14 14 14 14 13 12
25 23 21 18 16 14 17 23 22 17 16 17 17 20 22 23 24 23 23 22 21 20 19 17 15 13 10 9 9 8 8 8 8 9 11 11 12 12 13 13 13 13 12
24 22 21 17 14 14 18 24 23 16 15 16 17 20 21 23 23 23 22 20 19 18 17 15 13 11 9 6 5 5 6 6 6 7 9 11 11 12 12 12 12 12 12
22 21 19 16 12 14 16 23 22 18 15 13 15 17 19 20 21 20 20 18 17 16 15 13 11 9 7 5 4 1 3 4 4 6 7 9 11 11 11 11 11 11 11
20 20 19 16 13 13 16 21 22 20 18 13 12 15 17 17 17 17 17 16 14 13 12 10 9 7 5 4 3 2 1 3 4 5 6 7 9 10 10 10 10 10 10
20 18 18 14 13 12 14 19 21 21 19 16 13 12 16 16 15 15 14 13 11 10 9 8 7 6 5 3 2 2 3 4 5 5 6 7 8 9 9 9 10 10 10
21 20 16 14 12 11 12 17 20 21 20 18 15 14 13 13 13 12 11 11 10 9 7 6 6 5 4 3 2 2 3 4 6 6 5 6 7 8 9 9 10 10 10
25 18 16 13 12 11 9 15 18 20 19 18 16 15 13 13 13 12 9 8 8 8 7 7 6 5 4 3 3 3 3 4 5 5 4 5 6 8 9 9 10 10 11
32 13 9 11 11 11 10 9 15 17 20 19 17 16 14 12 12 11 9 7 8 8 8 8 7 5 5 4 3 2 3 2 3 4 5 6 6 7 9 10 12 12 12
36 28 34 14 15 12 13 11 13 16 17 16 16 16 15 14 12 10 8 9 8 8 7 7 7 6 5 5 5 4 4 4 5 6 5 6 7 8 9 10 12 13 14
31 19 27 33 19 19 13 14 13 14 14 16 17 16 16 14 12 11 10 9 9 7 7 7 7 7 6 6 6 7 7 8 8 7 7 8 10 12 13 12 12 14 15
30 14 26 37 18 23 18 16 15 15 14 14 14 14 14 14 13 11 10 10 9 9 8 8 7 7 7 8 9 10 9 8 9 10 13 13 14 15 17 15 13 14 14
33 26 30 29 28 33 30 19 19 17 20 18 19 15 13 13 11 12 13 12 11 10 9 8 7 7 9 10 10 9 11 12 13 15 17 18 19 17 18 18 16 17 14
30 32 31 30 33 31 32 30 26 32 26 24 21 20 17 16 13 14 15 15 13 12 11 9 8 9 9 11 13 14 15 18 19 20 23 22 22 22 22 21 17 16 16
32 34 30 33 34 38 40 33 23 23 35 27 27 23 23 20 19 16 14 15 15 15 13 11 8 10 13 14 17 19 19 20 21 24 24 22 23 22 20 20 18 16 16
28 29 35 32 29 33 33 36 37 36 30 32 30 28 23 23 21 16 15 13 14 13 11 9 12 13 15 16 20 21 21 22 27 28 23 22 20 19 19 17 14 17 16
26 31 31 31 34 36 38 38 38 34 33 34 31 29 27 25 21 22 19 15 13 13 12 14 15 15 17 17 19 22 27 29 23 7 13 16 17 17 10 11 15 14 14
20 24 29 31 33 31 32 31 29 29 31 32 30 30 29 27 26 23 21 19 17 16 17 17 19 19 19 21 20 21 15 11 21 24 11 15 18 20 20 14 14 14 14
20 21 19 22 23 24 25 26 26 29 26 25 27 26 27 28 25 23 21 18 16 18 20 22 22 22 22 24 25 26 26 26 25 18 10 11 11 11 14 17 17 17 17
21 22 21 20 21 23 24 25 27 29 26 23 23 21 22 24 23 20 18 14 17 22 26 26 25 25 23 24 25 25 26 24 24 24 25 26 21 17 14 17 19 21 22
24 25 24 24 24 24 23 24 25 27 27 26 27 21 17 20 22 20 20 18 19 26 27 27 26 23 23 24 24 23 23 23 22 21 21 22 23 20 19 19 21 19 23

GFSSE_850_spd_084.txt.gz
Wind_Speed
29 27 24 21 18 14 11 9 10 14 18 18 20 20 20 17 19 19 14 13 10 11 15 16 19 19 18 19 20 20 20 18 17 17 14 15 17 18 16 18 15 15 14
33 28 25 20 18 15 12 11 14 17 18 21 20 21 21 21 21 17 16 12 11 14 16 19 19 19 19 20 21 20 18 18 16 15 16 16 17 15 14 14 16 15 16
32 29 25 21 18 14 13 12 16 18 20 20 21 20 23 22 18 18 15 10 12 16 18 19 18 18 19 20 19 18 17 16 16 16 16 16 16 15 14 13 14 14 15
32 28 25 21 18 16 13 15 18 17 19 20 21 22 22 21 18 16 13 11 16 18 19 19 19 21 20 19 18 17 16 16 16 16 16 16 16 17 16 16 14 13 14
31 28 24 21 19 16 13 18 18 16 15 17 19 20 21 19 16 13 11 16 19 19 19 19 19 19 18 17 16 15 15 15 15 15 15 15 16 17 16 16 15 14 13
29 26 23 20 20 14 15 20 18 14 13 14 17 19 19 17 13 11 17 20 20 20 19 18 17 16 15 14 13 12 12 13 13 12 13 14 15 15 15 15 15 14 14
28 25 22 20 17 12 16 22 18 14 13 13 16 18 19 17 14 21 22 21 20 19 18 16 14 13 12 10 10 9 9 9 9 11 12 12 13 13 14 14 14 13 13
27 24 22 18 14 12 19 23 17 12 13 14 17 20 19 22 23 23 22 21 19 18 16 14 11 9 8 7 7 6 7 7 7 8 10 11 12 12 12 12 12 12 12
24 23 22 18 13 14 21 22 17 12 13 14 17 21 23 22 23 22 21 20 18 17 14 12 10 7 4 3 3 4 5 5 6 7 8 9 10 11 11 11 11 11 11
24 23 21 17 12 15 21 22 17 14 11 12 15 18 18 19 20 19 18 17 16 14 12 10 8 6 5 2 1 1 3 4 5 6 6 7 8 9 10 10 10 10 11
22 22 19 17 13 13 19 23 19 15 11 10 11 13 16 17 17 17 16 15 14 12 11 9 8 6 4 3 2 2 2 3 4 4 4 5 6 7 8 8 9 9 10
23 22 19 14 11 11 16 22 21 19 16 14 10 11 13 14 14 13 13 12 11 10 10 9 8 6 5 4 3 2 3 3 4 4 3 4 5 6 6 7 8 9 9
23 23 20 15 13 10 12 17 21 20 17 16 12 12 12 13 14 13 12 10 10 9 9 8 7 6 6 5 4 4 3 3 3 3 3 3 5 6 7 7 8 9 9
22 20 18 15 13 11 8 11 16 19 19 17 14 14 12 12 13 12 11 10 10 10 9 8 8 7 6 5 4 3 2 3 3 3 3 4 4 6 7 9 10 11 12
29 21 15 14 9 9 8 7 9 14 17 17 17 15 14 12 12 12 11 11 10 10 10 9 8 7 6 6 5 4 4 3 4 5 4 4 5 6 8 10 11 12 13
35 27 31 22 15 11 7 6 6 8 12 15 17 16 15 14 14 14 12 10 10 9 10 9 9 8 7 6 6 6 5 6 6 5 5 7 8 12 12 14 12 12 13
38 32 29 26 24 25 16 9 8 8 9 13 15 16 17 16 15 14 13 12 11 11 10 10 10 9 8 8 7 7 7 6 6 8 10 11 12 13 16 15 19 15 12
32 38 35 33 25 32 28 12 15 11 11 13 14 14 15 15 15 16 15 13 11 13 12 12 11 9 8 7 6 6 7 9 10 12 14 16 16 17 19 18 19 18 15
36 39 35 30 22 24 25 31 21 19 16 19 24 22 21 18 15 15 13 13 14 14 14 12 10 9 7 6 8 10 11 13 15 16 17 20 22 22 20 18 21 22 15
38 31 23 29 29 22 20 24 35 35 35 35 33 26 21 21 19 18 17 16 16 17 15 14 12 9 8 8 11 15 15 16 17 21 22 23 22 21 21 20 17 16 13
34 28 26 28 30 26 27 32 33 32 36 28 33 27 23 23 24 24 22 16 15 18 15 12 10 9 12 12 15 17 18 19 21 21 21 14 18 17 16 17 16 12 11
24 26 27 35 33 29 27 37 38 40 38 30 29 31 24 25 26 26 24 19 18 13 12 11 12 13 14 14 16 18 21 21 17 10 12 22 14 15 14 12 11 13 13
24 26 29 33 31 30 30 32 29 35 33 34 39 30 26 27 27 27 24 25 24 19 16 13 12 15 18 19 18 14 12 8 22 22 14 19 17 16 17 15 14 14 14
15 20 25 27 26 28 29 27 32 33 32 33 22 21 27 27 24 23 23 27 24 21 14 13 10 15 22 25 24 23 24 26 25 16 17 15 13 17 16 17 16 15 17
14 15 17 17 20 23 25 24 24 26 28 24 23 24 22 16 24 25 23 17 10 13 13 12 13 20 26 27 26 25 23 22 19 20 25 22 19 16 17 15 16 16 18
12 21 20 19 18 19 19 20 20 22 21 21 22 22 24 21 22 19 17 16 16 14 19 22 23 25 25 24 23 23 22 21 21 18 19 21 24 25 20 18 16 18 20

GFSSE_850_spd_087.txt.gz
Wind_Speed
32 27 26 24 20 16 13 11 11 12 14 18 22 21 19 18 17 16 14 12 10 15 18 20 19 18 20 21 20 19 19 18 17 17 17 19 16 17 19 15 17 17 15
33 29 27 23 20 16 13 12 16 18 17 21 21 22 20 19 19 16 15 11 14 17 21 19 19 21 22 22 20 19 18 17 17 18 17 17 16 15 14 16 16 15 14
33 31 27 22 19 16 14 15 19 20 21 22 23 21 21 22 18 16 13 12 17 20 20 19 19 22 21 20 19 17 17 17 18 18 18 18 17 16 15 14 16 17 15
34 31 27 23 20 16 15 17 21 22 23 22 22 23 24 20 19 15 12 15 19 21 20 20 21 21 20 18 17 16 16 17 17 16 17 17 17 17 16 15 14 15 16
33 30 27 24 20 18 16 20 21 22 22 21 22 24 23 20 18 13 13 18 21 21 21 21 20 19 18 16 16 15 15 15 15 14 15 16 16 16 15 15 14 14 13
32 29 27 24 21 17 19 21 19 20 21 22 22 23 22 19 15 12 17 20 21 21 20 20 18 17 16 14 13 13 13 13 13 13 13 14 14 14 14 14 13 13 13
32 29 26 23 22 16 21 22 18 18 19 22 22 21 19 15 13 13 20 21 21 20 19 17 16 15 13 11 10 10 10 10 10 11 11 11 13 12 12 12 12 12 12
32 30 26 25 20 16 23 22 18 15 17 20 22 22 19 16 16 22 22 21 20 19 17 15 13 11 10 9 8 8 7 7 8 8 9 10 10 11 11 11 11 11 11
32 30 27 24 18 18 25 22 18 14 14 17 22 21 21 21 25 24 22 21 19 17 14 12 10 8 6 5 5 5 5 5 5 6 7 8 8 9 9 10 10 10 9
32 29 27 23 19 22 27 21 18 15 15 15 21 22 25 26 25 23 21 19 17 15 13 10 8 5 3 2 2 2 2 3 4 4 5 5 6 7 8 8 8 8 9
29 28 26 21 20 25 28 23 19 16 14 16 17 19 22 23 23 21 20 18 16 14 12 10 7 5 4 2 1 1 0 1 3 3 2 3 4 5 6 7 7 7 8
32 28 24 19 19 24 29 24 21 17 15 15 16 17 18 18 18 18 17 16 15 13 11 10 8 6 5 4 3 2 2 2 2 2 1 1 3 4 4 5 6 7 8
28 29 26 19 19 21 28 25 23 19 18 16 13 15 16 17 17 17 16 15 14 13 11 10 9 8 7 6 5 4 3 3 3 2 1 1 2 3 4 5 6 7 8
26 27 25 21 20 19 22 26 23 22 20 16 14 13 13 14 14 13 13 12 11 11 11 10 10 9 8 7 6 5 3 3 2 2 2 2 2 3 5 7 9 9 10
25 25 22 22 21 18 18 19 21 21 19 17 14 13 13 11 12 11 11 10 9 10 11 10 10 10 9 8 7 6 5 4 4 4 4 3 3 4 7 9 10 12 11
30 27 22 18 20 21 16 14 14 15 16 17 15 15 13 12 11 11 11 10 9 9 10 10 10 10 9 8 7 6 5 5 6 5 5 6 7 9 10 12 12 15 14
33 25 24 18 16 16 16 16 13 12 14 14 13 14 13 13 12 12 12 11 10 10 11 10 11 10 9 9 8 7 6 5 5 6 8 9 11 12 11 15 14 17 16
26 28 22 25 15 17 18 15 16 12 10 8 7 8 11 12 13 14 12 11 11 12 12 12 12 11 10 8 7 6 6 6 8 10 12 14 16 16 18 18 19 18 18
29 29 28 26 26 25 20 18 12 13 12 8 8 8 11 12 12 14 13 11 12 13 13 14 13 11 9 7 5 6 8 10 12 13 15 18 20 21 21 19 19 20 19
28 34 34 31 32 26 25 21 25 15 15 16 16 16 16 17 17 17 12 11 12 15 16 16 15 12 10 7 8 11 13 16 16 17 18 21 21 16 19 17 17 16 15
30 33 40 39 30 33 28 17 19 22 28 21 22 16 17 21 21 21 18 19 18 17 17 17 15 12 10 8 11 14 17 18 19 19 19 17 13 19 15 14 13 13 14
39 37 39 39 32 32 24 22 18 27 24 27 22 20 17 18 25 27 23 22 22 21 18 17 16 14 11 11 11 14 12 17 13 6 13 17 18 16 13 14 16 12 12
26 33 27 22 34 31 27 24 26 29 28 29 30 29 30 28 30 29 25 25 27 25 22 22 18 13 12 9 11 10 10 9 19 14 15 16 16 14 13 15 13 12 12
20 22 25 26 34 30 29 31 29 26 31 27 26 22 27 25 20 24 26 21 18 17 8 20 13 10 10 10 14 14 18 25 18 16 16 19 22 19 17 15 17 15 15
23 23 22 23 24 25 28 29 30 25 25 26 27 27 28 27 24 20 19 21 22 20 19 20 12 18 16 15 18 23 25 21 20 19 19 24 21 21 21 16 17 18 17
12 16 16 15 16 20 18 18 20 22 21 19 19 21 22 23 18 19 20 18 18 21 24 24 14 11 13 19 24 21 20 19 18 16 18 22 25 26 21 20 18 16 16

GFSSE_850_spd_090.txt.gz
Wind_Speed
21 26 27 24 22 18 15 13 12 14 19 22 22 20 18 18 17 13 13 12 16 20 19 18 17 17 21 20 17 18 16 17 17 17 18 17 17 16 16 16 15 12 10
25 26 28 25 23 18 15 13 13 14 19 23 22 22 21 19 16 15 13 13 16 20 20 17 20 23 21 18 18 17 17 17 17 17 16 16 15 15 15 16 15 14 13
27 26 28 26 22 18 15 15 17 18 21 25 24 23 22 20 18 15 13 16 20 20 18 19 22 22 20 18 17 17 17 17 17 17 17 13 15 14 14 14 15 15 13
27 27 27 25 22 19 16 18 20 21 23 25 25 24 23 21 18 16 15 19 21 19 18 19 22 21 18 17 16 16 16 16 15 15 13 13 14 14 13 13 13 14 14
27 26 26 26 23 20 18 21 23 22 25 25 25 25 26 21 20 16 19 21 20 19 19 22 20 19 17 16 15 15 14 14 13 14 13 13 12 12 12 12 12 11 11
27 26 27 27 23 20 20 24 25 24 24 25 26 26 22 22 18 17 22 23 21 20 21 20 19 17 15 14 14 13 12 12 12 11 11 12 11 11 11 11 11 11 10
27 26 29 28 24 21 24 24 26 25 24 26 27 26 22 21 17 20 23 23 23 21 20 19 17 15 13 11 11 10 10 9 10 9 9 9 9 10 10 10 10 10 9
26 25 27 28 25 22 26 24 24 25 25 25 27 25 22 18 17 22 23 24 22 20 19 17 15 13 11 9 8 8 7 7 8 7 7 7 7 9 9 9 9 9 9
26 26 27 28 26 24 28 23 23 22 25 26 26 24 20 18 18 24 24 24 22 20 17 15 12 10 9 7 6 5 5 5 5 4 5 5 5 7 7 7 8 8 8
24 25 27 28 25 27 29 24 20 19 22 26 27 24 21 20 24 24 23 22 20 18 15 13 10 8 7 5 4 3 3 3 3 2 3 2 3 5 5 5 6 6 6
28 26 28 24 23 24 26 24 19 17 18 23 26 25 23 24 24 23 21 20 18 16 13 11 8 6 5 4 3 3 2 2 1 1 2 1 1 2 3 3 4 5 5
35 32 30 22 23 26 28 26 21 20 19 19 21 22 19 19 18 17 20 19 17 15 12 10 8 6 5 4 4 3 3 3 2 2 3 2 1 0 1 2 3 5 5
31 32 27 23 24 28 28 27 21 20 18 17 19 20 18 18 22 20 19 18 16 14 11 10 8 8 8 7 6 5 5 4 3 3 3 4 3 3 2 3 4 5 6
13 33 29 25 25 27 26 27 23 23 20 18 19 19 20 20 20 19 18 17 14 13 12 11 10 10 9 8 7 5 5 4 4 4 5 5 5 4 4 5 6 8 9
18 30 27 26 27 30 29 23 22 23 20 18 18 20 19 18 18 17 16 14 13 12 11 11 11 11 10 9 8 6 6 6 6 6 5 7 6 5 6 9 10 11 12
31 26 30 29 27 29 32 29 26 22 20 19 16 17 17 16 16 15 14 12 11 11 12 13 12 11 10 10 8 8 7 7 6 6 6 7 9 10 10 11 12 13 15
33 30 28 27 28 30 31 30 27 23 21 19 15 15 15 13 12 13 13 12 11 10 10 10 11 12 11 11 10 8 7 7 7 7 8 8 10 13 15 16 16 16 16
31 24 32 25 25 24 26 27 26 27 24 20 18 16 15 13 13 13 13 11 11 11 11 12 11 11 11 10 8 7 6 8 8 9 10 10 11 12 16 18 19 20 20
31 22 26 24 22 23 21 21 18 19 18 16 17 13 9 8 10 11 12 12 13 12 11 13 13 13 9 9 8 7 8 10 9 10 11 12 13 19 19 19 20 19 20
35 34 27 29 21 20 20 19 19 18 17 18 18 14 8 7 11 14 13 10 11 11 12 15 14 14 12 9 9 9 11 9 10 11 11 13 14 18 16 18 15 15 15
32 36 41 30 32 23 18 19 20 21 21 19 16 13 7 8 14 18 17 17 17 16 16 15 15 15 13 13 11 10 9 10 11 11 10 10 12 14 19 16 13 13 11
34 33 40 31 37 37 29 26 24 22 25 23 18 12 9 9 7 12 18 22 23 22 21 19 15 15 16 16 11 8 7 7 4 4 12 12 15 15 14 16 15 15 12
33 32 35 35 38 37 28 31 19 19 19 17 15 13 11 13 14 17 20 25 20 20 22 22 20 20 16 13 10 4 4 4 10 9 10 13 13 12 16 15 16 16 14
27 23 28 26 32 36 33 28 25 21 17 11 14 19 20 22 22 17 22 19 25 23 14 14 10 26 19 12 8 5 8 14 8 13 15 17 16 13 13 14 15 16 16
18 17 20 17 20 22 22 27 23 30 24 22 24 22 23 22 22 23 24 25 23 21 23 23 18 21 13 12 17 22 26 27 22 23 17 17 19 17 19 20 19 18 17
24 21 22 24 26 26 27 33 30 30 28 28 26 26 24 27 27 29 27 23 19 21 23 21 21 24 20 22 21 18 21 25 23 21 20 19 18 19 21 20 18 17 17

GFSSE_850_spd_093.txt.gz
Wind_Speed
18 23 26 22 21 18 17 16 16 18 20 19 18 15 13 15 15 14 14 14 16 16 16 16 16 19 16 16 16 17 18 19 18 18 17 17 16 16 16 16 9 10 9
18 24 28 23 21 19 16 15 15 18 21 22 20 18 16 17 15 16 15 18 20 16 15 18 19 19 14 16 17 17 18 18 17 17 16 15 16 16 16 14 13 13 12
19 25 28 24 21 19 16 15 15 17 22 23 22 20 19 18 16 16 15 18 21 16 17 18 21 18 16 16 16 16 17 17 18 20 17 11 13 14 14 13 14 13 12
22 23 26 25 22 19 16 14 15 18 23 24 23 23 22 18 17 16 18 23 21 18 19 19 19 16 17 16 16 16 16 16 15 18 11 10 11 12 13 12 12 14 12
21 21 24 26 23 19 16 16 18 21 26 25 25 24 23 20 18 16 21 23 20 19 20 21 19 17 15 15 15 14 14 14 16 12 11 10 10 12 11 11 10 9 9
20 21 25 25 22 19 17 19 20 23 26 27 25 25 24 21 19 20 24 22 20 21 23 21 18 16 15 14 13 12 12 12 14 10 10 9 10 10 11 11 10 9 8
22 25 24 25 22 20 19 21 22 23 25 26 25 26 24 22 19 23 23 21 20 24 22 20 18 15 13 12 11 10 10 11 8 9 8 7 8 9 9 10 10 9 8
20 23 22 25 23 20 21 22 24 22 24 25 27 26 22 21 21 24 24 21 21 22 20 18 16 13 11 10 9 8 8 9 7 7 6 6 6 7 8 8 8 8 8
23 24 20 26 23 21 22 23 24 22 22 25 26 26 22 20 21 24 25 22 22 21 19 16 14 12 9 8 7 6 6 7 8 4 5 2 4 5 6 7 7 7 7
23 22 19 24 24 23 24 24 24 24 23 26 27 25 21 19 21 23 24 22 21 19 17 15 12 10 7 6 5 4 4 5 3 3 3 1 2 3 4 4 5 5 6
26 23 17 23 22 22 25 24 23 23 25 24 24 22 20 18 22 24 23 23 21 19 16 13 11 8 6 4 3 3 2 4 1 2 2 1 0 1 2 2 3 4 5
34 44 33 27 27 25 27 27 23 23 25 24 23 24 16 18 17 15 23 22 20 17 15 12 9 7 4 1 2 2 2 3 2 2 6 3 2 2 1 2 3 4 5
47 42 49 29 34 30 31 27 21 20 19 21 21 19 17 18 20 20 21 21 18 16 12 10 8 6 3 6 6 2 5 4 2 3 6 4 4 4 3 3 4 5 6
38 46 50 39 39 34 33 29 23 21 21 21 17 20 20 19 19 15 16 16 14 13 8 8 6 7 8 6 5 4 5 3 2 4 8 6 5 5 4 4 6 8 10
30 36 43 36 36 32 33 32 28 23 21 21 24 22 20 18 18 17 15 15 13 11 10 8 9 7 7 6 7 6 5 4 4 5 5 9 8 6 7 8 9 10 12
25 22 22 30 30 22 31 31 27 27 22 20 21 21 19 18 19 18 16 14 13 12 10 9 8 8 7 7 7 7 7 5 6 6 5 9 11 12 11 11 12 12 13
21 20 28 23 26 27 26 27 25 26 24 24 20 20 20 18 18 17 15 14 11 10 9 9 8 9 9 9 8 7 7 6 6 6 7 6 9 13 13 13 15 17 18
29 25 33 20 22 26 30 23 24 23 24 20 19 20 19 17 16 15 13 11 10 10 10 9 8 8 8 7 8 7 7 6 6 7 8 8 8 8 12 14 19 17 18
23 26 40 31 30 26 29 26 22 23 21 17 17 18 20 18 15 14 12 11 11 11 10 9 9 9 9 9 9 9 8 10 8 7 7 8 9 13 13 13 17 17 15
22 20 35 37 29 28 27 28 26 23 19 16 16 15 17 16 15 14 11 11 11 10 8 9 10 10 11 10 10 11 11 10 7 7 8 8 9 13 13 16 17 11 15
22 30 49 38 32 27 26 24 24 24 24 23 24 21 16 13 13 13 14 13 14 12 10 11 11 10 12 11 15 13 12 8 8 9 8 6 6 9 12 12 14 13 10
27 33 40 34 28 24 23 23 19 19 22 21 23 19 12 11 8 8 9 11 16 18 19 17 14 13 15 17 16 12 7 9 8 6 4 6 6 10 10 12 13 14 13
31 33 34 45 31 22 21 20 17 14 13 20 21 18 16 14 9 9 11 10 10 14 12 20 25 20 21 16 17 11 6 6 4 2 5 8 12 11 11 14 13 15 15
28 25 31 38 34 28 18 18 17 14 7 15 17 18 16 16 12 18 13 13 12 10 15 9 9 9 18 21 19 19 15 10 5 9 13 18 18 18 13 15 14 15 16
24 21 15 23 33 37 27 13 13 15 21 15 18 17 15 15 22 18 18 20 17 11 14 15 17 9 14 21 28 24 19 17 17 19 16 12 17 19 22 22 18 16 15
14 8 13 8 18 30 26 21 22 18 26 22 23 21 27 24 22 25 22 26 23 19 18 16 20 25 22 20 23 21 22 23 21 17 21 22 21 23 22 21 19 16 15

GFSSE_850_spd_096.txt.gz
Wind_Speed
16 13 25 24 22 20 20 20 19 17 15 15 14 12 11 14 14 13 14 17 18 19 17 19 17 17 17 16 17 18 19 19 19 18 16 16 16 16 15 13 11 12 14
16 14 24 24 22 20 18 18 19 19 17 16 15 13 12 14 14 15 16 18 18 18 18 20 16 14 16 17 18 18 19 19 19 17 15 15 16 15 14 14 14 15 16
17 15 25 24 21 19 17 16 17 19 19 18 17 15 14 16 15 15 17 19 16 17 20 22 15 16 17 17 17 17 19 21 21 18 15 12 13 14 14 14 16 14 14
17 14 28 24 21 19 16 15 16 18 21 20 18 17 17 17 17 15 19 19 15 16 25 24 18 17 16 16 17 17 18 19 18 14 7 11 11 12 12 13 13 12 12
17 14 24 23 21 19 16 14 15 18 21 22 21 19 20 18 18 16 21 20 15 20 21 21 21 18 17 16 16 15 16 15 13 10 8 10 11 11 10 10 10 11 10
20 17 20 21 20 18 15 15 16 19 23 23 23 22 22 18 19 20 24 20 17 19 20 19 18 17 16 15 14 14 13 13 12 9 8 9 9 11 10 10 10 9 9
21 19 20 20 20 18 16 15 17 21 25 25 24 23 22 20 20 24 22 21 20 22 21 18 17 16 14 13 13 12 11 12 10 5 7 8 8 9 10 10 10 10 9
22 21 22 20 21 18 16 17 18 22 26 25 25 24 23 22 21 25 22 21 23 20 19 18 16 14 12 11 10 10 10 11 8 4 7 6 7 8 8 9 9 9 9
19 21 23 23 21 19 18 18 19 22 24 25 25 26 24 23 23 25 22 20 23 21 19 17 14 12 10 9 8 8 8 10 5 6 3 5 5 5 6 7 7 7 8
26 27 23 20 22 20 19 20 22 20 23 24 27 29 24 22 25 26 22 20 22 20 18 16 12 10 8 7 6 7 8 7 4 5 1 2 3 3 4 4 5 6 7
32 32 30 26 19 20 20 22 23 21 23 28 30 29 25 23 25 26 24 20 22 20 18 14 11 8 6 5 4 4 5 6 5 1 4 3 2 2 3 4 4 5 6
34 28 25 27 21 18 21 25 26 26 24 29 31 28 25 22 25 25 24 21 21 20 17 13 10 7 5 4 2 2 3 3 3 3 6 4 3 2 2 3 4 5 7
33 35 19 30 25 19 24 27 29 29 29 26 27 27 22 19 23 25 26 24 22 19 15 11 8 6 4 1 2 1 1 5 2 5 5 4 4 4 3 3 4 5 7
32 29 24 46 41 29 11 33 32 31 30 26 24 22 18 23 25 26 24 23 19 16 14 10 8 6 5 7 7 3 6 1 3 6 6 7 6 5 4 4 6 8 8
34 35 27 33 50 45 43 38 35 31 29 32 27 23 23 25 26 22 21 22 19 15 12 8 7 6 8 4 4 7 7 1 2 5 7 8 9 7 7 8 8 9 9
34 33 27 27 56 43 48 38 36 32 30 25 26 28 28 25 25 20 20 20 17 14 14 11 8 10 8 7 9 5 5 7 7 8 8 7 7 10 10 9 11 11 12
30 32 26 19 37 42 30 41 36 32 29 32 32 33 32 27 29 27 21 20 17 15 13 11 10 8 7 8 10 12 8 9 7 7 7 9 7 11 8 9 12 13 14
26 30 26 24 35 22 20 26 35 36 28 28 35 32 28 26 25 23 20 17 15 12 11 11 11 12 13 12 11 9 11 10 8 8 7 9 11 8 10 14 16 15 15
26 26 29 27 26 33 32 28 29 34 29 25 25 28 26 22 21 20 18 15 13 13 11 11 9 9 8 8 10 10 8 8 11 11 8 8 8 11 16 16 12 14 11
31 26 31 24 27 28 28 25 26 26 26 25 23 22 23 22 21 19 18 17 16 15 11 9 9 8 9 11 9 8 10 14 13 11 9 12 12 16 15 11 12 12 13
11 22 29 35 31 32 33 31 26 20 22 22 23 19 21 21 19 19 17 18 15 11 12 12 10 9 11 11 13 16 18 18 12 11 14 15 17 11 8 11 12 13 13
17 22 32 37 39 37 32 29 30 26 25 23 22 21 20 19 17 16 15 14 13 15 15 16 17 15 12 13 15 17 15 19 17 17 17 15 10 8 9 11 14 15 13
20 25 38 40 31 30 25 24 22 18 20 23 24 23 20 16 15 14 11 11 10 13 17 19 19 22 21 15 18 17 8 8 15 11 10 12 13 12 12 17 16 16 15
20 30 37 39 28 23 23 21 19 19 15 13 18 20 15 12 13 11 11 10 10 12 11 16 13 10 8 12 16 21 27 15 14 13 18 13 14 22 15 15 17 17 17
16 35 38 34 25 20 17 18 14 11 14 12 15 19 21 21 18 15 16 14 16 15 14 15 18 15 14 11 12 19 25 23 22 15 16 21 21 15 17 20 19 16 17
12 16 26 32 29 19 19 14 11 18 11 15 12 15 15 14 19 19 16 25 25 29 24 23 23 20 18 21 23 22 26 28 23 21 22 22 20 19 20 20 20 19 18

GFSSE_850_spd_099.txt.gz
Wind_Speed
18 25 27 27 25 23 21 21 20 19 19 17 14 14 13 15 16 14 16 20 20 19 19 17 19 16 16 17 17 19 19 19 16 15 15 16 15 13 15 13 15 16 15
18 22 27 27 26 23 22 21 20 19 18 17 15 14 14 15 15 15 18 18 17 18 20 16 17 17 18 19 20 20 19 18 18 16 14 14 15 16 16 17 17 16 16
17 23 27 27 26 24 22 20 19 19 19 18 17 15 14 16 16 17 19 19 18 17 19 13 16 18 19 19 19 20 19 17 16 15 13 12 14 14 16 16 13 15 16
16 20 27 26 25 24 22 20 19 19 19 19 17 15 16 17 17 18 19 18 16 18 19 14 17 18 18 19 20 18 16 14 13 13 12 11 11 12 12 12 14 12 12
15 12 23 26 25 23 21 20 19 20 20 20 19 17 17 19 18 19 20 17 16 20 20 17 17 17 18 18 17 16 14 11 10 10 10 11 10 10 10 10 11 11 9
12 9 20 24 24 22 20 18 18 20 21 21 21 20 20 20 20 21 20 17 15 28 21 20 17 17 17 16 16 14 14 12 10 10 10 10 9 10 11 10 10 10 9
14 13 14 21 21 20 18 16 17 19 22 22 23 22 23 20 21 25 21 18 21 23 22 20 18 17 16 15 14 13 12 9 10 10 9 9 9 10 10 10 10 10 10
14 15 17 19 20 19 17 15 17 18 24 24 24 23 24 21 23 27 23 21 24 22 21 19 17 16 15 14 12 11 10 8 8 8 8 7 8 8 8 9 9 9 9
15 17 20 21 20 18 17 15 16 19 24 25 25 25 25 22 26 27 24 24 23 21 21 19 17 14 13 12 11 10 8 7 5 6 7 6 6 7 7 7 7 7 7
20 23 25 22 22 19 18 15 17 20 24 24 25 26 26 24 31 26 24 27 22 21 21 18 15 13 11 10 10 10 8 7 3 3 5 5 4 4 4 4 5 6 6
20 23 27 27 25 21 18 17 19 19 22 24 25 27 28 27 28 27 25 26 22 24 21 18 14 12 10 9 8 8 7 6 4 3 3 3 2 2 2 3 4 5 6
23 24 27 27 29 27 20 18 21 20 24 26 28 31 32 27 31 29 26 27 23 23 21 17 14 11 9 8 7 7 6 5 3 1 2 3 3 2 2 2 2 3 5
27 26 25 29 27 25 23 20 21 22 23 27 30 34 31 30 32 32 29 25 26 24 20 17 13 10 8 8 7 7 5 4 3 1 2 3 3 4 4 3 3 4 5
29 30 30 28 27 25 24 22 21 24 25 28 32 38 33 27 32 33 32 30 27 24 19 15 12 10 8 7 6 7 4 1 7 2 4 4 5 5 5 5 6 7 6
29 30 31 30 29 31 29 22 23 25 30 28 37 38 31 29 31 32 30 29 25 22 18 16 13 11 8 6 7 7 6 5 2 1 4 6 4 5 6 7 8 8 9
28 30 31 34 31 32 34 40 33 20 34 36 37 29 25 26 28 30 28 26 24 22 19 16 13 10 6 7 8 7 9 7 6 7 8 5 5 6 10 5 6 8 9
27 29 30 33 31 26 31 40 44 32 37 38 33 29 27 24 28 28 27 28 25 22 18 15 12 11 10 10 8 10 10 10 11 9 7 7 8 9 9 8 11 14 12
20 29 32 33 32 31 28 50 38 45 38 43 36 33 33 29 27 29 28 28 25 22 18 17 15 13 12 12 11 11 14 10 14 10 9 10 10 10 10 12 16 16 14
19 21 24 29 32 32 27 31 37 32 40 37 35 34 36 32 30 30 26 25 23 21 20 18 16 15 14 13 12 10 10 9 9 10 12 11 13 12 13 16 18 15 13
25 17 28 30 34 27 28 28 32 37 37 35 37 39 35 32 30 30 27 24 23 20 19 18 16 14 12 10 8 7 9 11 11 13 12 14 15 13 16 18 16 12 12
20 18 32 30 31 35 36 36 33 40 33 39 38 42 36 31 30 29 26 23 22 22 18 18 16 14 13 11 12 12 12 14 17 14 18 19 19 21 20 15 11 12 14
21 32 22 25 30 36 45 40 40 31 33 33 31 32 32 29 28 28 27 27 23 21 20 19 18 16 15 15 13 16 15 19 21 20 19 20 22 21 16 11 12 17 16
16 31 35 37 35 29 37 35 34 25 21 32 28 26 27 29 27 27 26 25 22 19 17 16 15 15 16 16 17 17 10 15 17 21 24 23 22 19 17 16 24 20 17
18 22 29 33 40 40 33 29 27 28 26 27 28 28 25 26 25 22 20 20 19 17 19 17 15 17 18 20 22 25 26 22 11 13 25 22 20 17 17 21 18 17 19
20 21 20 30 35 32 34 32 31 27 25 24 23 26 25 23 22 19 16 17 13 15 15 14 14 20 20 23 23 23 20 19 20 15 17 24 20 18 20 17 17 17 18
19 26 28 27 26 28 33 29 30 27 22 21 24 19 19 21 17 23 23 19 19 21 22 22 21 19 21 24 22 19 18 20 23 24 23 18 19 22 18 19 17 18 19

GFSSE_850_spd_102.txt.gz
Wind_Speed
22 28 31 30 28 26 25 24 24 23 20 18 18 17 17 16 15 13 15 19 20 17 15 15 13 14 15 16 17 19 17 16 16 16 16 15 13 15 16 16 15 16 16
17 30 31 30 28 26 25 25 24 23 21 18 18 17 17 17 16 15 19 19 19 17 17 15 14 15 17 18 19 18 17 17 16 15 14 16 17 17 18 16 16 17 17
18 29 30 29 27 26 25 25 24 23 21 18 17 17 18 18 17 19 21 18 20 18 16 14 15 18 19 19 19 17 16 16 15 14 13 14 16 17 14 14 15 15 16
16 27 29 28 27 25 24 23 22 21 20 19 18 16 18 18 19 20 20 20 19 18 14 15 18 19 19 19 17 14 14 14 13 13 11 11 13 13 12 13 12 12 12
15 19 26 27 25 24 23 22 21 21 20 19 17 17 18 19 19 21 21 20 18 19 15 17 18 18 19 17 15 12 12 13 12 11 11 10 10 11 10 11 11 10 10
16 15 23 27 25 23 22 21 20 20 21 20 19 18 18 19 20 21 20 19 19 20 17 18 18 18 18 16 14 10 10 11 10 9 9 10 10 11 10 10 10 10 9
18 16 20 26 25 23 21 20 20 20 20 22 21 20 20 20 21 21 20 18 19 22 21 19 18 18 17 15 13 11 10 11 10 10 9 8 9 10 10 10 9 9 10
17 17 18 24 23 23 21 19 19 21 22 23 23 22 21 21 22 21 20 18 22 23 24 20 19 17 16 14 12 9 9 10 10 9 9 8 8 8 8 8 8 8 8
16 19 20 22 22 21 20 18 18 19 23 24 25 24 23 21 23 23 21 18 24 25 23 20 19 17 15 13 12 9 7 8 8 8 8 7 6 6 6 6 6 6 6
21 23 23 24 23 23 21 18 17 19 23 25 25 26 25 22 25 23 20 21 22 24 22 20 18 16 14 12 10 8 6 5 7 6 6 5 4 3 4 4 4 4 5
19 19 20 24 23 23 21 19 18 20 24 25 26 26 26 23 29 27 24 27 23 23 24 20 17 15 13 12 10 9 7 4 5 5 3 3 2 1 1 2 2 3 3
22 21 20 23 25 24 23 21 20 22 25 26 27 27 28 26 33 29 25 27 25 24 23 19 16 14 13 12 11 10 8 5 4 3 1 1 0 1 1 1 1 2 3
24 24 22 23 23 27 26 24 23 23 25 27 27 29 31 30 34 31 27 28 26 27 23 20 18 14 13 12 11 11 9 6 5 3 2 1 1 2 3 3 2 3 5
24 24 24 24 26 27 28 27 25 24 24 27 29 30 31 34 33 34 31 32 30 28 25 21 17 15 14 12 11 11 8 7 7 4 1 1 2 2 3 4 4 5 5
25 27 29 27 26 25 28 28 26 25 23 24 29 32 35 35 33 36 33 33 32 29 25 22 19 16 14 12 12 11 10 7 6 5 4 2 3 3 3 5 6 6 7
22 28 30 29 30 28 27 27 22 21 24 24 27 33 38 35 35 36 35 33 30 29 25 22 19 16 13 11 11 11 10 11 9 8 7 4 4 6 8 9 5 6 9
16 24 27 32 30 31 32 31 27 25 34 27 23 32 35 39 31 31 32 33 30 28 25 22 20 17 15 13 12 12 11 13 12 11 10 7 8 10 11 12 8 10 12
20 20 25 26 27 28 30 36 36 37 33 32 22 33 32 30 32 33 32 32 30 29 27 25 21 18 16 14 14 13 14 14 15 14 13 12 10 13 14 11 12 14 15
26 24 20 29 32 33 33 34 35 35 43 35 44 36 37 34 29 33 36 35 32 31 29 25 22 19 17 16 16 14 15 16 15 17 15 15 13 15 14 16 15 17 16
25 23 25 21 25 27 29 32 32 31 41 36 39 30 36 32 34 32 31 29 33 31 27 24 22 21 18 16 16 16 15 14 15 15 16 16 17 18 17 18 18 18 14
26 28 27 27 28 29 31 32 28 35 41 51 44 41 37 35 38 35 34 33 33 30 28 25 23 20 20 17 16 15 14 16 18 19 19 21 22 18 19 21 20 16 10
25 28 27 22 21 26 29 30 31 35 40 45 44 38 37 36 38 35 35 32 31 30 27 24 23 22 19 18 19 16 14 19 24 24 24 25 24 23 23 23 20 16 19
26 27 20 19 15 23 32 32 30 35 38 39 35 34 33 36 35 34 35 33 31 30 27 24 24 25 22 20 21 14 8 10 14 25 30 28 26 25 22 21 20 18 19
26 26 19 25 25 27 35 35 38 35 33 39 39 37 36 35 32 34 34 33 29 28 27 24 23 23 21 21 18 18 23 26 19 12 21 29 26 25 20 20 19 21 19
22 26 20 25 32 28 27 32 37 32 34 25 34 33 33 31 30 32 29 27 26 25 24 24 20 22 24 27 28 31 29 33 32 24 19 24 27 25 22 21 21 21 18
20 26 17 27 32 37 39 29 34 34 28 31 32 30 28 25 28 27 27 28 25 22 18 19 19 21 22 26 25 29 31 29 34 27 24 21 25 22 21 20 20 20 18

GFSSE_850_spd_105.txt.gz
Wind_Speed
23 23 29 29 28 27 27 26 25 23 21 20 18 17 15 13 11 10 13 17 19 16 13 11 15 16 18 16 14 12 13 15 16 14 12 12 13 16 14 15 15 16 16
21 25 30 29 27 27 27 26 24 22 20 19 19 17 16 14 13 13 17 19 16 16 13 12 14 15 16 15 16 13 14 15 14 14 14 16 17 15 16 16 17 17 17
16 24 29 28 25 26 26 25 24 22 20 18 18 17 17 16 14 17 20 19 18 17 14 12 14 15 17 17 15 15 15 15 14 13 14 17 14 12 15 15 14 15 16
15 25 29 29 26 24 24 24 24 23 20 18 18 17 18 17 17 20 18 19 19 16 13 13 16 17 16 15 14 13 14 13 11 12 11 12 13 11 11 10 12 12 10
18 24 27 29 27 25 22 23 22 22 20 18 18 17 18 18 19 21 19 19 18 15 13 16 16 16 15 13 12 13 12 11 11 10 9 9 8 10 11 10 9 9 9
18 22 24 26 27 25 24 22 21 20 19 18 18 18 19 20 20 19 21 19 16 15 17 17 16 16 14 11 11 11 10 10 10 9 8 8 9 9 9 9 9 9 9
19 21 24 26 26 25 23 22 20 20 19 19 18 18 19 20 21 21 21 19 17 16 18 18 17 16 13 10 9 10 10 10 9 9 8 8 8 8 8 8 8 9 8
17 21 25 26 25 24 23 21 20 20 20 20 20 19 19 21 22 21 20 18 19 19 19 18 17 16 14 11 9 9 9 9 9 8 7 7 7 7 7 7 7 7 7
18 20 25 27 26 24 23 22 20 20 21 21 22 21 21 22 22 21 20 19 19 22 21 19 18 16 14 11 9 9 8 8 8 8 6 6 5 5 5 5 4 5 5
21 23 24 27 27 26 24 22 20 21 22 23 24 23 22 22 23 22 20 19 20 22 22 20 18 16 13 11 8 7 7 7 7 6 5 4 4 3 2 2 2 3 4
18 23 23 26 28 26 24 22 20 20 22 24 25 24 23 24 24 23 22 21 22 25 23 20 18 16 14 12 10 8 6 5 5 5 4 3 2 2 1 0 1 2 2
20 23 23 23 24 25 25 24 22 21 23 26 26 26 25 25 24 25 24 23 26 26 24 21 19 16 14 13 12 10 7 6 5 4 3 2 2 2 2 1 2 3 4
19 24 25 22 23 26 26 25 23 22 23 27 27 27 26 25 26 29 26 27 28 30 28 23 20 18 16 14 13 12 10 7 6 5 3 2 1 3 3 3 3 4 5
15 16 27 26 23 25 26 26 24 22 24 27 28 28 30 30 31 32 30 29 31 30 28 25 21 18 16 15 14 13 12 10 8 7 4 3 2 3 3 4 5 6 6
19 15 21 29 29 26 27 26 26 24 25 26 28 29 30 31 33 35 33 29 33 31 29 26 22 20 17 16 14 14 13 11 11 9 7 2 2 4 2 5 6 7 6
22 18 20 23 28 30 28 28 27 26 24 25 28 29 30 32 33 36 35 32 34 31 30 26 23 21 18 16 16 15 14 13 11 10 8 6 4 4 6 8 7 6 8
26 22 19 24 26 29 29 28 27 24 20 22 22 29 32 33 35 39 38 34 35 32 30 27 24 21 20 18 17 17 16 15 15 13 12 10 9 9 9 10 11 8 11
29 25 19 22 26 29 27 29 29 28 24 25 25 28 30 33 38 41 38 31 35 32 31 28 25 24 22 20 17 16 16 15 16 16 15 15 12 13 12 13 12 12 14
26 28 25 21 24 26 28 28 27 26 27 25 27 26 24 25 38 39 38 36 39 32 29 29 26 25 23 22 20 17 16 17 17 18 19 17 16 15 16 17 16 16 16
27 30 30 26 25 27 28 29 30 33 36 34 34 36 36 34 29 31 27 31 36 35 34 31 30 25 24 21 17 17 17 18 19 21 20 21 19 19 19 21 20 18 17
31 31 33 29 25 28 31 31 35 38 39 41 39 39 47 40 41 41 38 31 35 35 32 33 30 27 26 21 20 20 20 19 21 20 21 22 23 22 21 23 21 20 18
33 31 34 32 29 28 28 29 30 32 38 39 41 40 42 42 40 38 40 39 37 37 38 36 33 30 27 24 23 19 16 20 21 22 23 24 25 24 26 25 22 21 19
27 35 36 34 32 30 30 29 27 26 30 35 38 42 47 47 40 39 36 36 33 34 36 38 34 32 30 27 26 18 10 11 13 15 21 25 29 31 28 28 25 22 19
26 33 33 31 29 28 23 22 29 32 32 33 36 38 37 45 44 38 37 32 27 35 40 36 35 33 31 29 28 28 23 18 15 15 19 23 30 34 29 29 27 23 20
24 30 36 34 29 25 28 29 25 29 32 32 30 36 42 44 44 40 36 33 29 37 36 39 37 33 33 31 26 23 21 28 31 31 28 26 23 27 31 28 24 22 20
31 28 34 34 29 25 28 25 27 32 37 29 35 36 30 28 30 31 30 29 29 34 34 35 33 31 26 23 24 28 31 30 31 29 30 31 27 25 29 28 28 20 20

GFSSE_850_spd_108.txt.gz
Wind_Speed
15 17 27 27 26 23 23 22 22 21 19 18 16 14 12 10 8 7 11 15 16 15 9 13 18 17 14 12 12 13 16 15 12 11 12 13 14 14 15 16 16 15 13
12 20 27 28 27 24 23 22 21 20 19 17 16 14 12 11 10 10 14 18 15 14 13 15 19 18 16 14 12 14 15 14 14 14 16 16 15 16 16 16 16 16 15
12 18 26 28 27 25 23 22 21 19 18 17 16 15 14 12 12 14 18 15 16 13 15 14 17 16 15 14 13 14 14 15 15 15 15 15 14 15 14 15 16 15 14
10 17 24 26 25 25 24 23 21 19 17 16 15 15 15 14 14 18 17 17 17 14 11 13 14 16 16 15 14 14 13 13 13 13 11 11 12 12 10 10 9 10 9
13 19 24 25 24 25 24 22 21 20 18 16 15 15 16 15 16 18 18 18 16 13 11 13 15 15 15 14 13 12 12 12 11 10 9 9 9 10 10 10 9 9 8
12 18 22 24 24 23 23 22 22 20 19 16 15 15 17 17 18 19 19 19 14 11 12 14 15 15 14 13 12 11 11 11 10 9 8 9 9 9 9 9 9 9 8
12 19 21 23 23 23 21 22 22 20 19 18 17 16 17 18 20 20 19 18 14 13 15 15 15 13 12 12 11 11 10 10 9 9 8 8 8 9 8 8 8 8 7
11 17 20 23 23 23 22 21 21 20 20 19 18 17 17 19 19 20 20 18 16 14 16 16 15 13 11 11 10 10 9 9 9 8 7 7 7 7 6 6 6 6 6
14 16 19 21 23 23 23 22 21 20 20 20 19 18 18 19 20 20 20 19 17 17 18 17 16 13 11 10 9 9 8 8 8 7 7 6 5 5 4 4 4 4 5
12 16 21 22 24 24 24 23 22 21 21 21 22 21 19 19 19 20 19 18 18 20 20 19 17 15 12 10 9 8 7 7 7 6 6 5 4 3 2 2 2 2 3
12 17 22 24 25 26 25 24 23 22 22 22 23 23 22 22 22 21 20 18 18 22 23 21 19 16 13 12 10 8 7 7 6 5 4 4 4 3 1 0 1 2 3
10 15 21 26 26 27 27 26 25 24 24 25 25 25 25 24 24 23 21 19 18 22 24 22 20 18 15 13 11 10 8 7 6 5 4 3 3 3 2 2 2 2 3
15 13 19 25 23 25 25 27 27 26 25 26 25 26 26 25 24 24 24 22 21 24 24 23 22 20 17 15 13 11 9 8 7 6 5 4 3 3 3 4 4 4 4
22 16 14 23 25 24 25 27 26 25 25 26 27 27 27 28 26 26 27 25 23 26 26 24 23 21 19 16 14 13 11 10 8 8 6 5 4 3 3 3 5 6 6
28 22 17 18 28 27 28 27 26 26 25 25 28 29 28 29 28 26 28 27 24 28 28 27 24 22 20 18 16 15 14 12 11 11 9 7 4 3 2 2 5 5 5
32 28 21 19 23 31 28 27 27 27 27 26 27 29 30 30 30 29 30 30 26 28 27 28 24 22 20 19 17 16 15 14 13 13 12 11 7 4 5 5 5 6 7
32 33 28 22 22 26 32 31 29 28 26 25 25 26 28 30 32 30 32 31 31 27 30 28 26 24 21 20 20 18 17 17 16 15 14 13 12 10 10 8 7 7 9
29 34 32 26 24 27 27 30 29 29 27 24 24 23 23 28 30 32 33 33 33 28 30 30 28 25 23 23 21 19 19 19 18 18 17 16 15 13 13 14 12 11 11
28 31 35 31 26 27 29 28 29 30 27 26 24 22 23 27 30 33 36 35 36 29 26 30 28 26 25 24 23 20 20 20 21 19 19 18 17 16 15 15 17 16 15
26 28 30 33 29 25 28 30 29 29 30 29 27 26 26 26 29 30 30 33 29 32 32 30 27 28 27 25 24 23 22 22 21 22 20 19 20 19 17 16 17 19 19
25 33 34 34 31 28 30 31 31 31 31 33 29 29 27 25 26 28 26 33 35 27 39 34 30 31 29 28 25 26 25 24 23 24 23 22 21 18 18 18 19 22 22
27 32 34 36 34 32 30 32 33 31 32 33 34 34 35 36 37 39 38 32 34 35 39 44 37 33 32 32 29 27 24 27 28 25 21 22 20 21 23 22 22 24 23
27 30 37 39 36 34 31 30 32 32 32 34 37 39 40 40 41 42 43 40 39 39 40 45 40 36 35 35 32 24 12 15 14 20 22 22 24 24 26 27 26 26 27
24 30 38 39 36 35 32 32 32 33 34 34 34 35 36 38 39 42 42 40 38 41 39 42 43 41 41 40 34 36 33 17 9 6 14 15 16 22 28 28 30 30 28
20 27 31 35 33 36 36 33 29 30 29 28 28 30 34 37 36 39 45 41 39 42 46 44 39 43 41 41 38 39 38 40 30 22 24 26 25 21 23 26 27 29 29
19 25 26 30 32 35 32 29 27 25 25 25 28 28 28 30 32 32 35 38 40 42 40 40 41 44 42 40 35 35 36 30 23 26 30 29 25 26 26 27 25 29 31

GFSSE_850_spd_111.txt.gz
Wind_Speed
7 14 21 21 21 21 22 20 18 17 16 15 14 12 10 9 8 9 12 14 11 10 11 16 17 18 15 11 15 18 16 13 12 12 13 15 14 14 16 15 14 13 11
5 16 23 21 21 21 22 20 19 18 16 15 13 12 10 8 8 10 13 16 14 10 13 17 15 12 14 15 15 16 14 14 14 14 15 15 16 16 16 16 15 15 13
5 17 25 22 20 19 20 20 19 17 17 15 14 12 11 10 9 11 16 15 13 12 12 19 17 16 12 15 15 15 15 16 16 16 15 17 16 15 16 16 14 14 13
4 16 24 23 22 20 19 18 19 18 16 15 13 13 11 11 10 14 15 15 15 12 10 13 14 15 14 15 15 15 15 15 15 14 13 12 13 11 11 10 9 10 9
5 12 21 23 22 22 19 19 18 17 16 14 13 13 13 12 12 17 15 17 15 11 10 11 14 15 15 14 14 13 13 12 12 11 11 11 10 9 10 9 9 8 7
6 12 18 21 21 22 21 20 18 17 16 14 13 13 13 14 15 17 16 18 12 10 9 12 14 14 13 12 12 12 11 11 10 10 9 10 9 9 9 9 8 8 7
5 12 18 20 20 21 20 20 19 18 17 16 14 13 14 15 16 17 18 17 12 10 11 13 14 13 12 12 11 10 10 10 10 9 9 9 9 8 8 7 7 6 6
5 9 17 20 21 20 21 21 20 19 18 18 16 15 15 16 18 18 18 16 12 11 13 14 14 13 11 10 10 10 9 9 9 8 8 8 8 7 7 5 5 5 6
5 8 14 17 18 21 21 20 20 20 20 19 18 17 17 17 18 20 19 17 14 12 14 14 14 13 11 10 10 9 9 8 8 8 7 7 6 6 5 4 4 4 5
6 9 12 17 18 21 23 21 21 21 21 20 20 19 18 18 20 19 19 19 16 14 14 15 15 13 12 10 9 8 8 8 7 7 6 6 5 4 3 2 2 3 4
7 11 15 16 19 20 23 24 23 22 22 21 21 21 20 20 20 20 20 18 16 16 17 17 16 14 12 11 10 9 8 8 7 6 5 5 4 3 2 1 1 1 2
7 9 14 19 20 22 24 25 25 24 23 23 23 23 23 22 22 21 21 19 16 17 19 19 18 16 15 13 12 10 9 8 7 6 5 5 4 4 3 2 2 2 3
19 12 10 16 23 25 25 25 26 26 25 25 24 23 24 23 23 23 23 21 19 18 22 22 21 19 17 15 13 10 9 8 7 7 7 6 5 5 5 4 3 3 4
27 22 15 15 19 25 26 25 27 27 27 26 27 26 26 27 25 24 25 24 22 20 22 24 23 21 19 17 14 13 12 10 9 9 8 7 6 5 5 4 4 5 6
31 29 23 19 19 21 24 26 26 26 26 25 26 28 28 29 28 25 25 25 24 21 24 25 24 23 21 19 17 15 14 13 12 11 10 9 7 6 5 4 2 4 4
33 32 31 26 22 21 26 27 27 27 26 26 26 27 29 30 29 28 27 27 26 22 21 25 25 23 22 20 19 17 16 16 15 13 13 13 10 7 6 6 4 4 6
30 31 36 33 27 23 27 30 29 27 28 27 25 24 27 31 31 30 29 29 25 24 20 24 25 25 23 22 21 20 18 17 17 17 14 15 14 12 10 9 8 7 7
23 29 34 36 34 29 26 30 32 29 28 28 25 24 25 27 29 30 29 28 27 28 24 23 25 27 26 25 23 22 22 20 20 20 18 18 17 16 16 14 13 13 11
25 24 30 35 35 33 28 29 32 33 31 29 27 25 25 25 26 28 29 28 29 30 28 26 27 27 29 26 25 24 24 23 22 21 22 21 21 18 18 17 16 17 17
29 27 28 33 34 32 30 29 32 32 33 30 27 26 26 25 25 25 27 31 32 32 30 28 29 26 25 25 25 26 26 25 24 25 24 22 22 21 20 18 18 19 19
27 28 29 32 34 32 33 31 33 34 33 33 30 30 26 24 22 24 27 30 30 30 32 27 31 36 30 27 30 31 29 30 30 28 26 25 24 23 21 22 22 22 21
24 28 28 35 34 34 34 32 34 37 35 32 34 33 29 27 26 26 26 29 28 28 29 33 32 37 46 42 34 27 26 30 33 31 28 27 26 23 24 22 23 24 23
25 28 31 35 38 38 35 32 31 34 35 34 32 32 31 31 32 31 30 30 34 33 32 36 36 41 41 43 38 29 15 24 22 25 25 26 24 23 23 24 25 26 27
21 24 30 31 38 39 35 33 34 36 38 36 33 32 33 34 34 36 37 37 40 40 38 38 37 39 43 46 43 33 35 32 13 12 15 20 23 18 22 22 27 27 28
18 20 26 29 35 36 33 34 35 34 34 32 32 32 32 33 35 37 39 40 41 42 38 42 41 44 50 50 48 45 36 37 38 28 22 16 15 18 23 22 24 25 25
18 21 26 29 29 29 29 30 32 33 31 32 32 31 31 31 31 32 34 39 41 42 44 43 44 42 44 48 46 46 38 31 37 37 38 39 29 32 28 29 26 27 29

GFSSE_850_spd_114.txt.gz
Wind_Speed
6 8 14 16 18 20 18 17 16 15 13 13 11 10 8 7 6 7 9 8 8 7 10 14 14 15 12 14 15 15 13 11 10 10 13 14 12 13 14 13 12 10 9
9 10 16 16 19 20 18 18 16 15 14 14 12 10 8 6 6 8 10 9 8 10 13 14 15 12 9 13 15 13 11 10 10 12 12 14 14 14 14 12 12 11 11
9 12 19 18 18 19 19 18 16 15 14 14 13 11 9 7 7 10 13 12 8 10 13 10 9 9 11 13 13 12 12 13 13 13 16 10 13 13 13 14 13 12 11
3 12 17 18 17 18 19 18 17 15 14 14 12 11 10 8 8 11 14 14 9 10 15 15 13 10 12 13 13 13 13 14 14 13 10 10 9 11 11 10 9 8 6
2 10 16 20 19 18 18 17 17 16 16 14 12 11 11 10 9 14 13 15 12 9 11 10 12 12 12 13 12 12 12 12 12 10 9 9 7 6 7 6 6 6 4
3 9 14 22 21 19 18 17 17 17 16 14 13 11 12 11 11 14 13 15 12 7 8 11 12 13 12 11 10 10 10 10 10 7 6 8 6 7 7 6 6 6 5
5 9 12 20 20 21 21 18 17 17 16 15 13 12 12 12 14 15 14 15 11 7 9 11 12 11 10 10 9 8 8 8 8 7 7 7 6 6 6 5 5 5 5
2 9 13 18 19 20 21 20 18 17 17 16 14 12 13 14 15 17 15 15 12 9 9 12 12 11 10 9 8 8 8 7 7 7 7 6 7 6 5 4 3 4 5
5 5 11 14 17 18 19 20 19 18 18 17 16 14 14 14 16 17 16 17 14 10 11 12 12 11 9 9 8 7 7 7 7 6 6 5 5 5 3 2 2 3 3
2 8 11 14 13 15 18 21 20 20 19 19 18 16 15 15 16 18 16 17 15 12 12 13 13 12 10 9 8 7 7 7 5 6 5 5 5 4 3 1 1 1 2
6 7 12 15 15 16 16 18 21 21 20 20 19 18 17 16 17 17 19 19 17 14 13 14 15 13 11 10 10 8 7 6 6 5 5 5 5 5 3 3 2 2 1
13 10 11 16 19 18 18 18 20 20 23 21 20 18 19 16 16 17 19 19 17 15 15 16 17 15 14 11 11 10 8 7 7 6 6 6 6 6 5 4 4 3 3
24 18 14 15 19 22 21 21 18 19 19 19 19 19 17 17 16 18 20 21 20 17 18 19 19 18 16 12 11 10 10 10 8 8 9 7 7 7 7 6 6 6 5
33 29 22 19 19 21 25 25 22 21 20 21 23 21 20 19 18 17 19 21 20 17 15 18 20 17 18 16 13 12 12 11 10 10 9 9 8 8 8 8 7 7 7
34 35 30 26 23 22 23 26 28 26 25 24 26 25 22 21 21 20 19 20 21 17 17 17 19 19 21 18 18 17 14 13 11 11 11 11 10 10 9 8 6 5 6
28 35 35 33 29 27 24 26 27 29 24 24 27 28 27 23 22 22 22 22 21 19 18 17 18 19 18 20 20 18 16 15 15 14 13 13 13 12 11 11 9 8 8
27 27 34 36 35 32 28 27 29 29 30 29 29 28 28 28 24 24 25 22 21 20 19 20 22 23 22 18 21 18 19 17 15 15 14 15 16 16 14 12 12 11 10
30 29 27 32 37 36 32 28 29 32 33 32 30 27 26 25 27 28 25 22 21 21 21 22 19 19 18 19 18 16 19 18 17 16 16 16 17 18 18 18 17 16 15
29 30 28 26 31 35 33 30 27 32 34 31 30 28 26 25 24 29 30 26 25 26 25 24 25 23 24 27 27 22 18 20 18 18 19 18 19 21 22 21 20 19 19
29 31 33 30 29 31 26 29 32 30 36 34 30 29 28 26 27 29 30 30 30 30 29 30 28 28 27 25 25 28 25 22 21 22 24 21 21 25 24 23 23 22 21
29 30 35 35 32 31 30 28 37 34 35 37 35 31 31 29 26 26 29 28 29 31 32 31 29 29 31 31 30 32 33 31 29 29 29 28 27 27 25 25 25 26 24
26 28 29 33 33 31 28 28 34 37 34 36 37 35 33 30 29 26 27 27 29 28 30 31 33 32 30 35 36 29 22 28 32 37 33 29 30 31 29 28 28 26 25
22 25 27 28 31 31 27 25 25 30 28 34 36 36 35 32 32 31 32 31 28 28 29 30 31 31 32 33 40 28 17 23 23 25 27 29 30 33 35 29 27 26 23
20 21 25 28 30 30 27 25 24 27 26 35 37 37 36 35 36 34 32 31 30 29 31 33 32 31 33 32 32 39 41 23 18 19 24 26 27 30 31 24 22 23 24
19 21 23 25 29 31 26 28 24 26 25 27 30 31 30 33 33 33 31 30 33 36 37 38 38 40 39 39 39 30 31 37 35 28 24 20 23 15 19 21 21 23 26
16 18 23 24 24 28 24 26 25 28 24 25 22 27 26 30 32 34 35 35 35 34 36 38 35 38 38 42 43 39 34 36 31 32 32 33 32 33 31 34 29 28 24

GFSSE_850_spd_117.txt.gz
Wind_Speed
6 8 8 11 15 17 16 14 14 14 11 9 7 7 6 4 3 5 5 5 6 7 9 11 12 10 9 11 13 11 11 9 9 11 11 10 12 13 13 13 12 8 9
8 9 9 13 14 17 16 14 13 13 11 10 8 7 5 3 3 5 5 5 7 9 12 12 11 7 7 10 11 9 8 8 9 10 10 12 12 12 10 9 8 10 10
10 6 12 14 15 17 16 14 13 13 11 11 9 8 5 3 3 6 6 6 6 10 11 11 9 5 8 10 8 7 8 9 12 13 12 8 12 13 12 11 10 11 10
8 5 11 15 14 16 17 15 14 12 11 12 10 8 7 5 5 7 8 6 5 10 8 7 6 7 9 10 9 9 11 13 16 14 9 10 8 11 9 7 6 5 4
4 6 9 13 15 15 17 16 15 13 13 12 10 8 7 7 6 8 10 10 6 9 11 10 6 7 10 10 10 10 12 12 12 9 9 7 2 5 5 4 4 4 4
5 4 12 13 15 15 14 16 15 14 13 12 10 9 8 8 8 11 11 12 7 5 8 7 9 9 9 9 9 9 9 10 9 5 4 10 6 5 5 5 4 5 4
6 8 8 13 17 17 16 15 15 14 15 14 12 11 10 9 9 12 11 13 10 5 7 9 10 9 9 8 7 7 8 8 8 4 5 4 3 4 4 4 4 4 4
5 8 7 10 17 18 18 17 15 15 15 15 13 12 10 10 11 12 12 12 11 6 7 9 10 9 8 7 6 6 6 6 7 4 4 4 4 4 3 3 3 3 4
3 6 9 7 15 16 18 19 17 17 16 15 13 13 11 11 13 14 13 13 13 8 8 10 10 9 8 7 6 6 6 7 8 4 4 2 3 3 2 1 1 2 3
5 5 8 8 9 12 15 18 19 19 18 17 16 15 12 12 14 15 13 14 14 10 9 11 12 10 9 8 7 6 6 6 5 5 4 8 5 3 2 1 0 1 2
10 8 9 12 13 11 12 16 20 20 20 19 18 17 16 15 15 16 16 17 17 13 11 12 13 12 10 9 9 7 6 5 4 3 4 7 5 5 4 3 3 2 2
16 15 12 13 15 18 15 14 18 21 22 20 19 17 19 13 14 13 16 19 18 16 14 13 15 14 12 9 11 10 8 4 7 6 8 7 7 7 6 5 5 4 4
23 22 19 17 17 19 20 21 17 16 20 20 18 17 15 15 17 16 20 19 21 20 18 17 18 17 15 10 9 9 8 8 7 7 10 8 8 8 8 8 7 7 6
24 26 27 24 22 20 20 23 23 18 21 19 21 22 21 19 19 18 19 21 23 22 17 18 18 20 17 14 13 11 10 9 8 8 9 11 10 9 10 10 10 9 8
24 26 28 30 28 25 22 21 25 24 23 21 22 22 21 23 22 19 19 20 23 20 18 17 17 17 17 17 15 13 12 11 10 9 9 12 11 11 11 11 10 9 7
22 24 25 28 31 30 28 23 26 27 25 26 25 25 24 22 22 22 21 22 21 21 20 22 17 18 18 16 15 15 14 13 12 12 11 12 13 14 13 13 11 11 11
22 23 24 26 29 32 33 30 26 31 30 30 31 28 28 27 24 24 25 22 24 23 22 22 19 17 17 17 17 15 15 14 14 14 14 14 14 15 16 15 14 13 13
27 28 28 26 26 27 33 34 30 29 33 33 35 33 30 30 30 28 26 28 25 25 26 24 21 24 21 18 17 17 17 16 15 15 15 15 15 15 16 18 18 17 17
26 27 28 28 28 26 28 31 35 25 32 33 29 29 29 30 28 29 31 27 24 26 28 26 22 22 20 20 21 19 18 20 19 17 18 17 18 19 18 17 20 20 21
24 26 26 26 25 23 23 28 28 30 33 34 33 32 31 31 30 30 29 30 26 25 28 28 24 24 23 21 21 23 26 25 24 25 25 21 22 22 22 22 23 24 23
23 24 25 26 25 23 22 25 28 29 28 34 37 34 33 34 33 32 32 28 27 31 31 28 25 25 28 27 23 28 31 30 31 34 33 33 30 28 25 24 23 24 26
24 23 24 25 25 26 25 22 27 28 28 31 35 38 32 31 32 32 32 31 30 29 29 30 28 28 27 25 29 23 21 23 36 41 39 37 36 32 26 27 27 26 27
23 23 22 24 25 25 26 24 23 25 25 29 30 36 40 32 30 32 32 31 29 28 25 32 31 33 32 30 31 24 12 17 18 20 24 30 32 31 34 28 29 29 28
25 21 22 21 23 23 23 25 25 27 27 28 28 31 35 35 31 31 32 33 31 29 29 32 31 31 31 31 26 33 35 24 10 13 22 24 25 25 29 27 27 27 28
27 27 19 20 20 22 21 24 24 27 28 23 26 27 30 35 34 32 32 33 32 32 30 30 30 28 32 33 33 32 33 37 40 30 24 19 23 30 26 26 26 23 23
20 22 19 18 18 18 21 21 24 25 24 26 26 25 27 31 35 33 33 32 31 32 32 31 31 32 36 36 37 35 35 33 33 34 32 34 34 29 32 31 25 22 22